[[[{"header":{"parameterUnit":"kt","parameterCategory":2,"dx":1,"dy":1,"la1":29.285339999999998,"la2":30.599998999999997,"lo1":-89.70041500000002,"lo2":-87.6738589999976,"nx":112,"ny":82,"refTime":"2022-09-20T18:00:00:Z","depth":0,"parameterNumber":1,"parameterNumberName":"U-component_of_WINDS"},"data":[8.1946,8.1623,8.0909,7.9377,7.8853,7.8031,7.5376,7.3918,7.332,7.3843,7.1824,7.0852,7.3731,7.1562,6.988,7.1535,7.036,6.9292,0.0,7.0067,7.0852,7.144,7.5293,7.8778,8.1059,8.5658,8.9509,9.1827,9.4968,9.7286,9.8482,9.8557,9.8209,9.7418,9.7676,9.7676,9.7372,9.7372,9.7764,9.8557,9.825,9.829,9.8557,9.8557,9.8557,9.8557,9.8557,9.8557,9.8557,9.8557,9.8557,9.8557,9.8557,9.8557,9.8557,9.8557,9.8557,9.8557,9.8557,9.8557,9.8557,9.8782,9.8819,9.8856,9.9006,9.9081,9.9193,9.9866,9.9649,9.9346,9.9987,9.9685,9.9202,9.919,9.9118,9.9081,9.9193,9.9117,9.9099,9.9154,9.9118,9.9081,9.9081,9.9081,9.9076,9.9154,9.9058,9.8931,9.8856,9.9118,9.9978,10.1623,10.3305,10.4988,10.6633,10.768,10.8278,10.8278,10.8278,10.8278,10.8278,10.8278,10.8278,10.8278,10.8278,10.7194,10.5063,10.3941,10.2258,10.0053,9.9006,9.8557,7.7873,7.7755,7.7395,7.5226,7.5077,7.489,7.2721,7.1375,7.0553,7.0553,6.9805,6.9132,6.9057,6.9169,6.9057,6.8384,6.8758,6.9169,0.0,7.0403,7.1787,7.2908,7.6909,8.0461,8.2667,8.7415,9.078,9.1864,9.5528,9.7921,9.852,9.8557,9.8327,9.7801,9.7764,9.7764,9.7764,9.7764,9.8011,9.8557,9.908,9.9342,9.9342,9.9342,9.9342,9.9305,9.8781,9.8557,9.8557,9.8557,9.8557,9.8557,9.8557,9.8557,9.8557,9.8557,9.8557,9.8557,9.8557,9.8594,9.8707,9.8894,9.8998,9.9117,9.9267,9.9342,9.9329,9.9395,9.9394,9.9411,9.9487,9.947,9.939,9.9377,9.937,9.9329,9.9358,9.9385,9.934,9.9376,9.937,9.9342,9.9342,9.9438,9.9485,9.9409,9.9241,9.9118,9.9081,9.8931,9.9417,10.0986,10.2072,10.3604,10.5885,10.6932,10.7717,10.8241,10.8278,10.8278,10.8278,10.8278,10.8278,10.8278,10.8278,10.7493,10.5923,10.424,10.2558,10.0875,9.9267,9.8557,7.3418,7.2058,7.1338,7.1301,7.0179,6.9068,6.9057,6.8993,6.8993,6.8993,6.8993,6.8993,6.8993,6.8993,6.8496,6.6889,6.8059,0.0,0.0,7.06,7.2917,7.6281,7.9489,8.2667,8.5882,8.7864,9.0219,9.336,9.5192,9.6874,9.8445,9.8557,9.8557,9.8557,9.8557,9.8557,9.8557,9.8557,9.8557,9.8557,10.0165,10.0875,10.0838,10.0875,10.0875,10.0726,9.9193,9.8557,9.8557,9.8557,9.8557,9.8557,9.8557,9.8557,9.8557,9.8557,9.8557,9.8557,9.8557,9.8782,9.8969,9.8968,9.9146,9.9337,9.9337,9.9337,9.9348,9.9496,9.9546,9.9584,9.985,9.9734,9.9566,9.9566,9.9455,9.9379,9.9499,9.9441,9.9385,9.9483,9.9444,9.9337,9.9337,9.9667,9.9857,9.9584,9.953,9.9492,9.9343,9.9343,9.9941,10.1436,10.1437,10.2632,10.5994,10.611,10.6633,10.8203,10.8278,10.8278,10.8278,10.8278,10.8278,10.8278,10.8278,10.753,10.5997,10.4277,10.2595,10.095,9.9305,9.8557,7.0562,7.0694,7.1076,6.9917,7.0179,7.0403,6.9282,6.8722,6.8436,6.8436,6.8436,0.0,0.0,0.0,6.9244,6.9917,0.0,7.3266,7.2627,7.6561,8.0287,8.2366,8.3889,8.562,8.7752,9.2724,9.5678,9.5379,9.7959,9.9267,9.8594,9.8557,9.8557,9.8557,9.8557,9.8557,9.8557,9.8557,9.8557,9.8557,10.0165,10.0277,9.923,10.0352,10.0277,9.9155,9.8744,9.8557,9.8557,9.8557,9.8557,9.8557,9.8557,9.8557,9.8557,9.8782,9.8856,9.8894,9.9081,9.9156,9.9223,9.9348,9.9402,9.9517,9.9707,9.9745,9.9754,9.9811,9.9812,9.9812,9.9888,9.9859,9.981,9.981,9.9789,9.9754,9.9811,9.9765,9.9771,9.9792,9.9789,9.9745,9.9745,9.9844,9.9882,9.983,9.9622,9.9492,9.9455,9.9359,9.9496,9.9924,10.0918,10.2391,10.4579,10.5848,10.7231,10.8881,10.8689,10.854,10.854,10.854,10.8465,10.8278,10.8465,10.8241,10.7642,10.4801,10.3193,10.267,9.9866,9.8557,6.9655,6.9693,7.0087,6.8975,6.9364,6.9743,6.8627,6.81,6.7891,6.7891,0.0,0.0,0.0,0.0,0.0,0.0,7.3576,7.571,7.517,7.9984,8.3941,8.4829,8.7238,8.8735,8.8649,9.336,9.6613,9.7061,9.8183,9.8781,9.8557,9.8557,9.8557,9.8557,9.8557,9.8557,9.8557,9.8557,9.8557,9.8557,10.0875,10.1099,9.9566,10.1212,10.1062,9.9492,9.8819,9.8557,9.8557,9.8557,9.8557,9.8557,9.8557,9.8669,9.8894,9.8931,9.9033,9.9134,9.9284,9.9322,9.9331,9.9499,9.9584,9.9736,9.9888,9.9926,9.9926,9.9926,9.9926,9.9926,9.9926,9.9926,9.9926,9.9926,9.9926,9.9926,9.9926,9.9926,9.9926,9.9926,9.9926,9.9926,9.9926,9.9926,9.9926,9.9926,9.9765,9.9687,9.9687,9.9629,9.9572,9.9572,10.0297,10.1472,10.3156,10.4095,10.5613,10.8047,10.7971,10.8159,10.8874,10.8893,10.8856,10.8686,10.8669,10.8577,10.8428,10.5063,10.3532,10.3683,10.0278,9.8707,6.9788,6.8901,6.8817,6.8373,6.8205,6.8145,6.8216,0.0,6.8308,6.8858,0.0,6.937,7.0755,0.0,0.0,7.1194,7.5054,7.7965,7.7842,8.2647,8.5942,8.5573,8.9744,9.1726,8.9329,9.1868,9.5006,9.8295,9.7136,9.6949,9.8445,9.8557,9.8557,9.8557,9.8557,9.8557,9.8557,9.8707,9.8707,9.8594,10.2034,10.2707,10.095,10.2857,10.2782,10.1099,9.9492,9.8819,9.8781,9.8632,9.8557,9.8595,9.863,9.8931,9.9305,9.9073,9.9143,9.9353,9.939,9.939,9.9417,9.9531,9.9736,9.9926,9.9926,9.9926,9.9926,9.9926,9.9926,9.9926,9.9926,9.9926,9.9926,9.9926,9.9926,9.9926,9.9926,9.9926,9.9926,9.9926,9.9926,9.9926,9.9926,9.9926,9.9926,9.9926,9.9926,9.9926,9.9926,9.9926,9.9926,9.9926,9.9695,10.0267,10.1962,10.1886,10.3119,10.6317,10.669,10.7492,10.8951,10.9189,10.9264,10.9265,10.8923,10.8768,10.8731,10.5212,10.3759,10.4131,10.0612,9.8968,6.9019,6.8404,6.8335,6.8238,6.7927,6.8546,0.0,0.0,0.0,7.7358,7.8155,7.8228,7.8518,7.892,7.9621,8.0986,8.3634,8.5315,8.4591,8.9446,9.2123,8.9506,9.1682,9.3029,9.1912,9.3471,9.5687,9.837,9.822,9.8183,9.852,9.8557,9.8557,9.8557,9.8557,9.8557,9.8557,9.9791,9.9791,9.8594,10.3231,10.3829,10.0987,10.4053,10.4539,10.2819,10.1174,10.0464,10.0352,9.908,9.8669,9.8893,9.9105,9.923,9.9338,9.9394,9.9436,9.9531,9.9721,9.9796,9.98,9.9849,9.9888,9.9926,9.9926,9.9926,9.9926,9.9926,9.9926,9.9926,9.9926,9.9926,9.9926,9.9926,9.9926,9.9926,9.9926,9.9926,9.9926,9.9926,9.9926,9.9926,9.9926,9.9926,9.9926,9.9926,9.9926,9.9926,9.9926,9.9926,9.9926,9.9926,9.9868,10.051,10.2217,10.2326,10.3175,10.5187,10.6603,10.7395,10.7507,10.8812,10.9452,10.9265,10.9374,10.9329,10.9142,10.5698,10.4085,10.4107,10.0798,9.9249,6.8711,6.8032,6.7745,6.7406,6.7824,0.0,0.0,7.2328,7.4147,7.7309,7.8602,7.9608,8.1128,8.168,8.2325,8.3973,8.6597,8.8804,8.998,9.1948,9.3142,9.271,9.4084,9.5342,9.6065,9.7943,9.966,10.0912,10.0987,10.0987,10.0987,10.0987,10.0987,10.0987,10.0987,10.0987,10.0987,10.1772,10.1772,10.1025,10.4352,10.4614,10.2258,10.4764,10.5025,10.338,10.252,10.2221,10.2223,10.0576,9.963,9.9243,9.9318,9.9432,9.9617,9.956,9.9584,9.9736,9.9888,9.9926,9.9926,9.9926,9.9926,9.9926,9.9926,9.9926,9.9926,9.9926,9.9926,9.9926,9.9926,9.9926,9.9926,9.9926,9.9926,9.9926,9.9926,9.9926,9.9926,9.9926,9.9926,9.9926,9.9926,9.9926,9.9926,9.9926,9.9926,9.9926,9.9926,9.9926,9.9926,9.9926,9.9926,10.0267,10.1102,10.1178,10.19,10.357,10.4503,10.5652,10.724,10.8131,10.8889,10.9616,10.9641,10.9554,10.9442,10.616,10.4135,10.3244,10.0647,9.9423,6.8293,6.7595,6.7192,6.705,6.7905,0.0,7.05,7.285,7.549,7.8309,7.9879,8.1484,8.4053,8.4516,8.4909,8.6158,8.8477,9.0902,9.315,9.2615,9.2691,9.4647,9.6049,9.7584,9.9335,10.1623,10.3058,10.3378,10.3418,10.3418,10.3418,10.3418,10.3418,10.3418,10.3418,10.3418,10.3418,10.3754,10.3754,10.3455,10.5437,10.5511,10.3978,10.5623,10.5698,10.439,10.3754,10.3642,10.3721,10.1736,10.0561,10.0038,9.9637,9.965,9.9888,9.9698,9.9736,9.9926,9.9926,9.9926,9.9926,9.9926,9.9926,9.9926,9.9926,9.9926,9.9926,9.9926,9.9926,9.9926,9.9926,9.9926,9.9926,9.9926,9.9926,9.9926,9.9926,9.9926,9.9926,9.9926,9.9926,9.9926,9.9926,9.9926,9.9926,9.9926,9.9926,9.9926,9.9926,9.9926,9.9926,9.9926,9.9926,9.9926,9.9926,9.9926,10.0495,10.1862,10.2279,10.3646,10.638,10.7139,10.8126,10.9493,10.9638,10.9555,10.9217,10.6674,10.4405,10.2393,10.0486,9.9592,6.6999,6.6614,6.6932,6.8362,6.8429,0.0,7.8737,8.0913,8.3232,9.0367,9.1973,9.2187,9.2544,9.2615,9.2651,9.2829,9.315,9.3043,9.2008,9.2865,9.3721,9.4012,9.6624,9.8577,9.8794,10.0345,10.1885,10.33,10.3418,10.3418,10.3418,10.3418,10.3418,10.3418,10.3418,10.3418,10.3418,10.4913,10.4913,10.3455,10.6521,10.7194,10.5698,10.7306,10.8016,10.7904,10.5025,10.3904,10.387,10.0828,10.0548,10.1976,10.0455,9.9885,9.9926,9.9888,9.9888,9.9926,9.9926,9.9926,9.9926,9.9926,9.9926,9.9926,9.9926,9.9926,9.9926,9.9926,9.9926,9.9926,9.9926,9.9926,9.9926,9.9926,9.9926,9.9926,9.9926,9.9926,9.9926,9.9926,9.9926,9.9926,9.9926,9.9926,9.9926,9.9926,9.9926,9.9926,9.9926,9.9926,9.9926,9.9926,9.9926,9.9926,9.9926,9.9926,10.0001,10.0191,10.1596,10.2621,10.3001,10.5886,10.7595,10.7784,10.9218,10.9244,10.7726,10.7364,10.5582,10.2393,10.0676,9.9868,6.6614,6.692,6.7559,6.8276,0.0,0.0,7.838,8.1627,8.4766,8.8976,9.0546,9.1188,9.1188,9.1188,9.1188,9.1188,9.2722,9.3685,9.3043,9.4327,9.5683,9.6611,9.9514,10.1853,10.2841,10.4377,10.5546,10.6181,10.6259,10.6259,10.6259,10.6259,10.6259,10.6259,10.6259,10.6259,10.6259,10.6932,10.6932,10.6259,10.7642,10.7904,10.7306,10.8129,10.8054,10.7231,10.6021,10.508,10.4173,10.0986,10.0167,10.0913,10.0191,9.9926,9.9926,9.9926,9.9926,9.9926,9.9926,9.9926,9.9926,9.9926,9.9926,9.9926,9.9926,9.9926,9.9926,9.9926,9.9926,9.9926,9.9926,9.9926,9.9926,9.9926,9.9926,9.9926,9.9926,9.9926,9.9926,9.9926,9.9926,9.9926,9.9926,9.9926,9.9926,9.9926,9.9926,9.9926,9.9926,9.9926,9.9926,9.9926,9.9926,9.9926,9.9926,9.9926,9.9926,9.9926,10.0571,10.1406,10.2393,10.4747,10.6494,10.7481,10.9151,10.9683,10.8961,10.6987,10.4785,10.2393,10.0723,9.9926,6.6282,0.0,0.0,0.0,0.0,0.0,7.9914,8.2733,8.5373,8.8227,8.9404,9.0011,9.0439,9.051,9.0225,8.9368,9.1117,9.2758,9.3221,9.4648,9.6468,9.8501,10.11,10.3609,10.57,10.6978,10.7817,10.8241,10.8278,10.8278,10.8278,10.8278,10.8278,10.8278,10.8278,10.8278,10.8278,10.8278,10.8278,10.8278,10.8278,10.8315,10.8353,10.8129,10.7507,10.6508,10.5749,10.4619,10.3115,10.0837,9.9926,9.9926,9.9926,9.9926,9.9926,9.9926,9.9926,9.9926,9.9926,9.9926,9.9926,9.9926,9.9926,9.9926,9.9926,9.9926,9.9926,9.9926,9.9926,9.9926,9.9926,9.9926,9.9926,9.9926,9.9926,9.9926,9.9926,9.9926,9.9926,9.9926,9.9926,9.9926,9.9926,9.9926,9.9926,9.9926,9.9926,9.9926,9.9926,9.9926,9.9926,9.9926,9.9926,9.9926,9.9926,9.9926,9.9926,9.9926,9.9926,10.0457,10.1672,10.338,10.5051,10.6759,10.8468,10.9303,10.9303,10.5924,10.338,10.171,10.0495,9.9926,0.0,0.0,0.0,7.3849,7.5134,7.7631,8.68,8.6621,8.6265,9.2437,9.2544,9.1973,9.3507,9.3757,9.2758,8.9725,8.9297,8.9904,9.1438,9.3007,9.5148,9.8359,10.0186,10.2431,10.5637,10.6007,10.6652,10.8156,10.8278,10.8278,10.8278,10.8278,10.8278,10.8278,10.8278,10.8278,10.8278,10.8278,10.8278,10.8278,10.8278,10.839,10.8577,10.7078,10.6612,10.691,10.3607,10.1368,10.0039,9.9963,9.9926,9.9926,9.9926,9.9926,9.9926,9.9926,9.9926,9.9926,9.9926,9.9926,9.9926,9.9926,9.9926,9.9926,9.9926,9.9926,9.9926,9.9926,9.9926,9.9926,9.9926,9.9926,9.9926,9.9926,9.9926,9.9926,9.9926,9.9926,9.9926,9.9926,9.9926,9.9926,9.9926,9.9926,9.9926,9.9926,9.9926,9.9926,9.9926,9.9926,9.9926,9.9926,9.9926,9.9926,9.9926,9.9926,9.9926,9.9926,9.9926,9.9926,10.0001,10.1634,10.3304,10.5013,10.6683,10.7557,10.7557,10.4178,10.1634,10.0001,9.9926,9.9926,6.7017,6.9211,7.1887,7.4563,7.8345,8.2519,8.6728,8.8477,8.9832,9.1937,9.1937,9.1438,9.0867,9.2508,9.3543,9.2508,9.233,9.2508,9.3043,9.4541,9.5933,9.7039,9.9004,10.0703,10.186,10.391,10.5386,10.5908,10.7435,10.8278,10.8278,10.8278,10.8278,10.8278,10.8278,10.8278,10.8278,10.8278,10.8353,10.8502,10.8502,10.8129,10.7422,10.818,10.6762,10.376,10.3912,10.2431,9.9926,9.9926,9.9926,9.9926,9.9926,9.9926,9.9926,9.9926,9.9926,9.9926,9.9926,9.9926,9.9926,9.9926,9.9926,9.9926,9.9926,9.9926,9.9926,9.9926,9.9926,9.9926,9.9926,9.9926,9.9926,9.9926,9.9926,9.9926,9.9926,9.9926,9.9926,9.9926,9.9926,9.9926,9.9926,9.9926,9.9926,9.9926,9.9926,9.9926,9.9926,9.9926,9.9926,9.9926,9.9926,9.9926,9.9926,9.9926,9.9926,9.9926,9.9926,9.9926,9.9926,10.1558,10.2697,10.3266,10.4937,10.4178,10.0913,9.9774,9.8331,9.6698,9.6698,9.7306,6.7588,7.0817,7.4349,7.706,8.1591,8.6086,8.8798,9.0082,9.1045,9.2187,9.1973,9.1438,9.0974,9.2544,9.3899,9.3899,9.3899,9.3899,9.3899,9.4827,9.5719,9.629,9.7712,9.9043,9.9791,10.2044,10.3579,10.3834,10.5513,10.6783,10.7381,10.7418,10.768,10.8241,10.8278,10.8278,10.8278,10.8353,10.8465,10.8694,10.8781,10.8487,10.7759,10.844,10.6645,10.3153,10.3798,10.2469,9.9926,9.9926,9.9926,9.9926,9.9926,9.9926,9.9926,9.9926,9.9926,9.9926,9.9926,9.9926,9.9926,9.9926,9.9926,9.9926,9.9926,9.9926,9.9926,9.9926,9.9926,9.9926,9.9926,9.9926,9.9926,9.9926,9.9926,9.9926,9.9926,9.9926,9.9926,9.9926,9.9926,9.9926,9.9926,9.9926,9.9926,9.9926,9.9926,9.9926,9.9926,9.9926,9.9926,9.9926,9.9926,9.9926,9.9926,9.9926,9.9926,9.9926,9.9926,9.9926,9.9926,10.0951,10.152,10.152,10.2583,10.0723,9.5787,9.6357,9.5825,9.4193,9.537,9.6205,6.7695,7.1709,7.6454,8.1092,8.4659,8.8191,9.2758,9.1545,9.0296,9.3293,9.2722,9.2151,9.3614,9.3899,9.3899,9.3899,9.3899,9.3899,9.3899,9.3899,9.4506,9.6076,9.6254,9.717,9.9465,10.046,10.1267,10.2042,10.2941,10.4128,10.5736,10.581,10.6521,10.8091,10.8166,10.8203,10.8278,10.8502,10.8697,10.8742,10.9069,10.9368,10.9455,10.786,10.6342,10.4861,10.3191,10.1482,9.9926,9.9926,9.9926,9.9926,9.9926,9.9926,9.9926,9.9926,9.9926,9.9926,9.9926,9.9926,9.9926,9.9926,9.9926,9.9926,9.9926,9.9926,9.9926,9.9926,9.9926,9.9926,9.9926,9.9926,9.9926,9.9926,9.9926,9.9926,9.9926,9.9926,9.9926,9.9926,9.9926,9.9926,9.9926,9.9926,9.9926,9.9926,9.9926,9.9926,9.9926,9.9926,9.9926,9.9926,9.9926,9.9926,9.9926,9.9926,9.9926,9.9926,9.9926,9.9926,9.9926,9.9926,9.9888,9.9812,9.9622,9.7154,9.2408,9.4003,9.3965,9.2484,9.5711,9.6357,6.914,7.335,7.7809,8.1341,8.5444,8.9261,9.1652,9.2437,9.2936,9.3757,9.3578,9.3435,9.3828,9.3899,9.3899,9.3899,9.3899,9.3899,9.3899,9.3899,9.4042,9.447,9.4541,9.4983,9.6176,9.8159,9.9611,10.03,10.2269,10.3604,10.4053,10.4053,10.4801,10.6483,10.6521,10.7082,10.8241,10.8502,10.8895,10.9389,10.9487,10.9025,10.8012,10.7595,10.6494,10.4861,10.3191,10.1482,9.9926,9.9926,9.9926,9.9926,9.9926,9.9926,9.9926,9.9926,9.9926,9.9926,9.9926,9.9926,9.9926,9.9926,9.9926,9.9926,9.9926,9.9926,9.9926,9.9926,9.9926,9.9926,9.9926,9.9926,9.9926,9.9926,9.9926,9.9926,9.9926,9.9926,9.9926,9.9926,9.9926,9.9926,9.9926,9.9926,9.9926,9.9926,9.9926,9.9926,9.9926,9.9926,9.9926,9.9926,9.9926,9.9926,9.9926,9.9926,9.9926,9.9926,9.9926,9.9926,9.9926,9.9926,9.9356,9.8217,9.5711,9.3168,9.0624,9.108,9.108,9.0662,9.1497,9.237,6.8962,7.3921,7.9343,8.2483,8.6764,9.0688,9.2258,9.3293,9.3899,9.3899,9.3899,9.3899,9.3899,9.3899,9.3899,9.3899,9.3899,9.3899,9.3899,9.3899,9.3899,9.3899,9.3899,9.4195,9.4982,9.6662,9.7918,9.8621,10.0331,10.1585,10.2258,10.2333,10.3081,10.4764,10.5549,10.6371,10.7231,10.8166,10.8926,10.9455,10.9673,10.9379,10.8582,10.7822,10.657,10.4823,10.2393,10.0799,9.9926,9.9926,9.9926,9.9926,9.9926,9.9926,9.9926,9.9926,9.9926,9.9926,9.9926,9.9926,9.9926,9.9926,9.9926,9.9926,9.9926,9.9926,9.9926,9.9926,9.9926,9.9926,9.9926,9.9926,9.9926,9.9926,9.9926,9.9926,9.9926,9.9926,9.9888,9.9774,9.9726,9.9748,9.9748,9.9834,9.9926,9.9926,9.9926,9.9926,9.9926,9.9926,9.9926,9.9926,9.9926,9.9926,9.9926,9.9926,9.9926,9.9926,9.9926,9.9926,9.9926,9.9242,9.8141,9.6509,9.3851,9.1687,9.0016,9.0016,9.0016,9.0016,9.0776,9.1231,6.866,7.368,7.9647,8.3369,8.7763,9.1687,9.3257,9.3757,9.3899,9.3899,9.3899,9.3899,9.3899,9.3899,9.3899,9.3899,9.3899,9.3899,9.3899,9.3899,9.3899,9.3899,9.3938,9.4374,9.5112,9.594,9.6699,9.7502,9.8172,9.9118,10.0501,10.0576,10.1361,10.3044,10.4502,10.5399,10.5661,10.7456,10.8578,10.8965,10.9689,11.0024,10.9948,10.8278,10.657,10.4785,10.1634,10.0115,9.9926,9.9926,9.9926,9.9926,9.9926,9.9926,9.9926,9.9926,9.9926,9.9926,9.9926,9.9926,9.9926,9.9926,9.9926,9.9926,9.9926,9.9926,9.9926,9.9926,9.9926,9.9926,9.9926,9.9926,9.9925,9.992,9.9882,9.9844,9.9844,9.9844,9.9768,9.954,9.952,9.9492,9.9492,9.9696,9.9844,9.9844,9.9844,9.9838,9.9864,9.9859,9.9872,9.9925,9.9926,9.9926,9.9926,9.9926,9.9926,9.9926,9.9914,9.9826,9.9598,9.8291,9.6698,9.4762,9.3054,9.1459,9.0016,9.0016,9.0016,9.0054,9.1497,9.1383,7.1765,7.2757,7.4384,8.0969,8.6158,9.0046,9.1616,9.2972,9.3899,9.3899,9.3899,9.3899,9.3899,9.3899,9.3899,9.3899,9.3899,9.3899,9.3899,9.3899,9.3899,9.3899,9.4479,9.5177,9.594,9.6752,9.7502,9.829,9.8481,9.8669,9.8931,9.8968,9.9679,10.1286,10.1623,10.2558,10.4125,10.6075,10.7226,10.7506,10.9188,11.0024,10.9948,10.8278,10.657,10.4861,10.2887,10.1216,9.9926,9.9926,9.9926,9.9926,9.9926,9.9926,9.9926,9.9926,9.9926,9.9926,9.9926,9.9926,9.9926,9.9926,9.9926,9.9926,9.9926,9.9926,9.9926,9.9926,9.9926,9.9926,9.9926,9.9926,9.9917,9.9929,9.9667,9.9439,9.9439,9.9439,9.9402,9.9364,9.939,9.938,9.938,9.9384,9.9439,9.9439,9.9439,9.945,9.9585,9.9599,9.9657,9.9882,9.9926,9.9926,9.9926,9.9926,9.9926,9.9926,9.9904,9.9329,9.8017,9.7735,9.6129,9.3016,9.1307,9.0282,9.0016,9.0016,9.0016,9.0016,9.0282,9.0282,7.0798,7.186,7.3715,7.8601,8.4516,8.9618,9.1224,9.2793,9.3685,9.2865,9.3328,9.3899,9.3899,9.3899,9.3899,9.3899,9.3899,9.3899,9.3899,9.3899,9.3899,9.3899,9.4582,9.5332,9.6114,9.6906,9.772,9.8481,9.8557,9.8557,9.8557,9.8557,9.8893,9.9641,10.0613,10.1548,10.2483,10.4564,10.5653,10.581,10.7784,10.8696,10.8696,10.786,10.7063,10.6152,10.357,10.1976,10.114,10.0267,9.9926,9.9926,9.9926,9.9926,9.9926,9.9926,9.9926,9.9926,9.9926,9.9926,9.9888,9.9774,9.9736,9.9696,9.9629,9.9593,9.9637,9.9696,9.9715,9.9734,9.9701,9.9735,9.9715,9.9621,9.9459,9.9305,9.9305,9.9305,9.9268,9.9155,9.9142,9.9156,9.9156,9.9133,9.9155,9.9305,9.9305,9.9336,9.9417,9.9423,9.9468,9.9599,9.9593,9.9593,9.9593,9.9593,9.9252,9.8342,9.8411,9.7734,9.6116,9.5062,9.3344,9.0841,8.9998,8.9581,8.9581,8.9716,8.9808,8.9808,8.9942,9.0016,7.0326,7.2092,7.4553,7.7515,8.2792,8.7799,9.0082,9.2044,9.315,9.2258,9.3043,9.3899,9.3899,9.3899,9.3899,9.3899,9.3899,9.3899,9.3899,9.3899,9.3899,9.3899,9.4719,9.5519,9.6171,9.7093,9.7888,9.852,9.8557,9.8557,9.8557,9.8557,9.8557,9.8557,9.9978,10.0802,10.0833,10.2973,10.4064,10.414,10.6038,10.6949,10.6949,10.6949,10.6759,10.6228,10.3229,10.171,10.133,10.0305,9.9926,9.9926,9.9926,9.9926,9.9926,9.9926,9.9926,9.9926,9.9926,9.9888,9.9812,9.9584,9.9493,9.9479,9.9393,9.9317,9.9334,9.9448,9.949,9.9493,9.9461,9.9485,9.9413,9.9195,9.9179,9.9156,9.9156,9.9156,9.9118,9.8931,9.8894,9.8894,9.8894,9.8894,9.8931,9.9156,9.9156,9.9193,9.9231,9.9268,9.928,9.9317,9.9317,9.9317,9.9317,9.8978,9.8223,9.6879,9.6618,9.5822,9.4097,9.2196,9.0581,8.9259,8.9221,8.9221,8.9221,8.9449,8.9531,8.9532,8.9735,8.9809,7.4169,7.4588,7.5372,7.9514,8.0625,8.1912,8.6336,8.9654,9.2151,9.3435,9.3792,9.3899,9.3899,9.3899,9.3899,9.3899,9.3899,9.3899,9.3899,9.3899,9.3899,9.3899,9.5177,9.6114,9.6227,9.7548,9.8481,9.8557,9.8557,9.8557,9.8557,9.8557,9.8557,9.8557,9.8931,9.9279,9.9503,10.1352,10.2393,10.2659,10.4368,10.5203,10.5203,10.5203,10.4368,10.2773,10.0951,9.9318,9.8141,9.9394,9.9926,9.9926,9.9926,9.9926,9.9926,9.9926,9.9926,9.9926,9.9926,9.9774,9.9546,9.9508,9.9439,9.937,9.934,9.9304,9.9341,9.938,9.9351,9.9373,9.9337,9.9334,9.9231,9.8743,9.8632,9.8632,9.8632,9.8632,9.8594,9.8594,9.8594,9.8594,9.8594,9.8594,9.8594,9.8594,9.8632,9.8707,9.8969,9.9005,9.9042,9.9304,9.9304,9.9304,9.9304,9.7883,9.6984,9.6834,9.541,9.3782,9.2078,9.0371,8.9376,8.9194,8.9194,8.9194,8.9194,8.924,8.9244,8.9281,8.9291,8.9285,7.086,7.2284,7.3995,7.6026,7.7756,8.0111,8.4507,8.5729,8.6907,9.0367,9.1081,9.1081,9.1081,9.2615,9.3293,9.1402,9.2686,9.3899,9.3899,9.4303,9.4582,9.4582,9.5999,9.6906,9.6906,9.7888,9.8557,9.8557,9.8557,9.8557,9.8557,9.8557,9.8632,9.8819,9.9044,9.9287,9.9447,10.0337,10.0799,10.0951,10.2621,10.2925,10.1938,10.3001,10.2507,10.0951,10.1292,9.9963,9.7534,9.7154,9.6964,9.7078,9.8103,9.8521,9.8635,9.9546,9.9812,9.9698,9.9698,9.9555,9.9373,9.9222,9.9126,9.9081,9.8931,9.8894,9.8931,9.9081,9.9108,9.9103,9.9103,9.907,9.9006,9.8632,9.8557,9.8557,9.8557,9.8557,9.8557,9.8557,9.8557,9.8557,9.8557,9.8557,9.8557,9.8557,9.8557,9.8594,9.8669,9.8707,9.8782,9.8856,9.7959,9.7323,9.7323,9.579,9.4408,9.3436,9.2872,9.1731,8.993,8.9221,8.887,8.887,8.887,8.887,8.887,8.9019,8.9108,8.9103,8.9178,8.9216,6.9236,7.087,7.2868,7.3689,7.5696,7.8431,8.2292,8.234,8.2875,8.7585,8.8512,8.8512,8.8512,9.0688,9.1867,8.9861,9.2188,9.4303,9.4548,9.5047,9.5395,9.5395,9.6557,9.7372,9.7372,9.8052,9.8557,9.8557,9.8557,9.8557,9.8557,9.8557,9.8669,9.8969,9.9183,9.9385,9.9508,9.9774,9.9926,9.9926,10.1102,10.1064,9.9926,10.0685,10.0077,9.8521,9.9204,9.8217,9.5977,9.48,9.461,9.518,9.6357,9.6812,9.6964,9.7989,9.8255,9.8064,9.799,9.8179,9.8415,9.8249,9.8482,9.8819,9.8594,9.8557,9.8594,9.8782,9.8856,9.8856,9.8856,9.8071,9.7286,9.7099,9.7061,9.7061,9.7061,9.7061,9.7061,9.7061,9.7061,9.7061,9.7061,9.7061,9.7061,9.7061,9.7061,9.7061,9.7061,9.7061,9.7061,9.7061,9.5977,9.5267,9.5267,9.3771,9.235,9.1266,9.078,8.9958,8.8686,8.8612,8.8612,8.8612,8.8612,8.8612,8.8612,8.8832,8.8907,8.8907,8.9019,8.9057,7.1338,7.1685,7.2501,7.4071,7.4864,7.6097,7.9236,7.995,8.127,8.5944,8.6942,8.6942,8.6942,8.8227,8.9539,9.0251,9.2983,9.5332,9.6056,9.6171,9.6171,9.6171,9.6906,9.7372,9.7372,9.8052,9.8557,9.8557,9.8557,9.8557,9.8557,9.8557,9.8669,9.8969,9.9195,9.9398,9.9508,9.9774,9.9926,9.9926,9.9926,9.9926,9.985,9.8331,9.6698,9.5028,9.3357,9.2598,9.256,9.256,9.3547,9.5066,9.5066,9.5066,9.5066,9.48,9.4686,9.4672,9.4413,9.5228,9.6462,9.6425,9.7398,9.8557,9.8557,9.8557,9.8557,9.8557,9.8557,9.8557,9.8557,9.6052,9.3547,9.3547,9.3547,9.3547,9.3547,9.3547,9.3547,9.3547,9.3547,9.3547,9.3547,9.3547,9.3547,9.3547,9.3547,9.3547,9.3547,9.3547,9.3547,9.3547,9.3547,9.3509,9.3509,9.2089,9.1191,9.1191,8.9584,8.8649,8.8612,8.8612,8.8612,8.8612,8.8612,8.8612,8.8612,8.8612,8.8612,8.8612,8.8612,8.8612,6.9768,7.0616,7.1891,7.3097,7.3271,7.4212,7.8629,8.0945,8.2244,8.2676,8.4088,8.5109,8.4465,8.8663,9.1683,8.976,9.3068,9.594,9.6171,9.6699,9.7044,9.7044,9.772,9.8172,9.8172,9.8406,9.8557,9.8557,9.8557,9.8557,9.8557,9.8707,9.8969,9.9193,9.9353,9.9565,9.9812,9.9888,9.9926,9.9926,9.9926,9.9356,9.8293,9.7799,9.6015,9.332,9.275,9.1877,9.0814,9.0814,9.1117,9.1687,9.2674,9.3054,9.3167,9.4065,9.4285,9.4131,9.405,9.4181,9.4407,9.4407,9.4706,9.508,9.508,9.508,9.508,9.508,9.508,9.508,9.508,9.4295,9.3509,9.3509,9.3509,9.3509,9.3509,9.3509,9.3509,9.3509,9.3509,9.3509,9.3509,9.3509,9.3509,9.3509,9.3509,9.3509,9.3509,9.3509,9.3509,9.3509,9.2537,9.1902,9.1902,9.0406,8.9434,8.9434,8.8911,8.8612,8.8612,8.8612,8.8612,8.8612,8.8612,8.8612,8.8612,8.8612,8.8612,8.8612,8.8612,8.8612,6.8993,6.9994,7.1195,7.1865,7.1323,7.2052,7.7617,7.9207,7.984,8.0672,8.1871,8.267,8.2369,8.6382,8.9213,8.755,9.0779,9.4133,9.5886,9.6574,9.7138,9.7771,9.825,9.8557,9.8557,9.8557,9.8557,9.8557,9.8557,9.8594,9.8669,9.8856,9.91,9.9407,9.9477,9.966,9.9926,9.9926,9.9926,9.9926,9.9926,9.9394,9.8407,9.7192,9.5484,9.3395,9.2105,9.0928,8.9826,8.9839,8.9779,8.9779,9.0689,9.1022,9.1136,9.1999,9.2186,9.2046,9.1937,9.2236,9.265,9.265,9.3023,9.3509,9.3509,9.3509,9.3509,9.3509,9.3509,9.321,9.1977,9.164,9.164,9.164,9.164,9.164,9.164,9.164,9.164,9.164,9.164,9.164,9.164,9.164,9.164,9.164,9.164,9.164,9.164,9.164,9.164,9.164,9.078,9.0219,9.0219,8.9247,8.8612,8.8612,8.8612,8.8612,8.8612,8.8612,8.8612,8.8612,8.8612,8.8612,8.8612,8.8612,8.8612,8.8612,8.8612,8.8612,6.8993,6.9699,7.0492,7.0566,6.9713,7.0422,7.6429,7.5948,7.5453,7.9912,8.0265,8.0001,8.0692,8.2071,8.3507,8.4639,8.7198,9.0556,9.508,9.5566,9.6127,9.7809,9.8034,9.8108,9.8333,9.837,9.8407,9.8557,9.8557,9.8669,9.8931,9.8967,9.9157,9.9507,9.9546,9.966,9.9926,9.9926,9.9926,9.9926,9.9812,9.9736,9.966,9.6471,9.5028,9.4838,9.1686,9.0166,8.9935,8.9949,8.981,8.9583,8.9469,8.941,8.9356,8.9094,8.9019,8.8982,8.8686,8.9658,9.1004,9.1004,9.1977,9.3136,9.3136,9.3136,9.3136,9.3136,9.3136,9.2463,8.9397,8.8612,8.8612,8.8612,8.8612,8.8612,8.8612,8.8612,8.8612,8.8612,8.8612,8.8612,8.8612,8.8612,8.8612,8.8612,8.8612,8.8612,8.8612,8.8612,8.8612,8.8612,8.8612,8.8612,8.8612,8.8612,8.8612,8.8612,8.8612,8.8612,8.8612,8.8612,8.8612,8.8612,8.8577,8.8577,8.8577,8.8577,8.8577,8.8577,8.8612,8.8612,6.8993,6.9163,6.9667,7.0861,7.2831,7.5182,7.7876,7.8655,7.9066,8.0172,7.9472,7.9079,8.0226,8.1369,8.3778,8.8767,8.9107,8.9556,9.1978,9.1191,9.0967,9.2687,9.2911,9.3883,9.6388,9.6613,9.7136,9.8445,9.8782,9.8894,9.8969,9.9224,9.943,9.9508,9.9736,9.985,9.9926,9.9926,9.9926,9.9888,9.8711,9.8141,9.8065,9.5787,9.4762,9.4686,9.3733,9.3229,9.3199,9.3199,9.314,9.2952,9.1683,9.1024,9.0668,8.9247,8.8724,8.8686,8.8649,8.8873,8.921,8.921,8.9471,8.9771,8.9771,8.9771,8.9771,8.9771,8.9771,8.9584,8.8836,8.8612,8.8612,8.8612,8.8612,8.8612,8.8612,8.8612,8.8612,8.8612,8.8612,8.8612,8.8612,8.8612,8.8612,8.8612,8.8612,8.8612,8.8612,8.8612,8.8612,8.8612,8.8612,8.8612,8.8612,8.8612,8.8612,8.8612,8.8612,8.8612,8.8612,8.8612,8.8612,8.8612,8.8138,8.7904,8.7904,8.7904,8.7904,8.7904,8.8435,8.8612,6.8993,6.9543,7.0141,7.0254,7.2198,7.4479,7.6124,7.7306,7.8245,7.9061,7.8394,7.8244,7.9981,7.9914,8.1043,8.5419,8.6052,8.6907,8.9624,8.9883,9.0144,9.1042,9.1827,9.265,9.3696,9.4556,9.5416,9.6351,9.665,9.6849,9.6988,9.7171,9.7344,9.7458,9.8369,9.8862,9.8862,9.8862,9.9204,9.9888,9.8331,9.7875,9.8407,9.6623,9.5743,9.5592,9.4709,9.4225,9.4112,9.4096,9.4033,9.3809,9.2913,9.2464,9.2126,9.0444,8.9808,8.9696,8.8911,8.8612,8.8612,8.8612,8.8612,8.8612,8.8612,8.8612,8.8612,8.8612,8.8612,8.8612,8.8612,8.8612,8.8612,8.8612,8.8612,8.8612,8.8612,8.8612,8.8612,8.8612,8.8612,8.8612,8.8612,8.8612,8.8612,8.8612,8.8612,8.8612,8.8612,8.8612,8.8612,8.8612,8.8612,8.8612,8.8612,8.8612,8.8612,8.8612,8.8062,8.7744,8.7744,8.7744,8.7744,8.7744,8.7406,8.7225,8.7225,8.7225,8.7225,8.7225,8.7618,8.7904,6.8993,7.0328,7.1413,7.0104,7.0777,7.2198,7.388,7.4951,7.602,7.7727,7.7525,7.7685,7.9692,7.8673,7.8059,7.973,8.1662,8.4117,8.7419,8.9135,9.0107,9.0369,9.1565,9.2051,9.1266,9.2539,9.3547,9.3877,9.4137,9.4407,9.4646,9.4686,9.4838,9.5066,9.6698,9.7458,9.7192,9.7458,9.8369,9.9888,9.8293,9.8217,9.947,9.7819,9.7085,9.7061,9.5566,9.4782,9.4595,9.4595,9.4482,9.4257,9.3996,9.3883,9.3696,9.2126,9.1528,9.1341,8.9883,8.9359,8.9322,8.9098,8.9023,8.8948,8.8686,8.8612,8.8612,8.8612,8.8612,8.8612,8.8612,8.8612,8.8612,8.8543,8.8577,8.8577,8.8399,8.8435,8.847,8.8361,8.8325,8.8325,8.8325,8.8435,8.847,8.847,8.8577,8.8612,8.8612,8.8612,8.8612,8.8612,8.8612,8.8612,8.847,8.847,8.8435,8.8325,8.7316,8.6656,8.6656,8.6656,8.6656,8.6656,8.6554,8.6502,8.6502,8.6502,8.6502,8.6502,8.6605,8.6952,6.8993,7.1226,7.3432,7.317,7.332,7.3918,7.56,7.6132,7.6669,7.8275,7.8169,7.8024,7.8846,7.9395,7.9619,7.9033,8.1561,8.3835,8.4461,8.476,8.5396,8.6742,8.7116,8.8275,9.093,9.1416,9.2218,9.379,9.4123,9.438,9.4647,9.4876,9.5028,9.5066,9.6698,9.6888,9.5446,9.685,9.8369,9.9888,9.8103,9.8065,9.9469,9.7452,9.7274,9.8594,9.8108,9.7884,9.7809,9.7809,9.7809,9.7622,9.6201,9.5641,9.5454,9.3771,9.3173,9.3098,9.2836,9.2762,9.2537,9.1229,9.078,9.0518,8.906,8.8612,8.8612,8.8612,8.8612,8.8612,8.8612,8.8612,8.847,8.7944,8.8251,8.8325,8.7225,8.7406,8.766,8.7132,8.7,8.7,8.7,8.745,8.7823,8.7823,8.8288,8.8612,8.8612,8.8612,8.8612,8.8612,8.8612,8.8435,8.7864,8.7823,8.7575,8.7,8.6806,8.6656,8.6656,8.6656,8.6656,8.6656,8.6074,8.5699,8.5699,8.5699,8.5699,8.5699,8.6397,8.6793,7.0328,7.2123,7.4096,7.4096,7.4694,7.5451,7.6198,7.7058,7.7844,7.8554,7.851,7.8445,7.8673,7.9107,7.9265,7.8785,8.0012,8.1358,8.2293,8.3938,8.5321,8.6032,8.6929,8.7789,8.854,8.9546,9.0542,9.1506,9.1805,9.203,9.2142,9.2256,9.2294,9.2294,9.3965,9.4914,9.5066,9.5673,9.7268,9.9698,9.7861,9.7742,9.9163,9.8232,9.8108,9.8707,9.8594,9.8557,9.8557,9.8557,9.8557,9.8445,9.7697,9.7361,9.7174,9.5491,9.4855,9.4743,9.3809,9.3509,9.3397,9.2687,9.1864,9.1042,9.0219,9.0035,9.0122,9.0122,8.9493,8.8871,8.8871,8.8204,8.7494,8.7225,8.7362,8.7406,8.6806,8.6904,8.7048,8.6756,8.6656,8.6656,8.6656,8.6941,8.7132,8.7132,8.7406,8.7581,8.7581,8.7581,8.7581,8.7581,8.7581,8.745,8.7179,8.6769,8.6255,8.5597,8.5538,8.5538,8.5538,8.5538,8.5538,8.5538,8.5149,8.4996,8.4996,8.4996,8.4996,8.4996,8.5394,8.5735,7.3421,0.0,7.7838,7.7801,7.8044,7.8239,0.0,7.8472,7.8704,7.8704,7.8704,7.8704,7.8704,7.8704,7.8704,7.8704,7.8704,7.9302,8.1022,8.3377,8.5134,8.5508,8.7079,8.7714,8.6596,8.8171,8.9357,8.9597,8.9789,8.9941,9.0016,9.0358,9.0396,9.0016,9.1649,9.3547,9.5635,9.537,9.669,9.9498,9.7995,9.7875,9.8969,9.8894,9.8782,9.8557,9.8557,9.8557,9.8557,9.8557,9.8557,9.8557,9.8557,9.8557,9.837,9.7099,9.6613,9.6426,9.4893,9.4406,9.4406,9.4406,9.3361,9.1906,9.138,9.1288,9.1352,9.1352,9.0473,8.9574,8.9574,8.8694,8.7631,8.7108,8.7103,8.703,8.631,8.6291,8.6397,8.6237,8.6183,8.6183,8.6183,8.6345,8.645,8.645,8.6554,8.6656,8.6656,8.6656,8.6656,8.6656,8.6656,8.6605,8.645,8.5735,8.5086,8.4583,8.4552,8.4552,8.4552,8.4552,8.4552,8.4552,8.4552,8.4552,8.4552,8.4552,8.4338,8.4017,8.4017,8.4088,0.0,8.4644,8.8355,8.8361,8.5953,8.3607,8.3607,8.1076,0.0,7.8704,7.8704,7.8704,7.8704,7.8704,7.8704,7.8704,7.8704,7.9302,8.1022,8.147,8.2181,8.3751,8.5541,8.6588,8.6513,8.8154,8.9343,8.9585,8.9636,8.9751,8.9979,9.1497,9.1649,9.0054,9.1649,9.4117,9.7382,9.7116,9.7844,9.9523,9.9004,9.8819,9.8969,9.8669,9.8557,9.8557,9.8557,9.8557,9.8557,9.8557,9.8557,9.8557,9.8557,9.8557,9.852,9.8407,9.837,9.8295,9.7423,9.7085,9.7085,9.7085,9.5972,9.4203,9.1979,9.1387,9.1352,9.1352,9.1279,9.1169,9.1169,9.1096,9.0456,8.8298,8.8316,8.8117,8.5292,8.5211,8.5442,8.4876,8.4716,8.4716,8.4716,8.5211,8.5583,8.5583,8.6201,8.6656,8.6656,8.6656,8.6656,8.6656,8.6656,8.6397,8.5641,8.4996,8.4583,8.4516,8.4552,8.4552,8.4552,8.4552,8.4552,8.4552,8.4552,8.4552,8.4552,8.4552,8.3803,8.2412,8.2412,8.1627,8.5371,8.8187,8.9535,8.9516,8.6887,8.4258,8.4175,8.145,7.8921,7.8741,7.8704,7.8704,7.8704,7.8704,7.8704,7.8704,7.8704,7.8928,7.9563,8.1508,8.3078,8.382,8.6466,8.8238,8.8434,8.905,8.9573,8.9826,8.9827,8.9903,9.0016,9.0586,9.1649,9.3092,9.461,9.6053,9.7344,9.6918,9.752,9.9156,9.8856,9.8707,9.8669,9.8594,9.8557,9.8557,9.8557,9.8557,0.0,9.8557,9.8557,9.8557,9.8557,9.8557,9.8557,9.8557,9.825,9.7764,9.7502,9.7093,9.6647,9.6647,9.6205,9.5342,9.3367,9.2875,9.2952,9.2952,9.2231,9.1474,9.1474,9.0753,8.9787,8.8881,8.8936,8.8857,8.7687,8.6893,8.631,8.6047,8.5194,8.4552,8.4552,8.471,8.4933,8.4933,8.5185,8.5333,8.5333,8.5333,8.5333,8.5333,8.5333,8.5211,8.4933,8.468,8.4552,8.4552,8.4552,8.4552,8.4552,8.4552,8.4552,8.4552,8.4552,8.4053,8.3089,8.3089,8.2305,8.0771,8.0771,8.0485,9.0358,9.2216,9.2888,9.2888,9.0223,8.7325,8.6146,8.3195,8.0372,7.9108,7.8808,7.8704,7.8704,7.8704,7.8704,7.8704,7.8704,7.8958,7.9556,8.1651,8.3334,8.4039,8.623,8.7995,8.8798,8.9409,8.9789,8.9979,9.051,9.0814,9.0814,9.1801,9.3471,9.5787,9.6736,9.7443,9.7919,9.7445,9.7782,9.8969,9.8669,9.8557,9.8557,9.8557,9.8557,9.8557,9.8557,9.8557,9.8557,9.8557,9.8557,9.8557,9.8557,9.8557,9.852,9.829,9.7845,9.7324,9.6804,9.6283,9.5882,9.5882,9.5702,9.5337,9.4412,9.3982,9.3899,9.3899,9.315,9.233,9.233,9.1509,9.0581,9.0082,8.9975,8.969,8.8691,8.8048,8.7478,8.7014,8.6051,8.5301,8.5301,8.4873,8.4552,8.4552,8.4552,8.4552,8.4552,8.4552,8.4552,8.4552,8.4552,8.4552,8.4552,8.4209,8.4071,8.4071,8.3719,8.3541,8.3541,8.3082,8.2941,8.3255,8.2828,8.2218,8.1484,8.1484,8.0784,7.942,7.8923,7.8391,9.4193,9.7458,9.9926,9.9926,9.7258,9.3819,9.0387,8.6808,8.3233,7.9811,7.8921,7.8704,7.8704,7.8704,7.8704,7.8704,7.8741,7.9407,8.1375,8.1675,8.2349,8.4189,8.4416,8.5199,8.713,8.8915,9.0016,9.0016,9.1611,9.256,9.256,9.5787,9.761,9.761,9.7344,9.7945,9.953,9.9156,9.8969,9.8969,9.8669,9.8557,9.8557,9.8557,9.8557,9.8557,9.8557,9.8557,9.8557,9.8557,9.8557,9.8557,9.8557,9.852,9.8443,9.7676,9.7372,9.7142,9.5581,9.5047,9.5047,9.5047,9.4512,9.4012,9.4818,9.4548,9.3899,9.3899,9.3899,9.3899,9.3899,9.3899,9.3507,9.1973,9.1616,9.076,8.7656,8.8191,8.8798,8.7264,8.6942,8.6907,8.6907,8.5587,8.4552,8.4552,8.4552,8.4552,8.4552,8.4552,8.4552,8.4552,8.4516,8.4516,8.4516,8.3612,8.3024,8.2989,8.1842,8.1239,8.1204,7.984,7.9486,8.0426,7.9025,7.8846,7.9815,7.9815,7.9283,7.8254,7.6709,7.5097,9.7572,9.9166,9.9926,9.9926,9.7397,9.4017,9.0436,8.6862,8.3322,7.9824,7.8921,7.8704,7.8704,7.8704,7.8704,7.8704,7.9886,8.1001,8.1563,8.3777,8.5596,8.6319,8.7382,8.8371,8.9143,8.9675,9.0472,9.1687,9.3357,9.4307,9.4307,9.742,9.9242,9.9242,9.8891,9.8915,9.938,9.8931,9.8669,9.8669,9.8594,9.8557,9.8557,9.8557,9.8557,9.8557,9.8557,9.8557,9.8557,9.8557,9.8557,9.8481,9.7968,9.772,9.7631,9.6892,9.6227,9.5702,9.5205,9.4683,9.4267,9.4267,9.4085,9.3974,9.4195,9.4049,9.3899,9.3899,9.3899,9.3899,9.3899,9.3899,9.3792,9.3328,9.3221,9.2936,9.2044,9.1331,9.076,9.0296,8.8441,8.6907,8.6907,8.5587,8.4552,8.4552,8.4552,8.4552,8.4552,8.4552,8.4552,8.4552,8.3142,8.2237,8.2237,8.1922,8.1312,8.0318,7.9897,7.9254,7.83,7.7817,7.7731,7.8037,7.7621,7.7042,7.6216,7.6216,7.5481,7.4081,7.363,7.318,9.8887,9.9827,9.9926,9.9926,9.8445,9.57,9.089,8.801,8.5011,8.0181,7.8958,7.8704,7.8704,7.8704,7.8995,7.9743,8.0889,8.2167,8.3671,8.5694,8.7367,8.8269,8.9181,8.9827,8.9979,9.0016,9.0434,9.1421,9.3699,9.5066,9.5066,9.6926,9.7913,9.7837,9.7516,9.7272,9.7173,9.6725,9.6538,9.6538,9.7211,9.7547,9.7547,9.822,9.8557,9.852,9.825,9.809,9.809,9.772,9.7593,9.7548,9.7093,9.6906,9.6804,9.6056,9.5457,9.4982,9.4719,9.4303,9.3899,9.3899,9.3079,9.2044,9.2044,9.2044,9.2044,9.2044,9.2044,9.2044,9.2044,9.2044,9.2222,9.2829,9.2972,9.2972,9.2972,9.2722,9.233,9.1723,9.0082,8.8584,8.7941,8.6514,8.5266,8.4624,8.4245,8.3931,8.3931,8.3576,8.3215,8.3215,8.1003,7.9564,7.9564,7.9123,7.8499,7.7658,7.7127,7.6535,7.5738,7.5128,7.4953,7.5322,7.482,7.4223,7.3709,7.3709,7.3037,7.1693,7.1693,7.1693,9.8669,9.9697,9.9846,9.9876,9.9876,9.8133,9.1535,8.9703,8.7524,8.0743,7.9033,7.8741,7.8741,7.8883,7.9556,8.1338,8.1905,8.3344,8.6782,8.7397,8.8118,8.9789,9.0016,9.0016,9.0016,9.0016,9.013,9.0434,9.3168,9.4762,9.461,9.4876,9.4914,9.4648,9.4408,9.4106,9.3883,9.3659,9.3509,9.3509,9.5042,9.579,9.5865,9.7323,9.8033,9.7957,9.7185,9.6832,9.6832,9.6098,9.5787,9.5787,9.5731,9.5674,9.5617,9.477,9.4482,9.4452,9.3693,9.3471,9.3471,9.3471,9.1545,8.9226,8.9226,8.9226,8.9226,8.9226,8.9226,8.9226,8.9119,8.9048,8.9404,9.0864,9.122,9.122,9.1294,9.2399,9.2894,9.1579,9.1259,9.0616,8.9083,8.7445,8.5806,8.4278,8.3115,8.2418,8.2418,8.154,8.0778,8.0612,7.8257,7.6687,7.6687,7.5719,7.5012,7.4929,7.3992,7.3419,7.3288,7.2137,7.1881,7.2524,7.16,7.1444,7.2276,7.2413,7.188,7.0861,7.0861,7.0861,9.8818,9.9432,9.9487,9.9568,9.9615,9.7925,9.1475,8.9783,8.7657,8.0993,7.9295,7.9033,7.9033,8.0148,8.1151,8.1563,8.4119,8.6342,8.7169,8.8498,8.9561,8.9979,9.0016,9.0016,9.0016,9.0016,9.1117,9.3775,9.3395,9.2484,9.1155,9.3433,9.4724,9.4648,9.421,9.3938,9.3882,9.3622,9.3509,9.3509,9.3883,9.4033,9.407,9.3872,9.3817,9.3774,9.3104,9.2803,9.2803,9.2647,9.2557,9.245,9.1888,9.165,9.1566,9.0776,9.0506,9.0436,9.026,9.0225,9.0225,9.0225,8.9761,8.9226,8.9226,8.9226,8.9226,8.9226,8.9226,8.9048,8.8204,8.8016,8.8122,8.8474,8.8545,8.8698,8.9546,8.9319,8.9122,8.9617,8.8762,8.7552,8.6398,8.3817,8.1592,8.0496,7.9113,7.8231,7.8231,7.8077,7.72,7.5482,7.4769,7.437,7.437,7.4133,7.3546,7.2388,7.212,7.1414,7.023,7.1052,7.1098,7.0019,7.2002,7.2554,7.1744,7.2786,7.2698,7.1341,7.1341,7.1341,9.7696,9.8609,9.9351,9.9379,9.94,9.7948,9.2303,9.081,8.8804,8.2262,8.0654,8.0155,7.9354,8.0597,8.2044,8.2989,8.5478,8.7587,8.846,8.9409,8.9675,8.8878,8.8802,8.846,8.7663,8.7587,8.8308,9.0092,9.089,9.1269,9.1231,9.1991,9.2306,9.2048,9.1772,9.1525,9.1376,9.1229,9.1154,9.1191,9.1977,9.2388,9.2389,9.2484,9.2523,9.2442,9.144,9.0982,9.0982,9.0609,9.0427,9.0366,8.9996,8.9799,8.9769,8.9401,8.9226,8.9226,8.9226,8.9226,8.8976,8.7478,8.6978,8.6873,8.6414,8.6269,8.6087,8.5569,8.5346,8.5304,8.472,8.4559,8.4559,8.4559,8.5197,8.5881,8.6391,8.6715,8.6997,8.7479,8.7039,8.5998,8.4754,8.3177,8.1342,7.9449,7.7992,7.6948,7.6197,7.4464,7.2826,7.1635,7.1545,7.1545,7.1545,7.1545,7.1216,7.046,7.1085,7.1151,7.0361,7.1742,7.217,7.1381,7.2893,7.3321,7.2564,7.3321,7.3288,7.2564,7.2564,7.217,9.6014,9.751,9.8856,9.9193,9.9284,9.8014,9.3171,9.1942,9.0071,8.3919,8.2255,8.1461,7.999,8.1169,8.2668,8.3643,8.5535,8.7283,8.8536,8.8688,8.827,8.7169,8.7017,8.6486,8.5081,8.5233,8.5499,8.5802,8.8156,9.0168,9.1573,9.0606,8.9769,8.9278,8.9226,8.9001,8.8612,8.8612,8.8612,8.8649,9.007,9.0743,9.0745,9.1285,9.1537,9.1409,9.0029,8.9383,8.9321,8.8679,8.8405,8.8405,8.8405,8.8405,8.8405,8.8405,8.8405,8.8405,8.8405,8.8405,8.7907,8.4958,8.3966,8.379,8.2954,8.2651,8.2497,8.1519,8.1273,8.119,8.0989,8.0905,8.0905,8.0905,8.1915,8.2892,8.2892,8.4094,8.5127,8.5127,8.5127,8.4662,8.3133,8.2686,8.1606,7.8972,7.7262,7.5914,7.4758,7.1637,6.9638,6.9638,6.9375,6.9244,6.9244,6.9244,6.9244,6.9244,7.0394,7.1216,7.1479,7.2676,7.3243,7.3243,7.3543,7.3545,7.3317,7.3545,7.3545,7.3317,7.3317,7.2666,9.4482,9.6239,9.6874,9.8595,9.9005,9.7731,9.2877,9.1939,9.0639,8.5467,8.3208,8.2021,8.1594,8.3059,8.3404,8.048,8.2948,8.4815,8.36,8.3448,8.3904,8.5157,8.5271,8.5195,8.4967,8.6258,8.7739,8.9219,8.8384,8.789,8.8118,8.93,8.9877,8.9543,8.9321,8.9044,8.8645,8.8612,8.8612,8.8612,8.8873,8.8948,8.8914,8.7924,8.7467,8.7417,8.5947,8.5324,8.5324,8.5226,8.5159,8.5159,8.5159,8.5159,8.5159,8.5159,8.5159,8.5159,8.5159,8.5159,8.4743,8.2454,8.1682,8.1682,8.1519,8.1519,8.1438,8.1239,8.1273,8.0989,8.0044,7.9778,7.9778,7.9778,7.9913,8.0048,8.0048,8.1009,8.1858,8.1858,8.1858,8.1453,8.026,7.9001,7.7736,7.6413,7.3985,7.221,7.2012,7.1593,7.1183,7.1183,7.0033,6.9244,6.9244,6.9244,6.9244,6.9244,6.9441,7.0131,7.1446,7.1572,7.1666,7.1666,7.2826,7.2917,7.1588,7.2917,7.2886,7.1588,7.1588,7.1494,8.9658,9.25,9.4818,9.5678,9.5865,9.4893,9.1083,9.0298,8.9063,8.4312,8.2741,8.1661,7.9767,8.1617,8.2647,8.0145,8.2679,8.4701,8.3942,8.3828,8.3752,8.3562,8.3524,8.3183,8.2309,8.3676,8.4929,8.5688,8.7701,8.8878,8.8878,8.9609,8.9941,8.9835,8.945,8.9151,8.8982,8.8724,8.8612,8.8612,8.8612,8.8612,8.8577,8.7316,8.6656,8.6605,8.5185,8.4552,8.4552,8.4552,8.4552,8.4552,8.4552,8.4245,8.3683,8.3683,8.3251,8.2733,8.2733,8.2733,8.2546,8.1601,8.1273,8.119,8.0479,8.0272,8.0132,7.9576,7.9428,7.9245,7.8814,7.8626,7.8626,7.8626,7.8626,7.8626,7.8626,7.9061,7.9428,7.9428,7.9428,7.9245,7.872,7.8094,7.7275,7.5981,7.4702,7.3912,7.3912,7.2499,7.1808,7.263,7.0625,6.9572,7.0427,6.9737,6.9605,7.0427,7.0423,7.1087,7.2543,7.2557,7.255,7.255,7.323,7.3209,7.2587,7.3209,7.3177,7.2587,7.2587,7.2072,8.5546,8.8799,9.1939,9.321,9.321,9.2201,8.9543,8.8645,8.7299,8.3472,8.2454,8.1506,7.9102,8.0708,8.1724,7.9683,8.1778,8.3562,8.3107,8.3448,8.3373,8.2499,8.2803,8.2613,8.1436,8.2765,8.3714,8.3714,8.7625,9.0016,9.0016,9.0016,9.0006,9.0014,8.9557,8.9272,8.9206,8.8907,8.8686,8.8612,8.8612,8.8577,8.8325,8.7225,8.6605,8.6345,8.506,8.4552,8.4552,8.4552,8.4381,8.414,8.414,8.3504,8.2574,8.2574,8.1957,8.119,8.0599,8.0427,8.0427,8.0427,8.0427,8.0253,7.9361,7.912,7.8968,7.815,7.7891,7.7891,7.7891,7.7891,7.7891,7.7891,7.7891,7.7891,7.7891,7.7891,7.7891,7.7891,7.7891,7.7891,7.7891,7.7891,7.7529,7.6477,7.6017,7.5918,7.628,7.4143,7.3025,7.411,7.1907,7.0822,7.194,7.1019,7.0643,7.1417,7.1413,7.1775,7.2898,7.251,7.247,7.2923,7.2495,7.2379,7.2379,7.2379,7.2379,7.2379,7.2379,7.1713,8.3975,8.6293,8.7602,9.235,9.2388,9.0817,8.906,8.7598,8.6135,8.4264,8.2985,8.2108,8.1683,8.2043,8.1283,7.7867,7.9006,7.9766,7.8171,7.931,8.0829,8.2234,8.3828,8.4777,8.4701,8.622,8.7207,8.7207,8.8953,9.0016,9.0016,9.0016,9.0007,9.0013,8.9723,8.9465,8.9206,8.9094,8.8907,8.8612,8.8612,8.8325,8.7703,8.7,8.6255,8.5561,8.484,8.4552,8.4552,8.4552,8.4001,8.3099,8.3099,8.2385,8.1355,8.1355,8.1355,8.0939,7.8814,7.8086,7.8086,7.8086,7.8086,7.8086,7.8086,7.7989,7.7989,7.7989,7.7891,7.7891,7.7891,7.7891,7.7891,7.7891,7.7891,7.7891,7.7891,7.7891,7.7891,7.7891,7.7891,7.7891,7.7891,7.7891,7.7891,7.7792,7.6641,7.628,7.7628,7.651,7.5589,7.5688,7.4373,7.3485,7.3551,7.3518,7.2825,7.1439,7.1305,7.1367,7.1482,7.008,6.9909,7.1263,6.9867,6.9238,6.9238,6.9238,6.9238,6.9238,6.9238,6.9208,8.0012,8.2966,8.5546,8.9397,8.9135,8.749,8.5882,8.4274,8.2698,8.1165,8.0522,7.9956,7.9004,7.9839,7.9954,7.7785,7.8931,7.988,7.9272,7.969,8.0677,8.2234,8.2955,8.3752,8.4853,8.7473,8.9105,8.9105,8.9637,9.0016,9.0016,9.0016,8.9999,9.0,8.9583,8.9317,8.9204,8.8939,8.8724,8.8612,8.8612,8.8288,8.766,8.6952,8.6255,8.5502,8.484,8.4552,8.4516,8.3861,8.3321,8.2914,8.2115,8.1156,8.0132,8.0132,7.9722,7.9001,7.8247,7.7891,7.7891,7.7891,7.7891,7.7891,7.7891,7.7891,7.7891,7.7891,7.7891,7.7891,7.7891,7.7891,7.7891,7.7891,7.7891,7.7891,7.7891,7.7891,7.7891,7.7891,7.7891,7.7891,7.7891,7.7891,7.7891,7.7891,7.7496,7.7332,7.7858,7.576,7.5041,7.6939,7.3344,7.1514,7.3446,7.1844,7.0972,7.1269,7.0364,7.0287,7.1207,6.9736,6.9179,6.9773,6.9208,6.8449,6.7146,6.842,6.8293,6.7146,6.8449,6.9015,7.6198,7.9363,8.2546,8.579,8.6163,8.5492,8.4485,8.2686,8.0984,8.0012,7.9444,7.8883,7.8068,7.8883,7.9413,7.8536,7.9348,8.0259,8.0791,8.136,8.2309,8.3942,8.4625,8.5423,8.6524,8.8688,9.0016,9.0016,9.0016,9.0016,9.0016,9.0016,9.0016,9.0016,8.9575,8.9338,8.9227,8.8939,8.8686,8.8612,8.8612,8.8435,8.7944,8.7095,8.6129,8.5211,8.4746,8.4552,8.4516,8.3861,8.3064,8.2307,8.1519,8.0306,7.8934,7.8934,7.8564,7.7891,7.7891,7.7891,7.7891,7.7891,7.7891,7.7891,7.7891,7.7562,7.733,7.7793,7.723,7.6557,7.6996,7.6794,7.659,7.6996,7.723,7.733,7.7793,7.7891,7.7891,7.7891,7.7891,7.7891,7.7891,7.7891,7.7891,7.7891,7.7891,7.7793,7.723,7.4966,7.443,7.6899,7.3269,7.1404,7.3354,7.1744,7.0859,7.1279,7.0344,6.9946,7.0361,6.9554,6.9015,6.9015,6.9015,6.8008,6.6143,6.7434,6.7016,6.5155,6.6463,6.7175,7.3142,7.5891,7.854,8.1801,8.3802,8.5029,8.4992,8.2962,8.1134,8.1171,8.005,7.9145,7.9295,7.9512,7.9775,8.0057,8.007,8.0639,8.2196,8.3828,8.5499,8.7245,8.8915,8.9941,9.0016,9.0016,9.0016,9.0016,9.0016,9.0016,9.0016,9.0016,9.0016,9.0016,8.9751,8.9493,8.9206,8.9094,8.8873,8.8612,8.8612,8.8612,8.8543,8.7234,8.5886,8.4552,8.4552,8.4552,8.4552,8.4449,8.3215,8.1273,8.1156,7.9846,7.7891,7.7891,7.7891,7.7891,7.7891,7.7891,7.7793,7.7793,7.7793,7.7793,7.7793,7.6761,7.5873,7.733,7.5695,7.3824,7.5208,7.4562,7.3824,7.5208,7.5526,7.5977,7.7463,7.7891,7.7891,7.7891,7.7891,7.7891,7.7891,7.7891,7.7891,7.7891,7.7891,7.733,7.584,7.4375,7.4045,7.542,7.4234,7.3407,7.3376,7.3376,7.2694,7.1174,7.1055,7.0421,6.9015,6.9015,6.9015,6.9015,6.8957,6.795,6.5927,6.5899,6.4938,6.3275,6.3275,6.3275,7.7088,7.8497,7.9157,8.1919,8.248,8.2021,8.0753,7.9059,7.8031,7.919,7.9115,7.8958,7.9257,7.9365,7.9576,8.0025,8.007,8.0639,8.2196,8.2841,8.4208,8.7131,8.789,8.865,8.9865,9.0016,9.0016,9.0016,9.0016,9.0016,9.0016,9.0016,9.0016,9.0016,8.956,8.9319,8.9206,8.8907,8.8436,8.7944,8.7944,8.7703,8.7188,8.6255,8.5358,8.4552,8.4552,8.4552,8.4449,8.2809,8.1808,8.1107,7.9486,7.8502,7.7891,7.7891,7.723,7.632,7.632,7.5558,7.4702,7.4702,7.4702,7.4702,7.4702,7.4375,7.4156,7.4593,7.4156,7.3632,7.3935,7.3824,7.36,7.3935,7.4045,7.4156,7.4593,7.5558,7.632,7.632,7.7198,7.7891,7.7891,7.7891,7.7891,7.7891,7.6996,7.6081,7.5631,7.4375,7.36,7.4045,7.1826,7.0693,7.1765,7.0784,7.002,6.9679,6.9554,6.9459,6.9015,6.9015,6.9015,6.9015,6.6835,6.4828,6.3062,6.219,6.0832,5.8972,6.0433,6.1097,7.2728,7.4332,7.5631,7.7134,7.8717,7.9607,7.8524,7.7353,7.6722,7.7582,7.7731,7.7873,7.8277,7.8886,7.9508,7.9991,8.0639,8.1626,8.3259,8.4094,8.5537,8.8194,8.7283,8.6827,8.7777,8.789,8.789,8.789,8.8536,8.8953,8.8953,8.9599,8.9941,8.9827,8.9417,8.9189,8.9132,8.8832,8.8325,8.766,8.766,8.7316,8.6693,8.587,8.5322,8.4933,8.4242,8.3931,8.3755,8.2001,8.1023,8.0461,7.9153,7.8311,7.7759,7.5958,7.431,7.3111,7.3111,7.2581,7.1887,7.1887,7.1887,7.1981,7.2462,7.2171,7.1956,7.3108,7.261,7.1708,7.2348,7.203,7.1708,7.2348,7.2464,7.2694,7.3407,7.4156,7.467,7.467,7.6009,7.6761,7.6145,7.713,7.7562,7.6249,7.5346,7.4453,7.3841,7.3569,7.2923,7.1708,7.0572,6.9991,7.0207,6.9459,6.9015,6.9015,6.8491,6.8171,6.8171,6.6996,6.6303,6.6303,6.3932,6.1809,5.9949,5.9288,5.8036,5.62,5.7385,5.6954,6.4421,6.7085,7.0323,7.0171,7.3573,7.6879,0.0,7.5999,7.5504,7.5571,7.5638,7.575,7.6331,7.7571,7.8783,7.9649,8.0943,8.2537,8.4398,8.5954,8.7549,8.9257,8.6789,8.4929,8.4929,8.4929,8.4929,8.4929,8.6334,8.7169,8.7169,8.8612,8.9333,8.9067,8.8813,8.8592,8.8458,8.82,8.7841,8.7278,8.7278,8.6994,8.645,8.5735,8.5382,8.5164,8.3648,8.2914,8.2727,8.1347,8.0172,7.9138,7.8891,7.8314,7.7004,7.2962,7.0701,6.9563,6.9352,6.9246,6.914,6.914,6.914,6.925,7.0457,6.9858,6.9216,7.1781,7.0575,6.8924,7.0186,6.9547,6.8895,7.0186,7.0485,7.0901,7.2448,7.2933,7.3108,7.3232,7.4344,7.4994,7.3712,7.5695,7.6358,7.3307,7.2829,7.2377,7.0958,7.1927,7.17,6.9004,7.0118,7.0421,6.9112,6.8869,6.8724,6.8579,6.7473,6.6804,6.6804,6.412,6.2601,6.2601,6.0792,5.8892,5.7205,5.6806,5.5685,5.3967,5.3967,5.1921,0.0,0.0,0.0,0.0,0.0,0.0,0.0,6.8873,6.9153,7.0479,7.074,7.1225,7.2764,7.3292,7.4518,7.7564,7.8285,7.9538,8.2499,8.3183,8.4018,8.5726,8.5347,8.4929,8.4929,8.4929,8.4929,8.4929,8.5271,8.5423,8.5423,8.5726,8.5878,8.5688,8.5464,8.5193,8.4985,8.4798,8.4787,8.4822,8.4822,8.4907,8.4969,8.4775,8.4275,8.3434,8.3138,8.2462,8.1416,7.9099,7.7311,7.6007,7.5111,7.4658,7.4217,7.2284,7.06,6.9277,6.8259,6.7063,6.5973,6.5973,6.5973,6.6002,6.6238,6.6121,6.6062,6.6534,6.6295,6.5965,6.6176,6.6085,6.5965,6.6176,6.6266,6.6678,6.8068,6.9257,7.0344,7.1436,7.2892,7.3824,7.3488,7.3935,7.3074,6.9166,6.8637,6.8525,6.8185,6.8218,6.8062,6.7538,6.8595,6.9363,6.9015,6.8026,6.695,6.5932,6.5641,6.5467,6.5467,6.3665,6.2601,6.2601,5.8695,5.642,5.6023,5.3745,5.1574,4.9763,4.9763,4.8533,0.0,0.0,0.0,0.0,0.0,0.0,0.0,0.0,0.0,0.0,0.0,6.8466,6.9474,0.0,7.4033,7.5969,7.8361,8.0563,8.2196,8.3145,8.3373,8.2613,8.2499,8.2499,8.2499,8.2499,8.2499,8.2499,8.3221,8.3676,8.3676,8.4436,8.477,8.4537,8.4315,8.4055,8.3901,8.3513,8.3175,8.2977,8.2676,8.239,8.2233,8.2233,8.1933,8.1421,8.0891,8.0085,7.8887,7.7026,7.5612,7.426,7.2276,7.1051,7.0306,6.8935,6.7536,6.6135,6.481,6.3857,6.3198,6.3198,6.3198,6.3314,6.3954,6.4158,6.4303,6.4943,6.5118,6.5118,6.5118,6.5118,6.5118,6.5118,6.5118,6.5292,6.5932,6.659,6.733,6.7982,6.9362,7.0163,6.9477,6.9246,6.8593,6.6644,6.7009,6.7206,6.6321,6.6885,6.6474,6.4421,6.4769,6.5147,6.5147,6.4536,6.442,6.5059,6.4507,6.3746,6.2946,6.072,5.9127,5.8248,5.5148,5.3178,5.2189,5.0781,4.9018,4.7166,4.6156,4.5137,0.0,0.0,0.0,0.0,0.0,0.0,0.0,0.0,0.0,0.0,0.0,0.0,0.0,0.0,0.0,7.4413,7.8437,8.1585,8.193,8.3138,8.3031,8.0411,8.007,8.007,8.007,8.007,8.007,8.007,8.1246,8.1968,8.1892,8.3069,8.3631,8.3369,8.3133,8.296,8.2816,8.222,8.1707,8.1327,8.0688,0.0,7.9914,7.9914,7.9687,7.9222,7.8359,7.7378,7.6129,7.4997,7.3994,7.2992,7.0296,6.8527,6.7428,6.5871,6.4603,6.3554,6.1807,6.1195,6.1195,6.1195,6.1195,6.137,6.25,6.2849,0.0,6.4071,6.4361,6.4361,6.4361,6.4125,6.3978,6.4243,6.4096,6.4064,6.4563,6.474,6.4798,6.5059,6.6119,6.6552,6.5326,6.4681,6.4216,6.3693,6.5139,6.5629,6.3925,6.5376,6.5361,6.1973,6.1889,6.2035,6.2035,6.1112,6.1778,6.4565,6.2821,6.1088,5.9775,5.6771,5.4601,5.3248,5.1392,4.9753,4.8605,4.8189,4.7026,4.5115,4.2185,4.0921,0.0,0.0,0.0,0.0,0.0,0.0,0.0,0.0,0.0,0.0,0.0,0.0,0.0,0.0,0.0,0.0,7.5779,7.8611,8.0142,8.0516,8.0487,8.0107,8.007,8.007,8.007,8.007,8.007,8.007,8.0259,8.0259,7.9994,8.0145,0.0,0.0,0.0,7.9556,7.9264,7.8762,7.8858,7.9558,7.8911,7.9064,7.9914,7.9914,7.8881,7.7151,7.6998,7.5836,7.3885,7.2507,7.1889,7.1578,6.9901,6.9123,6.8649,6.6194,6.5178,6.4705,6.2078,0.0,0.0,6.1195,6.1195,6.1195,6.134,6.1399,6.1428,6.1573,6.1744,6.1744,6.1744,6.0629,5.9991,6.1375,6.06,6.0303,6.2792,6.3402,6.3751,6.4885,6.5208,6.5326,6.5118,6.3227,6.0959,5.869,6.0371,6.1123,5.8661,6.142,6.3516,6.3024,6.4012,0.0,6.4681,6.0572,5.9486,6.314,5.8999,5.6397,5.6148,5.3109,5.1302,5.106,4.7761,4.6912,4.8605,4.6863,4.4993,4.3007,3.6561,3.4389,0.0,0.0,0.0,0.0,0.0,0.0,0.0,0.0,0.0,0.0,0.0,0.0,0.0,0.0,0.0,0.0,7.3819,7.6321,7.706,7.8856,8.007,8.007,8.007,8.007,8.007,7.9956,7.9842,7.9842,7.9723,7.959,7.9476,7.9416,7.9284,7.9137,7.8958,7.8686,7.8311,7.7682,7.735,7.7391,7.6763,7.6753,7.7203,7.7203,7.6365,7.4959,7.4449,7.3333,7.1863,7.0692,7.0164,7.0131,0.0,0.0,0.0,0.0,6.658,6.4908,6.2188,6.1195,6.1054,6.02,6.0429,6.0941,5.8955,5.9711,6.1054,6.0057,6.0572,6.1054,6.0057,5.9334,5.9072,5.9711,5.9334,5.9475,6.1606,6.2093,6.2238,6.2791,6.2907,0.0,6.2907,6.2006,6.0818,5.9854,6.061,6.093,5.9854,6.1104,6.154,6.0057,6.0377,6.0668,6.0668,5.8749,0.0,0.0,0.0,5.8061,5.6487,5.4906,0.0,0.0,0.0,4.4664,4.3907,4.103,0.0,0.0,3.5817,3.4747,0.0,0.0,0.0,0.0,0.0,0.0,0.0,0.0,0.0,0.0,0.0,0.0,0.0,0.0,0.0,0.0,7.1856,7.453,7.3073,7.6197,7.8285,7.7412,7.8899,7.9603,7.8703,7.9272,7.9645,7.9606,7.9424,7.9273,7.9235,7.9164,7.907,7.9033,7.8686,7.8345,7.7949,7.7108,7.647,7.6002,7.5449,7.5241,7.5241,7.5241,7.4547,7.3253,7.2621,7.1506,7.0249,6.9557,6.9244,6.9244,6.9244,6.9244,6.9156,6.8827,6.7242,6.4908,6.2188,6.1195,6.0941,5.945,5.9942,6.0685,5.786,5.8955,6.1054,5.9826,6.0315,6.0941,5.9826,5.8837,5.8456,5.9334,5.8837,5.872,6.0799,6.1195,6.1195,6.1195,6.1195,6.1195,6.1195,6.1195,6.0934,6.0348,6.0842,6.0934,6.0348,6.076,6.0581,5.8748,5.8545,5.8545,5.8545,5.7178,5.7328,5.9628,5.8886,5.7861,5.6799,5.5219,5.2588,4.9032,4.5269,4.2501,0.0,0.0,0.0,0.0,0.0,0.0,0.0,0.0,0.0,0.0,0.0,0.0,0.0,0.0,0.0,0.0,0.0,0.0,0.0,0.0,0.0,0.0,0.0,0.0,6.8211,7.1717,7.3691,7.0654,7.5855,7.8434,7.513,7.7792,7.9606,7.9356,7.9317,7.925,7.9137,7.9108,7.8995,7.8741,7.8239,7.7949,7.7949,7.6698,7.6054,7.6002,7.5449,7.5241,7.5241,7.5241,7.4193,7.2331,7.2366,7.1151,6.9211,6.9244,6.9244,6.9244,6.9244,6.9244,6.9036,6.7829,6.6452,6.4908,6.2188,6.1195,6.0941,5.945,5.9942,6.0941,5.9334,5.9942,6.1195,6.1166,6.1166,6.1195,6.1166,5.8837,5.723,6.0429,5.872,5.7351,6.0572,6.1195,6.1195,6.1195,6.1195,6.1195,6.1195,6.1195,6.0464,5.7992,5.9708,0.0,5.7934,5.9766,6.1137,6.1079,6.1079,6.1079,6.1079,5.6232,5.5444,6.0822,5.4817,5.2676,5.6215,5.1733,4.8404,4.6733,4.2196,4.0046,4.0442,0.0,0.0,0.0,0.0,0.0,0.0,0.0,0.0,0.0,0.0,0.0,0.0,0.0,0.0,0.0,0.0,0.0,0.0,0.0,0.0,0.0,0.0,0.0,0.0,6.7655,7.0654,6.8545,7.2171,7.3931,7.1751,7.4397,7.6178,7.6094,7.7881,7.8921,7.8883,7.8883,7.8654,7.8204,7.8024,7.7521,7.6661,7.6222,7.5826,7.5507,7.5288,7.5241,7.5241,7.4511,7.3493,7.2258,7.1617,7.0463,6.9244,6.9244,6.8652,6.7698,6.6745,6.6383,6.6215,6.5053,6.3698,6.2381,6.0662,5.9541,5.8533,5.6879,5.7492,5.8287,5.5551,5.6599,5.8533,5.7463,5.796,5.8562,5.7381,5.6289,5.5721,5.6879,5.6932,5.7375,5.95,6.0668,6.1195,6.1195,5.8545,5.6189,5.6189,5.8283,5.9126,5.6625,5.9126,6.0876,6.0115,6.0755,6.1195,6.1195,6.1195,6.1195,6.1195,5.8544,5.7347,5.8349,5.5913,5.388,5.2486,5.1638,5.003,4.7709,4.5464,4.2179,3.7841,0.0,0.0,0.0,0.0,0.0,0.0,0.0,0.0,0.0,0.0,0.0,0.0,0.0,0.0,0.0,0.0,0.0,0.0,0.0,0.0,0.0,0.0,0.0,0.0,0.0,0.0,6.6644,6.9286,0.0,6.8188,6.981,7.0958,7.0847,7.2585,7.41,7.528,7.5164,7.5415,7.6207,7.634,7.6041,7.522,7.5519,7.5584,7.5241,7.5241,7.5241,7.5181,7.4122,7.3184,7.2258,7.1229,7.0166,6.9178,6.8126,6.6682,6.5044,6.4117,6.3246,6.2384,6.1566,6.069,5.9833,5.9074,5.8243,5.7218,5.5155,5.4893,5.4951,5.3006,5.3969,5.5548,5.5049,5.578,5.6453,5.6089,5.5419,5.5171,5.5747,5.6148,5.6711,5.8309,5.8603,5.8836,5.9766,5.7265,5.4876,5.4205,5.6084,5.717,5.5555,5.7741,5.9859,6.0464,6.0876,6.1195,6.1195,6.0685,6.0685,6.1166,5.9217,5.7886,5.7718,5.5906,5.3724,5.117,5.0605,4.9066,4.6538,4.5464,4.2057,0.0,0.0,0.0,0.0,0.0,0.0,0.0,0.0,0.0,0.0,0.0,0.0,0.0,0.0,0.0,0.0,0.0,0.0,0.0,0.0,0.0,0.0,0.0,0.0,0.0,0.0,0.0,6.4506,6.6888,0.0,0.0,0.0,0.0,6.4141,6.4245,6.5701,6.8751,6.8471,6.9625,7.2686,7.3162,7.3409,7.3539,7.4482,7.4991,7.4991,7.4991,7.4991,7.4931,7.3846,7.2871,7.1978,7.0947,6.9883,6.8783,6.5824,6.3434,6.1469,6.1307,5.9843,5.7872,5.7576,5.7417,5.7357,5.7325,5.7195,5.6787,5.431,5.2396,5.1224,5.2071,5.2171,0.0,0.0,5.4569,5.4914,5.6701,5.6053,5.5299,5.7026,5.6175,5.5553,5.7142,5.5592,5.4544,5.6787,5.7108,5.6452,5.4587,0.0,5.4536,5.4416,5.5695,5.7263,5.8992,6.0319,6.1108,6.1195,5.9942,5.9566,6.1054,5.8218,5.7082,5.849,5.4643,5.2196,5.1969,4.8423,4.5489,4.3454,4.2279,0.0,0.0,0.0,0.0,0.0,0.0,0.0,0.0,0.0,0.0,0.0,0.0,0.0,0.0,0.0,0.0,0.0,0.0,0.0,0.0,0.0,0.0,0.0,0.0,0.0,0.0,5.7198,5.8635,5.9016,5.9754,5.9534,0.0,0.0,0.0,0.0,0.0,0.0,6.5386,6.5321,6.6315,6.8661,6.8816,6.9709,7.1363,7.1643,7.1744,7.1744,7.1744,7.1384,7.0702,6.9668,6.8711,6.7866,6.685,6.6269,6.5726,6.2152,6.0357,5.9635,5.6864,5.5468,5.4821,5.386,5.3216,5.2851,5.3206,5.3104,5.2648,5.1936,5.1461,5.0889,4.9789,0.0,0.0,0.0,0.0,5.1105,5.2445,5.243,5.2779,5.5331,5.569,5.5809,5.7067,5.6961,5.5752,5.3296,5.1224,4.9279,4.7563,4.9624,0.0,4.8891,5.2469,5.5837,5.7234,5.8825,6.0203,6.1079,6.0941,6.0315,5.9566,5.872,5.6969,5.4144,5.2872,5.1011,4.8227,4.5602,4.3875,4.3313,0.0,0.0,0.0,0.0,0.0,0.0,0.0,0.0,0.0,0.0,0.0,0.0,0.0,0.0,0.0,0.0,0.0,0.0,0.0,0.0,0.0,0.0,0.0,0.0,0.0,0.0,0.0,5.5996,5.7182,5.7975,5.6941,5.5802,0.0,0.0,0.0,0.0,0.0,0.0,0.0,0.0,0.0,6.3259,6.3769,6.4614,6.5863,6.7738,6.8675,6.8711,6.9522,6.9872,6.9754,6.7921,6.7083,6.6866,6.5481,6.3853,6.1943,5.9876,5.7562,5.5153,0.0,0.0,0.0,0.0,5.0333,5.016,5.0927,5.0988,5.0614,4.9483,0.0,0.0,0.0,0.0,0.0,0.0,0.0,4.9655,5.0807,5.167,5.2641,5.4249,5.4714,5.4876,5.5605,5.4775,5.3162,5.0438,4.8786,4.7213,4.5513,4.6987,0.0,0.0,0.0,5.3433,5.483,5.7052,5.901,6.0261,5.9737,5.9229,5.8899,5.7837,5.569,5.2521,5.1395,4.9139,4.5411,4.3988,4.2505,0.0,0.0,0.0,0.0,0.0,0.0,0.0,0.0,0.0,0.0,0.0,0.0,0.0,0.0,0.0,0.0,0.0,0.0,0.0,0.0,0.0,0.0,0.0,0.0,0.0,0.0,0.0,0.0,0.0,5.8771,5.8665,0.0,0.0,0.0,0.0,0.0,0.0,0.0,0.0,0.0,0.0,0.0,0.0,0.0,5.9195,5.9557,6.3263,6.5148,6.5184,6.682,6.8017,6.8495,6.6127,6.5585,6.6307,6.4312,0.0,5.8452,5.7723,0.0,0.0,0.0,0.0,0.0,0.0,0.0,0.0,0.0,0.0,0.0,0.0,0.0,0.0,0.0,0.0,0.0,0.0,0.0,0.0,0.0,0.0,5.3068,5.3191,5.3332,5.3384,5.3191,5.1284,4.9308,4.8507,4.8298,4.7746,0.0,0.0,0.0,0.0,0.0,0.0,5.2323,5.5371,5.7701,5.8923,5.7805,5.7442,5.8278,5.6146,5.3792,5.1909,4.9738,4.6958,4.3444,4.3113,0.0,0.0,0.0,0.0,0.0,0.0,0.0,0.0,0.0,0.0,0.0,0.0,0.0,0.0,0.0,0.0,0.0,0.0,0.0,0.0,0.0,0.0,0.0,0.0,0.0,0.0,0.0,0.0,0.0,0.0,0.0,0.0,0.0,0.0,0.0,0.0,0.0,0.0,0.0,0.0,0.0,0.0,0.0,0.0,0.0,0.0,0.0,0.0,0.0,0.0,5.9401,5.9089,5.8154,5.7725,5.8478,5.9927,5.7034,5.6796,5.8143,5.3672,0.0,0.0,0.0,0.0,0.0,0.0,0.0,0.0,0.0,0.0,0.0,0.0,0.0,0.0,0.0,0.0,0.0,0.0,0.0,0.0,0.0,0.0,5.024,5.0701,5.1456,5.1935,5.1127,0.0,0.0,0.0,0.0,0.0,0.0,0.0,0.0,0.0,0.0,0.0,5.059,5.3804,5.6422,5.7672,5.7605,5.6991,5.5786,5.4529,5.2572,4.9569,4.7545,4.5446,0.0,0.0,0.0,0.0,0.0,0.0,0.0,0.0,0.0,0.0,0.0,0.0,0.0,0.0,0.0,0.0,0.0,0.0,0.0,0.0,0.0,0.0,0.0,0.0,0.0,0.0,0.0,0.0,0.0,0.0,0.0,0.0,0.0,0.0,0.0,0.0,0.0,0.0,0.0,0.0,0.0,0.0,0.0,0.0,0.0,0.0,0.0,0.0,0.0,0.0,0.0,0.0,0.0,0.0,0.0,0.0,0.0,0.0,5.6117,5.4042,0.0,0.0,0.0,0.0,0.0,0.0,0.0,0.0,0.0,0.0,0.0,0.0,0.0,0.0,0.0,0.0,0.0,0.0,0.0,0.0,0.0,0.0,0.0,0.0,0.0,0.0,0.0,0.0,0.0,0.0,0.0,0.0,0.0,0.0,0.0,0.0,0.0,0.0,0.0,0.0,4.9252,5.2353,5.5055,5.6364,5.6509,5.6085,5.5115,5.3435,5.1223,4.8092,4.5808,0.0,0.0,0.0,0.0,0.0,0.0,0.0,0.0,0.0,0.0,0.0,0.0,0.0,0.0,0.0,0.0,0.0,0.0,0.0,0.0,0.0,0.0,0.0,0.0,0.0,0.0,0.0,0.0,0.0,0.0,0.0,0.0,0.0,0.0,0.0,0.0,0.0,0.0,0.0,0.0,0.0,0.0,0.0,0.0,0.0,0.0,0.0,0.0,0.0,0.0,0.0,0.0,0.0,0.0,0.0,0.0,0.0,0.0,0.0,5.5833,5.2078,0.0,0.0,0.0,0.0,0.0,0.0,0.0,0.0,0.0,0.0,0.0,0.0,0.0,0.0,0.0,0.0,0.0,0.0,0.0,0.0,0.0,0.0,0.0,0.0,0.0,0.0,0.0,0.0,0.0,0.0,0.0,0.0,0.0,0.0,0.0,0.0,0.0,0.0,0.0,0.0,4.8708,5.155,5.3891,5.4677,5.4764,5.4605,5.4368,5.2083,4.9767,4.7325,4.4725,0.0,0.0,0.0,0.0,0.0,0.0,0.0,0.0,0.0,0.0,0.0,0.0,0.0,0.0,0.0,0.0,0.0,0.0,0.0,0.0,0.0,0.0,0.0,0.0,0.0,0.0,0.0,0.0,0.0,0.0,0.0,0.0,0.0,0.0,0.0,0.0,0.0,0.0,0.0,0.0,0.0,0.0,0.0,0.0,0.0,0.0,0.0,0.0,0.0,0.0,0.0,0.0,0.0,0.0,0.0,0.0,0.0,0.0,0.0,0.0,0.0,0.0,0.0,0.0,0.0,0.0,0.0,0.0,0.0,0.0,0.0,0.0,0.0,0.0,0.0,0.0,0.0,0.0,0.0,0.0,0.0,0.0,0.0,0.0,0.0,0.0,0.0,0.0,0.0,0.0,0.0,0.0,0.0,0.0,0.0,0.0,0.0,0.0,0.0,0.0,0.0,4.9258,5.1813,5.3193,5.2146,5.2059,5.2088,5.2013,4.9732,4.8061,4.7564,0.0,0.0,0.0,0.0,0.0,0.0,0.0,0.0,0.0,0.0,0.0,0.0,0.0,0.0,0.0,0.0,0.0,0.0,0.0,0.0,0.0,0.0,0.0,0.0,0.0,0.0,0.0,0.0,0.0,0.0,0.0,0.0,0.0,0.0,0.0,0.0,0.0,0.0,0.0,0.0,0.0,0.0,0.0,0.0,0.0,0.0,0.0,0.0,0.0,0.0,0.0,0.0,0.0,0.0,0.0,0.0,0.0,0.0,0.0,0.0,0.0,0.0,0.0,0.0,0.0,0.0,0.0,0.0,0.0,0.0,0.0,0.0,0.0,0.0,0.0,0.0,0.0,0.0,0.0,0.0,0.0,0.0,0.0,0.0,0.0,0.0,0.0,0.0,0.0,0.0,0.0,0.0,0.0,0.0,0.0,0.0,0.0,0.0,0.0,0.0,0.0,0.0,4.887,5.1609,5.3495,5.2874,5.2146,5.1681,5.1681,4.9395,4.722,4.5615,0.0,0.0,0.0,0.0,0.0,0.0,0.0,0.0,0.0,0.0,0.0,0.0,0.0,0.0,0.0,0.0,0.0,0.0,0.0,0.0,0.0,0.0,0.0,0.0,0.0,0.0,0.0,0.0,0.0,0.0,0.0,0.0,0.0,0.0,0.0,0.0,0.0,0.0,0.0,0.0,0.0,0.0,0.0,0.0,0.0,0.0,0.0,0.0,0.0,0.0,0.0,0.0,0.0,0.0,0.0,0.0,0.0,0.0,0.0,0.0,0.0,0.0,0.0,0.0,0.0,0.0,0.0,0.0,0.0,0.0,0.0,0.0,0.0,0.0,0.0,0.0,0.0,0.0,0.0,0.0,0.0,0.0,0.0,0.0,0.0,0.0,0.0,0.0,0.0,0.0,0.0,0.0,0.0,0.0,0.0,0.0,0.0,0.0,0.0,0.0,0.0,0.0,4.961,5.2247,5.3832,5.3068,5.1905,5.0983,5.0605,4.8889,4.6852,4.4609,0.0,0.0,0.0,0.0,0.0,0.0,0.0,0.0,0.0,0.0,0.0,0.0,0.0,0.0,0.0,0.0,0.0,0.0,0.0,0.0,0.0,0.0,0.0,0.0,0.0,0.0,0.0,0.0,0.0,0.0,0.0,0.0,0.0,0.0,0.0,0.0,0.0,0.0,0.0,0.0,0.0,0.0,0.0,0.0,0.0,0.0,0.0,0.0,0.0,0.0,0.0,0.0,0.0,0.0,0.0,0.0,0.0,0.0,0.0,0.0,0.0,0.0,0.0,0.0,0.0,0.0,0.0,0.0,0.0,0.0,0.0,0.0,0.0,0.0,0.0,0.0,0.0,0.0,0.0,0.0,0.0,0.0,0.0,0.0,0.0,0.0,0.0,0.0,0.0,0.0,0.0,0.0,0.0,0.0,0.0,0.0,0.0,0.0,0.0,0.0,0.0,0.0,5.2029,5.4008,5.4397,5.1803,5.0453,4.9296,4.7929,4.7812,4.7077,0.0,0.0,0.0,0.0,0.0,0.0,0.0,0.0,0.0,0.0,0.0,0.0,0.0,0.0,0.0,0.0,0.0,0.0,0.0,0.0,0.0,0.0,0.0,0.0,0.0,0.0,0.0,0.0,0.0,0.0,0.0,0.0,0.0,0.0,0.0,0.0,0.0,0.0,0.0,0.0,0.0,0.0,0.0,0.0,0.0,0.0,0.0,0.0,0.0,0.0,0.0,0.0,0.0,0.0,0.0,0.0,0.0,0.0,0.0,0.0,0.0,0.0,0.0,0.0,0.0,0.0,0.0,0.0,0.0,0.0,0.0,0.0,0.0,0.0,0.0,0.0,0.0,0.0,0.0,0.0,0.0,0.0,0.0,0.0,0.0,0.0,0.0,0.0,0.0,0.0,0.0,0.0,0.0,0.0,0.0,0.0,0.0,0.0,0.0,0.0,0.0,0.0,0.0,4.9334,5.0906,5.189,5.1415,5.0235,4.9035,4.79,4.7028,4.5812,4.4083,0.0,0.0,0.0,0.0,0.0,0.0,0.0,0.0,0.0,0.0,0.0,0.0,0.0,0.0,0.0,0.0,0.0,0.0,0.0,0.0,0.0,0.0,0.0,0.0,0.0,0.0,0.0,0.0,0.0,0.0,0.0,0.0,0.0,0.0,0.0,0.0,0.0,0.0,0.0,0.0,0.0,0.0,0.0,0.0,0.0,0.0,0.0,0.0,0.0,0.0,0.0,0.0,0.0,0.0,0.0,0.0,0.0,0.0,0.0,0.0,0.0,0.0,0.0,0.0,0.0,0.0,0.0,0.0,0.0,0.0,0.0,0.0,0.0,0.0,0.0,0.0,0.0,0.0,0.0,0.0,0.0,0.0,0.0,0.0,0.0,0.0,0.0,0.0,0.0,0.0,0.0,0.0,0.0,0.0,0.0,0.0,0.0,0.0,0.0,0.0,0.0,0.0,0.0,5.0809,5.1874,5.1302,5.0136,4.8777,4.723,4.6359,4.5328,4.3923,0.0,0.0,0.0,0.0,0.0,0.0,0.0,0.0,0.0,0.0,0.0,0.0,0.0,0.0,0.0,0.0,0.0,0.0,0.0,0.0,0.0,0.0,0.0,0.0,0.0,0.0,0.0,0.0,0.0,0.0,0.0,0.0,0.0,0.0,0.0,0.0,0.0,0.0,0.0,0.0,0.0,0.0,0.0,0.0,0.0,0.0,0.0,0.0,0.0,0.0,0.0,0.0,0.0,0.0,0.0,0.0,0.0,0.0,0.0,0.0,0.0,0.0,0.0,0.0,0.0,0.0,0.0,0.0,0.0,0.0,0.0,0.0,0.0,0.0,0.0,0.0,0.0,0.0,0.0,0.0,0.0,0.0,0.0,0.0,0.0,0.0,0.0,0.0,0.0,0.0,0.0,0.0,0.0,0.0,0.0,0.0,0.0,0.0,0.0,0.0,0.0,0.0,0.0,5.256,5.3213,5.1236,4.9959,4.833,4.6065,4.5864,4.5568,4.4809,4.3813,0.0,0.0,0.0,0.0,0.0,0.0,0.0,0.0,0.0,0.0,0.0,0.0,0.0,0.0,0.0,0.0,0.0,0.0,0.0,0.0,0.0,0.0,0.0,0.0,0.0,0.0,0.0,0.0,0.0,0.0,0.0,0.0,0.0,0.0,0.0,0.0,0.0,0.0,0.0,0.0,0.0,0.0,0.0,0.0,0.0,0.0,0.0,0.0,0.0,0.0,0.0,0.0,0.0,0.0,0.0,0.0,0.0,0.0,0.0,0.0,0.0,0.0,0.0,0.0,0.0,0.0,0.0,0.0,0.0,0.0,0.0,0.0,0.0,0.0,0.0,0.0,0.0,0.0,0.0,0.0,0.0,0.0,0.0,0.0,0.0,0.0,0.0,0.0,0.0,0.0,0.0,0.0,0.0,0.0,0.0,0.0,0.0,0.0,0.0,0.0,0.0,0.0,4.82,4.8451,4.9381,4.8525,4.7368,4.5977,4.5864,4.5568,4.4809,4.3813,0.0,0.0,0.0,0.0,0.0,0.0,0.0,0.0,0.0,0.0,0.0,0.0,0.0,0.0,0.0,0.0,0.0,0.0,0.0,0.0,0.0,0.0,0.0,0.0,0.0,0.0,0.0,0.0,0.0,0.0,0.0,0.0,0.0,0.0,0.0,0.0,0.0,0.0,0.0,0.0,0.0,0.0,0.0,0.0,0.0,0.0,0.0,0.0,0.0,0.0,0.0,0.0,0.0,0.0,0.0,0.0,0.0,0.0,0.0,0.0,0.0,0.0,0.0,0.0,0.0,0.0,0.0,0.0,0.0,0.0,0.0,0.0,0.0,0.0,0.0,0.0,0.0,0.0,0.0,0.0,0.0,0.0,0.0,0.0,0.0,0.0,0.0,0.0,0.0,0.0,0.0,0.0,0.0,0.0,0.0,0.0,0.0,0.0,0.0,0.0,0.0,0.0,4.7311,4.7683,4.8862,4.8498,4.7567,4.6032,4.5864,4.5568,4.4809,4.4272,0.0,0.0,0.0,0.0,0.0,0.0,0.0,0.0,0.0,0.0,0.0,0.0,0.0,0.0,0.0,0.0,0.0,0.0,0.0,0.0,0.0,0.0,0.0,0.0,0.0,0.0,0.0,0.0,0.0,0.0,0.0,0.0,0.0,0.0,0.0,0.0,0.0,0.0,0.0,0.0,0.0,0.0,0.0,0.0,0.0,0.0,0.0,0.0,0.0,0.0,0.0,0.0,0.0,0.0,0.0,0.0,0.0,0.0,0.0,0.0,0.0,0.0,0.0,0.0,0.0,0.0,0.0,0.0,0.0,0.0,0.0,0.0,0.0,0.0,0.0,0.0,0.0,0.0,0.0,0.0,0.0,0.0,0.0,0.0,0.0,0.0,0.0,0.0,0.0,0.0,0.0,0.0,0.0,0.0,0.0,0.0,0.0,0.0,0.0,0.0,0.0,0.0,0.0,4.8574,4.8669,4.8893,4.8161,4.6252,4.6086,4.5697,4.4778,0.0,0.0,0.0,0.0,0.0,0.0,0.0,0.0,0.0,0.0,0.0,0.0,0.0,0.0,0.0,0.0,0.0,0.0,0.0,0.0,0.0,0.0,0.0,0.0,0.0,0.0,0.0,0.0,0.0,0.0,0.0,0.0,0.0,0.0,0.0,0.0,0.0,0.0,0.0,0.0,0.0,0.0,0.0,0.0,0.0,0.0,0.0,0.0,0.0,0.0,0.0,0.0,0.0,0.0,0.0,0.0,0.0,0.0,0.0,0.0,0.0,0.0,0.0,0.0,0.0,0.0,0.0,0.0,0.0,0.0,0.0,0.0,0.0,0.0,0.0,0.0,0.0,0.0,0.0,0.0,0.0,0.0,0.0,0.0,0.0,0.0,0.0,0.0,0.0,0.0,0.0,0.0,0.0,0.0,0.0,0.0,0.0,0.0,0.0,0.0,0.0,0.0,0.0,0.0,4.8255,4.7444,4.8312,4.8467,4.725,4.717,4.6526,4.4786,0.0,0.0,0.0,0.0,0.0,0.0,0.0,0.0,0.0,0.0,0.0,0.0,0.0,0.0]}],[{"header":{"parameterUnit":"kt","parameterCategory":2,"dx":1,"dy":1,"la1":29.285339999999998,"la2":30.599998999999997,"lo1":-89.70041500000002,"lo2":-87.6738589999976,"nx":112,"ny":82,"refTime":"2022-09-20T18:00:00:Z","depth":0,"parameterNumber":2,"parameterNumberName":"V-component_of_WINDS"},"data":[1.8543,1.6421,1.4267,1.3996,1.3904,1.3759,1.3291,1.3034,1.2928,1.3021,1.2665,1.2493,1.3001,1.2618,1.2322,1.2774,1.1301,1.051,0.0,1.2355,1.2493,1.2436,1.3107,1.3891,1.4293,1.5104,1.5783,1.6192,1.6745,1.7154,1.7365,1.7378,1.8646,2.1374,2.0539,2.0539,2.1587,2.1587,2.0113,1.7378,1.8431,1.8217,1.7378,1.7378,1.7378,1.7378,1.7378,1.7378,1.7378,1.7378,1.7378,1.7378,1.7378,1.7378,1.7378,1.7378,1.7378,1.7378,1.7378,1.7378,1.7378,1.7196,1.7202,1.7209,1.7235,1.7248,1.7267,1.7385,1.467,1.1758,1.1834,1.1799,1.262,1.6376,1.7254,1.7248,1.7267,1.4371,1.2827,1.6593,1.7254,1.7248,1.7248,1.7248,1.6136,1.2394,1.5025,1.7222,1.7209,1.7477,1.7629,1.7919,1.8216,1.8512,1.8802,1.8987,1.9092,1.9092,1.9092,1.9092,1.9092,1.9092,1.9092,1.9092,1.9092,1.8901,1.8525,1.8328,1.8031,1.7642,1.7457,1.7378,1.7621,1.5819,1.3647,1.3264,1.3238,1.3205,1.2823,1.2585,1.244,1.244,1.2308,1.219,1.2177,1.2196,1.2177,1.2058,1.2124,1.2196,0.0,1.2414,1.2658,1.2856,1.3561,1.4187,1.4576,1.5414,1.6007,1.6198,1.6844,1.7266,1.7372,1.7378,1.8224,2.012,2.0113,2.0113,2.0113,2.0113,1.9273,1.7378,1.7471,1.7517,1.7517,1.7517,1.7517,1.751,1.7418,1.7378,1.7378,1.7378,1.7378,1.7378,1.7378,1.7378,1.7378,1.7378,1.7378,1.7378,1.7378,1.7385,1.7405,1.7215,1.5901,1.4371,1.4393,1.4404,1.396,1.1984,0.8696,0.5863,0.5867,0.8702,1.2644,1.6407,1.5739,1.396,1.198,1.0008,1.0441,1.6184,1.5739,1.4404,1.4404,1.2871,1.1555,1.1546,1.4832,1.7254,1.7248,1.7222,1.753,1.8034,1.7998,1.8268,1.867,1.8855,1.8993,1.9086,1.9092,1.9092,1.9092,1.9092,1.9092,1.9092,1.9092,1.8954,1.8677,1.838,1.8084,1.7787,1.7504,1.7378,1.5605,1.4497,1.2579,1.2572,1.2374,1.2334,1.2177,1.2321,1.2321,1.2321,1.2321,1.2321,1.2321,1.2321,1.2078,1.1794,1.2154,0.0,0.0,1.2608,1.3021,1.3622,1.4016,1.4576,1.5143,1.5493,1.5908,1.6462,1.6785,1.7082,1.7358,1.7378,1.7378,1.7378,1.7378,1.7378,1.7378,1.7378,1.7378,1.7378,1.7662,1.7787,1.778,1.7787,1.7787,1.7761,1.749,1.7378,1.7378,1.7378,1.7378,1.7378,1.7378,1.7378,1.7378,1.7378,1.7378,1.7378,1.7378,1.7196,1.7228,1.6784,1.3053,0.8473,0.8473,0.8473,0.7383,0.152,0.0,0.0,0.0,0.8287,1.6662,1.6662,1.2432,0.6949,0.1303,0.4559,1.0008,1.5757,1.221,0.8473,0.8473,0.3698,0.3705,1.5105,1.7102,1.7319,1.7293,1.707,1.7173,1.7886,1.7658,1.8097,1.8928,1.871,1.8802,1.9079,1.9092,1.9092,1.9092,1.9092,1.9092,1.9092,1.9092,1.896,1.869,1.8387,1.809,1.78,1.751,1.7378,1.3237,1.2943,1.2533,1.2328,1.2374,1.2414,1.2216,1.3358,1.4391,1.4391,1.4391,0.0,0.0,0.0,1.221,1.2328,0.0,1.5406,1.3133,1.5403,1.7432,1.7695,1.6116,1.5097,1.5473,1.635,1.6871,1.6818,1.7273,1.7504,1.7385,1.7378,1.7378,1.7378,1.7378,1.7378,1.7378,1.7378,1.7378,1.7378,1.7662,1.7682,1.7497,1.7695,1.7682,1.7484,1.7411,1.7378,1.7378,1.7378,1.7378,1.7378,1.7378,1.7378,1.7378,1.7196,1.7209,1.7215,1.7248,1.7261,1.5937,0.7383,0.3688,0.2389,0.2393,0.2394,0.1959,0.0436,0.0,0.0,0.0,0.2397,0.4794,0.4794,0.3485,0.1959,0.0436,0.1306,0.283,0.4357,0.3485,0.2394,0.2394,0.1089,0.109,0.4359,1.2011,1.7319,1.7313,1.3743,1.1116,1.1385,1.1721,1.3707,1.8205,1.8664,1.8908,1.8954,1.9165,1.9138,1.9138,1.9138,1.9125,1.9092,1.9125,1.9086,1.898,1.8479,1.8196,1.8103,1.7609,1.7378,1.2282,1.2289,1.2674,1.3251,1.364,1.3873,1.4587,1.5566,1.6456,1.6456,0.0,0.0,0.0,0.0,0.0,0.0,1.7494,1.8526,1.6837,1.8098,1.9187,1.939,1.8146,1.6847,1.5631,1.6462,1.7035,1.7115,1.7312,1.7418,1.7378,1.7378,1.7378,1.7378,1.7378,1.7378,1.7378,1.7378,1.7378,1.7378,1.7787,1.7827,1.7556,1.7846,1.782,1.7543,1.7424,1.7378,1.7378,1.7378,1.7378,1.7378,1.7378,1.7398,1.7215,1.7222,1.5685,1.3712,1.3733,1.3738,1.2196,0.304,0.0,0.0,0.0,0.0,0.0,0.0,0.0,0.0,0.0,0.0,0.0,0.0,0.0,0.0,0.0,0.0,0.0,0.0,0.0,0.0,0.0,0.0,0.0,0.0,0.5665,1.0038,1.0038,0.7185,0.5001,0.5001,0.9657,1.4261,1.8189,1.6487,1.5078,1.4945,1.4934,1.496,1.5059,1.7734,1.7728,1.5033,1.7698,1.9145,1.9119,1.8525,1.8023,1.7816,1.7456,1.7405,1.262,1.2615,1.3065,1.4689,1.5277,1.6046,1.796,0.0,1.8783,1.8934,0.0,1.9075,1.9622,0.0,0.0,1.9744,2.1167,2.2172,2.177,2.099,2.0633,2.0544,2.0719,1.9497,1.6355,1.6612,1.718,1.7332,1.7128,1.7095,1.7358,1.7378,1.7378,1.7378,1.7378,1.7378,1.7378,1.7405,1.7405,1.7385,1.7991,1.811,1.78,1.8136,1.8123,1.7827,1.7543,1.7424,1.7418,1.7391,1.7378,1.7163,1.6505,1.6777,1.7064,1.5913,1.2173,0.7819,0.7822,0.7822,0.6952,0.1737,0.0,0.0,0.0,0.0,0.0,0.0,0.0,0.0,0.0,0.0,0.0,0.0,0.0,0.0,0.0,0.0,0.0,0.0,0.0,0.0,0.0,0.0,0.0,0.0,0.0,0.0,0.0,0.0,0.0,0.0,0.9161,1.5657,1.6834,1.1608,0.8342,0.8367,0.9803,1.0587,1.0491,1.6075,1.6086,0.9559,1.5793,1.8934,1.8928,1.8552,1.7596,1.626,1.6386,1.6784,1.4199,1.454,1.4681,1.5128,1.6308,1.8047,0.0,0.0,0.0,2.4205,2.4455,2.4478,2.4568,2.3377,2.2455,2.265,2.537,2.6491,2.3857,2.6071,2.7726,2.6938,2.5426,2.2979,1.9536,1.9868,1.9468,1.7345,1.7319,1.7312,1.7372,1.7378,1.7378,1.7378,1.7378,1.7378,1.7378,1.7596,1.7596,1.7385,1.8202,1.8308,1.7807,1.8347,1.8433,1.813,1.784,1.7714,1.7695,1.7471,1.7398,1.6771,1.2169,1.3284,1.6178,0.6732,0.2604,0.1737,0.1741,0.1742,0.1524,0.0436,0.0,0.0,0.0,0.0,0.0,0.0,0.0,0.0,0.0,0.0,0.0,0.0,0.0,0.0,0.0,0.0,0.0,0.0,0.0,0.0,0.0,0.0,0.0,0.0,0.0,0.0,0.0,0.0,0.0,0.0,0.1961,0.351,0.3569,0.2456,0.1801,0.1836,1.144,1.725,1.7268,1.8453,1.6114,0.9559,1.5859,1.9032,1.8999,1.8637,1.5556,1.0483,1.0372,1.2846,1.4919,1.5863,1.6891,1.7904,1.8969,0.0,0.0,2.385,2.535,2.6431,2.6873,2.7217,2.7935,2.7132,2.6749,2.7082,2.9185,3.0361,2.9236,3.0543,3.1165,2.9677,2.6978,2.4214,2.1517,2.0372,1.9146,1.7794,1.7807,1.7807,1.7807,1.7807,1.7807,1.7807,1.7807,1.7807,1.7807,1.7945,1.7945,1.7813,1.84,1.8446,1.8031,1.8473,1.8519,1.8229,1.8077,1.8024,1.7795,1.7734,1.4002,0.8683,0.8689,0.8699,0.784,0.2172,0.0,0.0,0.0,0.0,0.0,0.0,0.0,0.0,0.0,0.0,0.0,0.0,0.0,0.0,0.0,0.0,0.0,0.0,0.0,0.0,0.0,0.0,0.0,0.0,0.0,0.0,0.0,0.0,0.0,0.0,0.0,0.0,0.0,0.0,0.0,0.0,0.0,0.0,0.0,0.0,0.0,0.0,0.5934,0.9476,0.9618,0.946,0.8092,0.4786,1.4191,1.9071,1.9051,1.233,0.751,0.4508,1.0356,1.4637,1.6081,1.7481,1.9109,2.0659,2.1737,0.0,2.5312,2.6515,2.7476,2.8502,2.9073,2.9658,3.0593,3.0761,3.0904,3.1359,3.2203,3.3086,3.3904,3.3709,3.3051,3.121,2.8908,2.6148,2.339,2.1138,1.9566,1.8461,1.8235,1.8235,1.8235,1.8235,1.8235,1.8235,1.8235,1.8235,1.8235,1.8295,1.8295,1.8242,1.8591,1.8604,1.8334,1.8624,1.8637,1.8407,1.8295,1.8275,1.7822,1.6569,0.9683,0.0437,0.5222,0.4133,0.0,0.0,0.0,0.0,0.0,0.0,0.0,0.0,0.0,0.0,0.0,0.0,0.0,0.0,0.0,0.0,0.0,0.0,0.0,0.0,0.0,0.0,0.0,0.0,0.0,0.0,0.0,0.0,0.0,0.0,0.0,0.0,0.0,0.0,0.0,0.0,0.0,0.0,0.0,0.0,0.0,0.0,0.0,0.0,0.0,0.0,0.0,0.0,0.0,0.0,1.0074,1.5397,1.5349,0.5124,0.0,0.0223,0.9676,1.3997,1.937,2.0525,2.0783,2.1554,2.3062,0.0,2.8658,2.945,3.0294,3.2891,3.3475,3.3553,3.3683,3.3709,3.3722,3.3787,3.3904,3.3865,3.3488,3.38,3.4112,3.3754,3.4454,3.2506,2.6472,2.5951,2.3991,1.868,1.8235,1.8235,1.8235,1.8235,1.8235,1.8235,1.8235,1.8235,1.8235,1.8499,1.8499,1.8242,1.8782,1.8901,1.8637,1.8921,1.9046,1.9026,1.8519,1.8321,1.7848,1.2157,0.593,0.0,0.0657,0.0654,0.0,0.0,0.0,0.0,0.0,0.0,0.0,0.0,0.0,0.0,0.0,0.0,0.0,0.0,0.0,0.0,0.0,0.0,0.0,0.0,0.0,0.0,0.0,0.0,0.0,0.0,0.0,0.0,0.0,0.0,0.0,0.0,0.0,0.0,0.0,0.0,0.0,0.0,0.0,0.0,0.0,0.0,0.0,0.0,0.0,0.0,0.0,0.0,0.0,0.0,0.143,0.2145,0.2115,0.0703,0.0,0.0,0.1318,0.1961,2.0525,2.2067,2.3262,2.3509,0.0,0.0,2.8528,2.971,3.0852,3.2385,3.2956,3.319,3.319,3.319,3.319,3.319,3.3748,3.4099,3.3865,3.4332,3.4826,3.5163,3.2815,3.017,2.7797,2.4337,2.1474,1.8961,1.8736,1.8736,1.8736,1.8736,1.8736,1.8736,1.8736,1.8736,1.8736,1.8855,1.8855,1.8736,1.898,1.9026,1.8921,1.9066,1.9053,1.8908,1.49,1.1044,0.7513,0.4851,0.2186,0.0,0.0,0.0,0.0,0.0,0.0,0.0,0.0,0.0,0.0,0.0,0.0,0.0,0.0,0.0,0.0,0.0,0.0,0.0,0.0,0.0,0.0,0.0,0.0,0.0,0.0,0.0,0.0,0.0,0.0,0.0,0.0,0.0,0.0,0.0,0.0,0.0,0.0,0.0,0.0,0.0,0.0,0.0,0.0,0.0,0.0,0.0,0.0,0.0,0.0,0.0,0.0,0.0,0.0,0.0,0.0,0.0,0.0,0.0,0.0,0.0,2.1696,0.0,0.0,0.0,0.0,0.0,2.9086,3.0112,3.1073,3.2112,3.254,3.2761,3.2917,3.2943,3.2839,3.2527,3.3164,3.3761,3.393,3.4449,3.5111,3.5852,3.2606,2.9709,2.857,2.4207,2.0957,1.9086,1.9092,1.9092,1.9092,1.9092,1.9092,1.9092,1.9092,1.9092,1.9092,1.9092,1.9092,1.9092,1.9092,1.9099,1.9106,1.9066,1.7027,1.355,0.8787,0.4339,0.0,0.0,0.0,0.0,0.0,0.0,0.0,0.0,0.0,0.0,0.0,0.0,0.0,0.0,0.0,0.0,0.0,0.0,0.0,0.0,0.0,0.0,0.0,0.0,0.0,0.0,0.0,0.0,0.0,0.0,0.0,0.0,0.0,0.0,0.0,0.0,0.0,0.0,0.0,0.0,0.0,0.0,0.0,0.0,0.0,0.0,0.0,0.0,0.0,0.0,0.0,0.0,0.0,0.0,0.0,0.0,0.0,0.0,0.0,0.0,0.0,0.0,0.0,0.0,0.0,0.0,0.0,2.6879,2.7346,2.8255,3.1593,3.1528,3.1398,3.3644,3.3683,3.3475,3.4034,3.4125,3.3761,3.2657,3.2501,3.2722,3.3281,3.3852,3.4631,3.58,3.6217,3.4273,2.88,2.8157,2.5605,1.9558,1.9092,1.9092,1.9092,1.9092,1.9092,1.9092,1.9092,1.9092,1.9092,1.9092,1.9092,1.9092,1.9092,1.9112,1.9145,1.9122,1.2383,0.0466,0.0452,0.0221,0.0,0.0,0.0,0.0,0.0,0.0,0.0,0.0,0.0,0.0,0.0,0.0,0.0,0.0,0.0,0.0,0.0,0.0,0.0,0.0,0.0,0.0,0.0,0.0,0.0,0.0,0.0,0.0,0.0,0.0,0.0,0.0,0.0,0.0,0.0,0.0,0.0,0.0,0.0,0.0,0.0,0.0,0.0,0.0,0.0,0.0,0.0,0.0,0.0,0.0,0.0,0.0,0.0,0.0,0.0,0.0,0.0,0.0,0.0,0.0,0.0,0.0,0.0,0.0,2.4227,2.5191,2.6165,2.7139,2.8515,3.0034,3.1567,3.2203,3.2696,3.3462,3.3462,3.3281,3.3073,3.367,3.4047,3.367,3.3605,3.367,3.3865,3.441,3.4917,3.5319,3.409,3.2478,3.0414,2.6873,2.3846,2.1788,1.9912,1.9092,1.9092,1.9092,1.9092,1.9092,1.9092,1.9092,1.9092,1.9092,1.9106,1.9132,1.9132,1.9066,1.87,1.0178,0.3961,0.0,0.0,0.0,0.0,0.0,0.0,0.0,0.0,0.0,0.0,0.0,0.0,0.0,0.0,0.0,0.0,0.0,0.0,0.0,0.0,0.0,0.0,0.0,0.0,0.0,0.0,0.0,0.0,0.0,0.0,0.0,0.0,0.0,0.0,0.0,0.0,0.0,0.0,0.0,0.0,0.0,0.0,0.0,0.0,0.0,0.0,0.0,0.0,0.0,0.0,0.0,0.0,0.0,0.0,0.0,0.0,0.0,0.0,0.0,0.0,0.0,0.0,0.0,0.0,0.0,0.0,0.0,2.4767,2.5775,2.7061,2.8048,2.9697,3.1333,3.232,3.2787,3.3138,3.3553,3.3475,3.3281,3.3112,3.3683,3.4177,3.4177,3.4177,3.4177,3.4177,3.4514,3.4839,3.5047,3.3645,3.2181,3.1464,2.7104,2.3913,2.2782,2.0271,1.8829,1.8934,1.8941,1.8987,1.9086,1.9092,1.9092,1.9092,1.9106,1.9125,1.8921,1.6743,1.4523,1.204,0.3787,0.0,0.0,0.0,0.0,0.0,0.0,0.0,0.0,0.0,0.0,0.0,0.0,0.0,0.0,0.0,0.0,0.0,0.0,0.0,0.0,0.0,0.0,0.0,0.0,0.0,0.0,0.0,0.0,0.0,0.0,0.0,0.0,0.0,0.0,0.0,0.0,0.0,0.0,0.0,0.0,0.0,0.0,0.0,0.0,0.0,0.0,0.0,0.0,0.0,0.0,0.0,0.0,0.0,0.0,0.0,0.0,0.0,0.0,0.0,0.0,0.0,0.0,0.0,0.0,0.0,0.0,0.0,0.0,2.4806,2.61,2.7827,2.9515,3.0813,3.2099,3.3761,3.332,3.2865,3.3956,3.3748,3.354,3.4073,3.4177,3.4177,3.4177,3.4177,3.4177,3.4177,3.4177,3.4397,3.4969,3.5034,3.3933,3.1361,2.8569,2.5718,2.2622,1.9777,1.8361,1.8644,1.8657,1.8782,1.9059,1.9073,1.9079,1.9092,1.9132,1.8678,1.7953,1.1945,0.5971,0.0,0.0,0.0,0.0,0.0,0.0,0.0,0.0,0.0,0.0,0.0,0.0,0.0,0.0,0.0,0.0,0.0,0.0,0.0,0.0,0.0,0.0,0.0,0.0,0.0,0.0,0.0,0.0,0.0,0.0,0.0,0.0,0.0,0.0,0.0,0.0,0.0,0.0,0.0,0.0,0.0,0.0,0.0,0.0,0.0,0.0,0.0,0.0,0.0,0.0,0.0,0.0,0.0,0.0,0.0,0.0,0.0,0.0,0.0,0.0,0.0,0.0,0.0,0.0,0.0,0.0,0.0,0.0,0.0,0.0,2.5165,2.6697,2.832,2.9606,3.1099,3.2488,3.3358,3.3644,3.3826,3.4125,3.406,3.4008,3.4151,3.4177,3.4177,3.4177,3.4177,3.4177,3.4177,3.4177,3.4228,3.4384,3.441,3.3402,3.0555,2.7915,2.5298,2.2236,1.9648,1.8268,1.8347,1.8347,1.8479,1.8776,1.8782,1.8881,1.9086,1.9132,1.4336,0.4776,0.3106,0.1665,0.0,0.0,0.0,0.0,0.0,0.0,0.0,0.0,0.0,0.0,0.0,0.0,0.0,0.0,0.0,0.0,0.0,0.0,0.0,0.0,0.0,0.0,0.0,0.0,0.0,0.0,0.0,0.0,0.0,0.0,0.0,0.0,0.0,0.0,0.0,0.0,0.0,0.0,0.0,0.0,0.0,0.0,0.0,0.0,0.0,0.0,0.0,0.0,0.0,0.0,0.0,0.0,0.0,0.0,0.0,0.0,0.0,0.0,0.0,0.0,0.0,0.0,0.0,0.0,0.0,0.0,0.0,0.0,0.0,0.0,2.51,2.6905,2.8879,3.0021,3.158,3.3008,3.3579,3.3956,3.4177,3.4177,3.4177,3.4177,3.4177,3.4177,3.4177,3.4177,3.4177,3.4177,3.4177,3.4177,3.4177,3.4177,3.4177,3.3125,3.0176,2.7489,2.4868,2.209,1.9275,1.7912,1.8031,1.8044,1.8176,1.8473,1.8611,1.8756,1.8908,1.9073,1.4099,0.4061,0.1436,0.0,0.0,0.0,0.0,0.0,0.0,0.0,0.0,0.0,0.0,0.0,0.0,0.0,0.0,0.0,0.0,0.0,0.0,0.0,0.0,0.0,0.0,0.0,0.0,0.0,0.0,0.0,0.0,0.0,0.0,0.0,0.0,0.0,0.0,0.0,0.0,0.0,0.0,0.0,-0.4136,-0.7631,-0.7631,-0.3268,0.0,0.0,0.0,0.0,0.0,0.0,0.0,0.0,0.0,0.0,0.0,0.0,0.0,0.0,0.0,0.0,0.0,0.0,0.0,0.0,0.0,0.0,0.0,0.0,0.0,0.0,0.0,0.0,2.4482,2.6454,2.8596,3.0138,3.1943,3.3371,3.3943,3.4125,3.4177,3.4177,3.4177,3.4177,3.4177,3.4177,3.4177,3.4177,3.4177,3.4177,3.4177,3.4177,3.4177,3.4177,3.3959,3.2495,2.9761,2.6832,2.411,2.117,1.8639,1.7477,1.7721,1.7734,1.7873,1.8169,1.8426,1.8585,1.8631,1.8947,1.526,0.8097,0.2633,0.0,0.0,0.0,0.0,0.0,0.0,0.0,0.0,0.0,0.0,0.0,0.0,0.0,0.0,0.0,0.0,0.0,0.0,0.0,0.0,0.0,0.0,0.0,0.0,0.0,0.0,0.0,0.0,0.0,0.0,0.0,-0.0218,-0.109,-0.109,-0.1089,-0.1089,-0.1089,-0.1088,-0.1086,-0.9802,-1.7319,-1.7319,-0.8284,-0.1089,-0.1089,-0.1089,-0.1525,-0.2179,-0.2397,-0.1743,-0.0218,0.0,0.0,0.0,0.0,0.0,0.0,-0.1526,-0.2178,-0.2173,-0.0643,0.0,0.0,0.0,0.0,0.0,0.0,0.0,0.0,0.0,0.0,2.2627,2.364,2.4888,2.9071,3.1359,3.2774,3.3346,3.3839,3.4177,3.4177,3.4177,3.4177,3.4177,3.4177,3.4177,3.4177,3.4177,3.4177,3.4177,3.4177,3.4177,3.4177,3.2071,2.9553,2.6832,2.3899,2.117,1.8217,1.7587,1.7398,1.7444,1.7451,1.7576,1.786,1.7919,1.8084,1.8594,1.8465,1.2691,0.1642,0.0476,0.0,0.0,0.0,0.0,0.0,0.0,0.0,0.0,0.0,0.0,0.0,0.0,0.0,0.0,0.0,0.0,0.0,0.0,0.0,0.0,0.0,0.0,0.0,0.0,0.0,0.0,0.0,0.0,0.0,0.0,0.0,-0.1308,-0.6112,-0.7188,-0.7172,-0.7172,-0.7172,-0.7169,-0.7166,-1.2644,-1.73,-1.73,-1.1763,-0.7172,-0.7172,-0.7172,-0.8919,-1.3774,-1.4219,-1.0694,-0.109,0.0,0.0,0.0,0.0,0.0,0.0,-0.896,-1.396,-1.2904,-0.4481,0.0,0.0,0.0,0.0,0.0,0.0,0.0,0.0,0.0,0.0,2.1645,2.283,2.4129,2.8027,3.0761,3.2618,3.3203,3.3774,3.4099,3.38,3.3969,3.4177,3.4177,3.4177,3.4177,3.4177,3.4177,3.4177,3.4177,3.4177,3.4177,3.4177,3.1647,2.8919,2.6204,2.3265,2.0326,1.7587,1.7378,1.7378,1.7378,1.7378,1.7438,1.7569,1.7741,1.7906,1.807,1.1914,0.5768,0.0,0.0,0.0,0.0,0.0,0.0,0.0,0.0,0.0,0.0,0.0,0.0,0.0,0.0,0.0,0.0,0.0,0.0,0.0,0.0,0.0,0.0,0.0,0.0,-0.0653,-0.3697,-0.4566,-0.5222,-0.8284,-0.8943,-0.8287,-0.5443,-0.6756,-0.8943,-0.8716,-1.1112,-1.3294,-1.3294,-1.3294,-1.3289,-1.3274,-1.5481,-1.7261,-1.7261,-1.5037,-1.3274,-1.3294,-1.3294,-1.4182,-1.686,-1.4637,-1.0674,-0.522,-0.4566,-0.4566,-0.4566,-0.4566,-0.455,-0.4509,-1.2519,-1.6794,-1.5653,-0.8108,-0.4076,-0.3966,-0.4126,-0.4107,-0.4107,-0.6864,-0.8055,-0.8055,-0.2552,0.0,2.0166,2.1697,2.3507,2.688,2.9725,3.1956,3.2787,3.3501,3.3904,3.3579,3.3865,3.4177,3.4177,3.4177,3.4177,3.4177,3.4177,3.4177,3.4177,3.4177,3.4177,3.4177,3.1234,2.8294,2.5994,2.2639,1.9693,1.7372,1.7378,1.7378,1.7378,1.7378,1.7378,1.7378,1.7629,1.7095,1.597,0.5397,0.0,0.0,0.0,0.0,0.0,0.0,0.0,0.0,0.0,0.0,0.0,0.0,0.0,0.0,0.0,0.0,0.0,0.0,0.0,0.0,0.0,0.0,0.0,0.0,-0.1737,-0.4561,-0.9133,-1.0658,-1.1537,-1.5974,-1.6426,-1.4426,-1.0015,-1.3097,-1.619,-1.1741,-1.3939,-1.7261,-1.7261,-1.7261,-1.7254,-1.7222,-1.7215,-1.7215,-1.7215,-1.7215,-1.7222,-1.7261,-1.7261,-1.7267,-1.7274,-1.3289,-1.0654,-1.0658,-1.0658,-1.0658,-1.0658,-1.0621,-1.054,-1.061,-1.4655,-1.6035,-1.4063,-1.1116,-0.952,-0.9382,-0.9378,-0.9378,-0.9378,-1.3568,-1.4982,-1.378,-0.5488,-0.1764,1.6613,1.8943,2.1435,2.5071,2.7761,2.9814,3.1424,3.2631,3.354,3.4008,3.4138,3.4177,3.4177,3.4177,3.4177,3.4177,3.4177,3.4177,3.4177,3.4177,3.4177,3.4177,2.9553,2.6204,2.5784,2.0957,1.7587,1.7378,1.7378,1.7378,1.7378,1.7378,1.7378,1.7378,1.7444,1.4837,0.9581,0.3318,0.0,0.0,0.0,0.0,0.0,0.0,0.0,0.0,0.0,0.0,0.0,0.0,0.0,0.0,0.0,0.0,0.0,0.0,0.0,0.0,0.0,0.0,0.0,0.0,-0.7172,-1.5739,-1.6401,-1.6618,-1.6624,-1.7077,-1.3521,-0.935,-0.8909,-1.3078,-1.7274,-1.6746,-1.6948,-1.7391,-1.7391,-1.7391,-1.7385,-1.7385,-1.7385,-1.7385,-1.7385,-1.7385,-1.7385,-1.7385,-1.7391,-1.7405,-1.7228,-1.679,-1.6574,-1.6618,-1.6618,-1.6618,-1.6618,-1.66,-1.6447,-1.6422,-1.5966,-1.3598,-0.8663,-1.25,-1.4756,-1.4926,-1.4926,-1.4926,-1.4926,-1.5334,-1.3139,-0.84,-0.742,-0.7027,1.5223,1.6854,1.8964,2.3244,2.5452,2.7389,3.0341,3.1203,3.1631,3.2891,3.3151,3.3151,3.3151,3.3709,3.3956,3.3268,3.3735,3.4177,3.4177,3.2701,3.1647,3.1647,2.6623,2.3265,2.3265,1.9693,1.7378,1.7378,1.7378,1.7378,1.7378,1.7378,1.7391,1.7202,1.7241,1.2851,0.3473,0.1095,0.0,0.0,0.0,0.0,0.0,0.0,0.0,0.0,0.0,0.0,0.0,0.0,0.0,0.0,0.0,0.0,0.0,0.0,0.0,0.0,0.0,-0.239,-0.586,-0.9336,-1.349,-1.7248,-1.7222,-1.7215,-1.7222,-1.7248,-1.5697,-1.3928,-1.3928,-1.5691,-1.7235,-1.7391,-1.7378,-1.7378,-1.7378,-1.7378,-1.7378,-1.7378,-1.7378,-1.7378,-1.7378,-1.7378,-1.7378,-1.7378,-1.7378,-1.7385,-1.7398,-1.7405,-1.7196,-1.7209,-1.7053,-1.7161,-1.7161,-1.689,-1.6859,-1.6686,-1.6167,-1.4939,-1.2639,-1.4531,-1.547,-1.547,-1.547,-1.547,-1.547,-1.5496,-1.4512,-1.2523,-1.2533,-1.2538,1.4086,1.5711,1.7999,2.1653,2.4048,2.6433,2.9546,2.9969,3.0164,3.1878,3.2216,3.2216,3.2216,3.3008,3.321,3.1601,3.2193,3.2701,3.1865,2.9968,2.8711,2.8711,2.4522,2.1587,2.1587,1.9059,1.7378,1.7378,1.7378,1.7378,1.7378,1.7378,1.7398,1.7228,1.5709,1.0008,0.0,0.0,0.0,0.0,0.0,0.0,0.0,0.0,0.0,0.0,0.0,0.0,0.0,0.0,0.0,0.0,0.0,0.0,0.0,0.0,0.0,-0.0428,-0.385,-0.7727,-1.1866,-1.5781,-1.7144,-1.7202,-1.7385,-1.7378,-1.7385,-1.7196,-1.7209,-1.7209,-1.7209,-1.7293,-1.7154,-1.7121,-1.7115,-1.7115,-1.7115,-1.7115,-1.7115,-1.7115,-1.7115,-1.7115,-1.7115,-1.7115,-1.7115,-1.7115,-1.7115,-1.7115,-1.7115,-1.7115,-1.7115,-1.7115,-1.6923,-1.6798,-1.6798,-1.6534,-1.6284,-1.6093,-1.6007,-1.5862,-1.5638,-1.5625,-1.5625,-1.5625,-1.5625,-1.5625,-1.5625,-1.5464,-1.5477,-1.5477,-1.5496,-1.5503,1.2579,1.5892,1.9426,2.002,2.3784,2.7697,2.884,2.9099,2.958,3.1281,3.1644,3.1644,3.1644,3.2112,3.1488,2.889,2.9318,2.8919,2.6413,2.5994,2.5994,2.5994,2.3265,2.1587,2.1587,1.9059,1.7378,1.7378,1.7378,1.7378,1.7378,1.7378,1.7398,1.7228,1.1741,0.6079,0.0,0.0,0.0,0.0,0.0,0.0,0.0,0.0,0.0,0.0,0.0,0.0,0.0,0.0,0.0,0.0,0.0,0.0,0.0,0.0,0.0,-0.1653,-1.2639,-1.6577,-1.6575,-1.6786,-1.6955,-1.7378,-1.7378,-1.7378,-1.7378,-1.7378,-1.7378,-1.7378,-1.7378,-1.6937,-1.6495,-1.6495,-1.6495,-1.6495,-1.6495,-1.6495,-1.6495,-1.6495,-1.6495,-1.6495,-1.6495,-1.6495,-1.6495,-1.6495,-1.6495,-1.6495,-1.6495,-1.6495,-1.6495,-1.6495,-1.6495,-1.6488,-1.6488,-1.6238,-1.608,-1.608,-1.5796,-1.5631,-1.5625,-1.5625,-1.5625,-1.5625,-1.5625,-1.5625,-1.5625,-1.5625,-1.5625,-1.5625,-1.5625,-1.5625,1.2302,1.3566,1.5117,1.7044,1.9633,2.2159,2.3291,2.5328,2.712,2.7263,2.9365,3.0348,2.8261,2.7743,2.694,2.5527,2.6248,2.6832,2.5994,2.411,2.2851,2.2851,2.0326,1.8639,1.8639,1.7795,1.7378,1.7378,1.7378,1.7378,1.7378,1.7405,1.7228,1.7267,0.7819,0.1955,0.0,0.0,0.0,0.0,0.0,0.0,0.0,0.0,0.0,0.0,0.0,0.0,0.0,0.0,0.0,0.0,0.0,0.0,-0.0407,-0.4107,-0.7835,-1.1558,-1.5107,-1.6395,-1.6646,-1.6646,-1.6699,-1.6765,-1.6765,-1.6765,-1.6765,-1.6765,-1.6765,-1.6765,-1.6765,-1.6627,-1.6488,-1.6488,-1.6488,-1.6488,-1.6488,-1.6488,-1.6488,-1.6488,-1.6488,-1.6488,-1.6488,-1.6488,-1.6488,-1.6488,-1.6488,-1.6488,-1.6488,-1.6488,-1.6488,-1.6488,-1.6317,-1.6205,-1.6205,-1.5941,-1.577,-1.577,-1.5677,-1.5625,-1.5625,-1.5625,-1.5625,-1.5625,-1.5625,-1.5625,-1.5625,-1.5625,-1.5625,-1.5625,-1.5625,-1.5625,1.2321,1.2973,1.4162,1.5603,1.6794,1.8132,1.9352,2.2525,2.5173,2.5436,2.7991,2.9275,2.6366,2.5588,2.4951,2.3254,2.4112,2.4344,2.2799,2.0968,1.9763,1.9892,1.8431,1.7378,1.7378,1.7378,1.7378,1.7378,1.7378,1.7385,1.7398,1.7209,1.5253,1.0887,0.3691,0.0,0.0,0.0,0.0,0.0,0.0,0.0,0.0,0.0,0.0,0.0,0.0,0.0,-0.0196,-0.2156,-0.2939,-0.2939,-0.2969,-0.4173,-0.6173,-0.9467,-1.2956,-1.5816,-1.6004,-1.6056,-1.6337,-1.6337,-1.6403,-1.6488,-1.6488,-1.6488,-1.6488,-1.6488,-1.6488,-1.6436,-1.6218,-1.6159,-1.6159,-1.6159,-1.6159,-1.6159,-1.6159,-1.6159,-1.6159,-1.6159,-1.6159,-1.6159,-1.6159,-1.6159,-1.6159,-1.6159,-1.6159,-1.6159,-1.6159,-1.6159,-1.6159,-1.6159,-1.6007,-1.5908,-1.5908,-1.5737,-1.5625,-1.5625,-1.5625,-1.5625,-1.5625,-1.5625,-1.5625,-1.5625,-1.5625,-1.5625,-1.5625,-1.5625,-1.5625,-1.5625,-1.5625,-1.5625,1.2321,1.3706,1.5305,1.5321,1.5136,1.5451,1.7119,2.035,2.3429,2.4813,2.7051,2.7938,2.5249,2.5287,2.4736,2.2086,2.2348,2.1741,1.7408,1.6851,1.695,1.7246,1.7286,1.7299,1.7339,1.7345,1.7352,1.7378,1.7378,1.7398,1.7222,1.6561,1.1078,0.0434,0.0,0.0,0.0,0.0,0.0,0.0,0.0,0.0,0.0,0.0,0.0,-0.0,-0.04,-0.059,-0.0981,-0.629,-0.845,-0.8429,-0.8418,-1.1374,-1.5555,-1.5509,-1.5496,-1.549,-1.5638,-1.5809,-1.6047,-1.6047,-1.6218,-1.6422,-1.6422,-1.6422,-1.6422,-1.6422,-1.6422,-1.6304,-1.5763,-1.5625,-1.5625,-1.5625,-1.5625,-1.5625,-1.5625,-1.5625,-1.5625,-1.5625,-1.5625,-1.5625,-1.5625,-1.5625,-1.5625,-1.5625,-1.5625,-1.5625,-1.5625,-1.5625,-1.5625,-1.5625,-1.5625,-1.5625,-1.5625,-1.5625,-1.5625,-1.5625,-1.5625,-1.5625,-1.5625,-1.5625,-1.5625,-1.5625,-1.5818,-1.5818,-1.5818,-1.5818,-1.5818,-1.5818,-1.5625,-1.5625,1.2321,1.2663,1.3069,1.3293,1.3498,1.3934,1.4609,1.7078,1.9347,1.9618,2.2976,2.4555,2.0189,2.1233,2.1472,1.806,1.7523,1.7205,1.6425,1.608,1.604,1.6343,1.6383,1.6554,1.6996,1.7035,1.7128,1.7358,1.7196,1.7215,1.7228,0.8899,0.2821,0.0,0.0,0.0,0.0,0.0,0.0,0.0,0.0,0.0,0.0,0.0,0.0,-0.0207,-0.4707,-0.6724,-0.713,-1.227,-1.4544,-1.4514,-1.4521,-1.5028,-1.5987,-1.5737,-1.5644,-1.5638,-1.5631,-1.5671,-1.573,-1.573,-1.5776,-1.5829,-1.5829,-1.5829,-1.5829,-1.5829,-1.5829,-1.5796,-1.5664,-1.5625,-1.5625,-1.5625,-1.5625,-1.5625,-1.5625,-1.5625,-1.5625,-1.5625,-1.5625,-1.5625,-1.5625,-1.5625,-1.5625,-1.5625,-1.5625,-1.5625,-1.5625,-1.5625,-1.5625,-1.5625,-1.5625,-1.5625,-1.5625,-1.5625,-1.5625,-1.5625,-1.5625,-1.5625,-1.5625,-1.5625,-1.5625,-1.5625,-1.7532,-1.8484,-1.8484,-1.8484,-1.8484,-1.8484,-1.639,-1.5625,1.2321,1.2262,1.2368,1.2388,1.273,1.3133,1.3423,1.5552,1.7526,1.7527,2.0457,2.1883,1.8281,1.9555,2.0206,1.7379,1.6727,1.65,1.6005,1.5849,1.5895,1.6053,1.6192,1.6337,1.6521,1.6673,1.6824,1.6989,1.726,1.4906,0.9553,0.3393,0.0,0.0,0.0,0.0,0.0,0.0,0.0,0.0,0.0,0.0,0.0,0.0,-0.2925,-0.8153,-1.121,-1.2614,-1.2599,-1.5535,-1.6581,-1.6541,-1.6592,-1.6512,-1.6244,-1.5948,-1.5836,-1.5816,-1.5677,-1.5625,-1.5625,-1.5625,-1.5625,-1.5625,-1.5625,-1.5625,-1.5625,-1.5625,-1.5625,-1.5625,-1.5625,-1.5625,-1.5625,-1.5625,-1.5625,-1.5625,-1.5625,-1.5625,-1.5625,-1.5625,-1.5625,-1.5625,-1.5625,-1.5625,-1.5625,-1.5625,-1.5625,-1.5625,-1.5625,-1.5625,-1.5625,-1.5625,-1.5625,-1.5625,-1.5625,-1.5625,-1.5625,-1.5625,-1.7716,-1.9051,-1.9051,-1.9051,-1.9051,-1.9051,-2.038,-2.1142,-2.1142,-2.1142,-2.1142,-2.1142,-1.9625,-1.8484,1.2321,1.2401,1.2592,1.2361,1.248,1.273,1.3027,1.4739,1.6506,1.6699,1.8612,1.9549,1.7485,1.8706,1.9462,1.7493,1.7358,1.7114,1.5611,1.5717,1.5888,1.5934,1.6145,1.6231,1.6093,1.6525,1.6495,1.592,1.5753,1.1174,0.0619,0.0,0.0,0.0,0.0,0.0,0.0,0.0,0.0,0.0,0.0,0.0,-0.0,-0.1921,-0.8067,-1.7333,-1.7281,-1.7139,-1.6892,-1.6892,-1.666,-1.662,-1.6574,-1.6554,-1.6521,-1.6244,-1.6139,-1.6106,-1.5849,-1.5756,-1.575,-1.571,-1.5697,-1.5684,-1.5638,-1.5625,-1.5625,-1.5625,-1.5625,-1.5625,-1.5625,-1.5625,-1.5625,-1.6011,-1.5818,-1.5818,-1.6583,-1.639,-1.6197,-1.6576,-1.6769,-1.6769,-1.6769,-1.639,-1.6197,-1.6197,-1.5818,-1.5625,-1.5625,-1.5625,-1.5625,-1.5625,-1.5625,-1.5625,-1.6197,-1.6197,-1.639,-1.6769,-2.0761,-2.3219,-2.3219,-2.3219,-2.3219,-2.3219,-2.3597,-2.3786,-2.3786,-2.3786,-2.3786,-2.3786,-2.3408,-2.2083,1.2321,1.2559,1.2948,1.2902,1.2928,1.3034,1.333,1.3595,1.4037,1.4331,1.6259,1.7119,1.4791,1.6514,1.7287,1.4826,1.4933,1.516,1.4893,1.4946,1.5058,1.5295,1.5361,1.5565,1.6033,1.6119,1.5019,1.214,1.0308,0.66,0.0413,0.0,0.0,0.0,0.0,0.0,0.0,0.0,0.0,0.0,0.0,0.0,-0.0434,-1.0243,-1.5624,-1.7385,-1.7299,-1.726,-1.7246,-1.7246,-1.7246,-1.7213,-1.6963,-1.6864,-1.6831,-1.6534,-1.6429,-1.6416,-1.637,-1.6356,-1.6317,-1.6086,-1.6007,-1.5961,-1.5704,-1.5625,-1.5625,-1.5625,-1.5625,-1.5625,-1.5625,-1.5625,-1.6197,-1.8292,-1.7154,-1.6769,-2.1142,-2.038,-1.9434,-2.1523,-2.1893,-2.1893,-2.1893,-2.019,-1.8868,-1.8868,-1.6962,-1.5625,-1.5625,-1.5625,-1.5625,-1.5625,-1.5625,-1.639,-1.8676,-1.8868,-1.9816,-2.1893,-2.2652,-2.3219,-2.3219,-2.3219,-2.3219,-2.3219,-2.5292,-2.6405,-2.6405,-2.6405,-2.6405,-2.6405,-2.4163,-2.2851,1.2401,1.2717,1.2898,1.2898,1.3003,1.3304,1.3436,1.3587,1.3726,1.3851,1.4728,1.5071,1.4049,1.484,1.5228,1.4069,1.4108,1.4346,1.451,1.4801,1.5044,1.517,1.5328,1.548,1.5811,1.5789,1.5152,1.3676,0.7427,0.2611,0.0201,0.0,0.0,0.0,0.0,0.0,0.0,0.0,0.0,-0.0,-0.3204,-0.6406,-0.9548,-1.49,-1.7299,-1.7405,-1.7385,-1.7378,-1.7378,-1.7378,-1.7378,-1.7358,-1.7227,-1.7167,-1.7134,-1.6838,-1.6726,-1.6706,-1.6541,-1.6488,-1.6468,-1.6343,-1.6198,-1.6053,-1.5908,-1.8113,-2.0599,-2.0599,-2.0456,-2.0109,-2.0109,-1.9959,-1.9999,-2.1142,-2.0571,-2.038,-2.2652,-2.2273,-2.1703,-2.2841,-2.3219,-2.3219,-2.3219,-2.2282,-2.1523,-2.1523,-2.038,-1.9617,-1.9617,-1.9617,-1.9617,-1.9617,-1.9617,-2.019,-2.1332,-2.2642,-2.453,-2.6989,-2.7175,-2.7175,-2.7175,-2.7175,-2.7175,-2.7175,-2.849,-2.9059,-2.9059,-2.9059,-2.9059,-2.9059,-2.7746,-2.6417,1.1629,0.0,1.1633,1.2845,1.3235,1.3444,0.0,1.366,1.3878,1.3878,1.3878,1.3878,1.3878,1.3878,1.3878,1.3878,1.3878,1.3983,1.4286,1.4702,1.5011,1.5077,1.5354,1.5466,1.5464,1.436,1.3155,1.1995,0.4509,0.0,0.0,0.0,0.0,0.0,0.0,0.0,0.0,0.0,-0.1266,-0.4127,-0.8573,-1.3103,-1.7228,-1.7215,-1.7196,-1.7378,-1.7378,-1.7378,-1.7378,-1.7378,-1.7378,-1.7378,-1.7378,-1.7378,-1.7345,-1.7121,-1.7035,-1.7002,-1.7587,-1.771,-1.771,-1.771,-1.7514,-1.7449,-1.7969,-2.1285,-2.4905,-2.4905,-2.4666,-2.4211,-2.4211,-2.3973,-2.3686,-2.4157,-2.3747,-2.3727,-2.4749,-2.454,-2.4163,-2.4728,-2.4916,-2.4916,-2.4916,-2.4352,-2.3975,-2.3975,-2.3597,-2.3219,-2.3219,-2.3219,-2.3219,-2.3219,-2.3219,-2.3408,-2.3975,-2.6417,-2.8676,-3.0577,-3.0774,-3.0774,-3.0774,-3.0774,-3.0774,-3.0774,-3.0774,-3.0774,-3.0774,-3.0774,-3.0697,-3.058,-3.058,-2.9365,0.0,0.7405,0.8508,1.2615,1.3806,1.3804,1.3804,1.3749,0.0,1.3878,1.3878,1.3878,1.3878,1.3878,1.3878,1.3878,1.3878,1.3983,1.4286,1.4365,1.4491,1.4768,1.4891,1.5073,1.506,1.1019,0.6247,0.1564,0.0391,0.0,0.0,0.0,0.0,0.0,0.0,0.0,0.0,0.0,-0.5342,-1.5986,-1.6568,-1.698,-1.7228,-1.7398,-1.7378,-1.7378,-1.7378,-1.7378,-1.7378,-1.7378,-1.7378,-1.7378,-1.7378,-1.7378,-1.7372,-1.7352,-1.7345,-1.7553,-2.0264,-2.1301,-2.1301,-2.1301,-2.1057,-2.1316,-2.3573,-2.4487,-2.4905,-2.4905,-2.4885,-2.4856,-2.4856,-2.4836,-2.5298,-2.6995,-2.5742,-2.5059,-2.9368,-2.8305,-2.735,-2.964,-3.0208,-3.0208,-3.0208,-2.8305,-2.6779,-2.6779,-2.4718,-2.3219,-2.3219,-2.3219,-2.3219,-2.3219,-2.3219,-2.4163,-2.6592,-2.9059,-3.0577,-3.0761,-3.0774,-3.0774,-3.0774,-3.0774,-3.0774,-3.0774,-3.0774,-3.0774,-3.0774,-3.0774,-3.0502,-2.9995,-2.9995,-2.971,0.2981,0.694,1.1589,1.3378,1.1632,1.0346,1.3144,1.3813,1.3738,1.3884,1.3878,1.3878,1.3878,1.3878,1.3878,1.3878,1.3878,1.3917,1.4029,1.4372,1.4649,1.4591,1.4663,1.2401,0.6184,0.4083,0.215,0.0196,0.0,0.0,0.0,0.0,0.0,0.0,0.0,0.0,0.0,-0.4867,-1.068,-1.7261,-1.7209,-1.7405,-1.7398,-1.7385,-1.7378,-1.7378,-1.7378,-1.7378,0.0,-1.7378,-1.7378,-1.7378,-1.7378,-1.7378,-1.7378,-1.7378,-1.8431,-2.0113,-2.117,-2.2639,-2.4321,-2.4321,-2.421,-2.4214,-2.5018,-2.7731,-3.0651,-3.0651,-3.0413,-3.0164,-3.0164,-2.9926,-2.9824,-3.0604,-2.9973,-2.9731,-3.1483,-3.077,-3.0141,-3.1106,-3.1008,-3.0774,-3.0774,-2.9997,-2.9245,-2.9245,-2.8502,-2.7932,-2.7932,-2.7932,-2.7932,-2.7932,-2.7932,-2.8305,-2.9245,-3.0195,-3.0774,-3.0774,-3.0774,-3.0774,-3.0774,-3.0774,-3.0774,-3.0774,-3.0774,-3.0593,-3.0242,-3.0242,-2.9956,-2.9398,-2.9398,-2.9294,0.0,0.4631,0.9353,0.9353,0.9284,0.9949,1.3067,1.3736,1.381,1.3771,1.3719,1.3878,1.3878,1.3878,1.3878,1.3878,1.3878,1.3745,1.3849,1.4214,1.4507,1.4441,1.3272,0.9055,0.0775,0.0,0.0,0.0,0.0,0.0,0.0,0.0,0.0,0.0,0.0,-0.1701,-0.5346,-1.0672,-1.4832,-1.7228,-1.7398,-1.7378,-1.7378,-1.7378,-1.7378,-1.7378,-1.7378,-1.7378,-1.7378,-1.7378,-1.7378,-1.7378,-1.7378,-1.7378,-1.7372,-1.8217,-1.9907,-2.1799,-2.3688,-2.5574,-2.7041,-2.7041,-2.7668,-2.824,-2.7072,-3.031,-3.4177,-3.4177,-3.3904,-3.3605,-3.3605,-3.3307,-3.2969,-3.2787,-3.2748,-3.2644,-3.2281,-3.2047,-3.1839,-3.167,-3.132,-3.1047,-3.1047,-3.0891,-3.0774,-3.0774,-3.0774,-3.0774,-3.0774,-3.0774,-3.0774,-3.0774,-3.0774,-3.0774,-3.0774,-3.1485,-3.1852,-3.1852,-3.2557,-3.2908,-3.2908,-3.2727,-3.2254,-3.1542,-3.1381,-3.074,-2.9658,-2.9658,-2.9803,-3.009,-2.9901,-2.97,0.0,0.0,0.0,0.0,0.6801,1.3603,1.371,1.3749,1.3742,1.3714,1.3738,1.3878,1.3878,1.3878,1.3878,1.3878,1.3884,1.3823,1.38,1.3851,1.3965,1.4466,0.9991,0.5024,0.038,0.0,0.0,0.0,0.0,0.0,0.0,0.0,0.0,0.0,-0.0,-0.5562,-1.7102,-1.7261,-1.7228,-1.7228,-1.7398,-1.7378,-1.7378,-1.7378,-1.7378,-1.7378,-1.7378,-1.7378,-1.7378,-1.7378,-1.7378,-1.7378,-1.7378,-1.7372,-1.7801,-2.0539,-2.1587,-2.2427,-2.8086,-2.9968,-2.9968,-2.9968,-3.1853,-3.3754,-3.0808,-3.1865,-3.4177,-3.4177,-3.4177,-3.4177,-3.4177,-3.4177,-3.4034,-3.3475,-3.3346,-3.3034,-3.1904,-3.2099,-3.232,-3.1761,-3.1644,-3.1631,-3.1631,-3.1151,-3.0774,-3.0774,-3.0774,-3.0774,-3.0774,-3.0774,-3.0774,-3.0774,-3.0761,-3.0761,-3.0761,-3.2935,-3.439,-3.4375,-3.6653,-3.7882,-3.7866,-3.7018,-3.5597,-3.3519,-3.2733,-3.1257,-2.9248,-2.9248,-3.0236,-3.2214,-3.1578,-3.1106,0.0,0.0,0.0,0.0,0.2125,0.575,1.2308,1.1243,0.9862,1.3179,1.3738,1.3878,1.3878,1.3878,1.3878,1.3878,1.3727,1.3737,1.3832,1.1402,0.8242,0.4713,0.3051,0.1543,0.0194,0.0,0.0,0.0,0.0,0.0,0.0,0.0,0.0,0.0,-0.4102,-0.9742,-1.73,-1.7222,-1.7398,-1.7398,-1.7385,-1.7378,-1.7378,-1.7378,-1.7378,-1.7378,-1.7378,-1.7378,-1.7378,-1.7378,-1.7378,-1.7587,-1.9487,-2.0326,-2.0752,-2.3485,-2.5784,-2.7668,-2.9334,-3.1222,-3.2919,-3.2919,-3.3548,-3.3972,-3.3125,-3.3536,-3.4177,-3.4177,-3.4177,-3.4177,-3.4177,-3.4177,-3.4138,-3.3969,-3.393,-3.3826,-3.3501,-3.3242,-3.3034,-3.2865,-3.219,-3.1631,-3.1631,-3.1151,-3.0774,-3.0774,-3.0774,-3.0774,-3.0774,-3.0774,-3.0774,-3.0774,-3.3803,-3.5758,-3.5758,-3.6474,-3.6628,-3.597,-3.6622,-3.6747,-3.6097,-3.5874,-3.5424,-3.4745,-3.4559,-3.3899,-3.2942,-3.2942,-3.3016,-3.3177,-3.2975,-3.2773,-0.6915,-0.3486,0.0,0.0,0.0,0.1462,0.6954,0.77,0.8373,1.2879,1.3745,1.3878,1.3878,1.3878,1.3751,1.3882,1.3718,1.2463,0.8794,0.618,0.3433,0.0385,0.0,0.0,0.0,0.0,0.0,0.0,0.0,0.0,0.0,0.0,0.0,0.0,-0.5751,-1.1513,-1.6916,-1.7055,-1.7022,-1.7022,-1.7141,-1.72,-1.72,-1.7319,-1.7378,-1.7372,-1.8431,-1.9067,-1.9067,-2.0326,-2.0744,-2.0957,-2.2639,-2.3265,-2.3688,-2.6413,-2.8502,-3.0176,-3.1234,-3.2701,-3.4177,-3.4177,-3.3878,-3.3501,-3.3501,-3.3501,-3.3501,-3.3501,-3.3501,-3.3501,-3.3501,-3.3501,-3.3566,-3.3787,-3.3839,-3.3839,-3.3839,-3.3748,-3.3605,-3.3384,-3.2787,-3.2242,-3.2008,-3.1489,-3.1034,-3.08,-3.1498,-3.2218,-3.2218,-3.2922,-3.3621,-3.3621,-3.5642,-3.689,-3.689,-3.774,-3.8075,-3.7458,-3.8454,-3.8787,-3.8175,-3.7868,-3.737,-3.6534,-3.6089,-3.5402,-3.4175,-3.4175,-3.4447,-3.4967,-3.4967,-3.4967,-1.6733,-0.8722,-0.0871,-0.1525,-0.1525,-0.1285,-0.02,0.3917,0.8813,1.2969,1.3758,1.3884,1.3884,1.3732,1.3849,1.3794,1.3156,0.968,0.1136,0.0,0.0,0.0,0.0,0.0,0.0,0.0,0.0,0.0,0.0,0.0,0.0,0.0,0.0,0.0,-0.6188,-1.1763,-1.6554,-1.6515,-1.6488,-1.6488,-1.6759,-1.689,-1.6904,-1.738,-1.7506,-1.7714,-2.0657,-2.1911,-2.1911,-2.4629,-2.5666,-2.5666,-2.5875,-2.6084,-2.6292,-2.92,-3.0244,-3.0462,-3.3178,-3.4021,-3.4021,-3.4021,-3.332,-3.2476,-3.2476,-3.2476,-3.2476,-3.2476,-3.2476,-3.2476,-3.2657,-3.2851,-3.2983,-3.3522,-3.3653,-3.3653,-3.3454,-3.3859,-3.4271,-3.3558,-3.3216,-3.3206,-3.2865,-3.226,-3.1656,-3.1301,-3.3159,-3.4561,-3.4561,-3.6304,-3.7882,-3.8234,-3.6908,-3.5964,-3.5964,-3.7959,-3.9257,-3.9006,-4.1226,-4.2389,-4.2313,-4.1648,-4.0255,-3.8359,-3.767,-3.6403,-3.4281,-3.4346,-3.5447,-3.7282,-3.7282,-3.7282,-1.1696,-0.8699,-0.8048,-1.2446,-1.3557,-1.1157,-0.1996,0.6475,1.271,1.3554,1.3803,1.3758,1.3758,1.3772,1.3762,1.3832,0.7729,0.2261,0.019,0.0,0.0,0.0,0.0,0.0,0.0,0.0,0.0,0.0,0.0,0.0,0.0,0.0,0.0,0.0,-0.9486,-1.5088,-1.6343,-1.6508,-1.6488,-1.6488,-1.6554,-1.6581,-1.6587,-1.8672,-1.9514,-1.9719,-2.2352,-2.3569,-2.3569,-2.4176,-2.4368,-2.4772,-2.6783,-2.7584,-2.7994,-3.0814,-3.1828,-3.2025,-3.2629,-3.2839,-3.2839,-3.2839,-3.267,-3.2476,-3.2476,-3.2476,-3.2476,-3.2476,-3.2476,-3.2851,-3.4744,-3.5115,-3.5157,-3.5298,-3.5326,-3.4939,-3.3035,-3.4286,-3.5106,-3.3062,-3.2307,-3.2517,-3.4251,-3.3652,-3.338,-3.5001,-3.5223,-3.5241,-3.5241,-3.5582,-3.7445,-4.1197,-4.1232,-4.1012,-4.1012,-4.1517,-4.1399,-4.0747,-4.122,-4.1231,-4.0547,-4.1022,-4.0636,-3.9615,-4.0737,-4.084,-3.9564,-4.0346,-4.0505,-4.0363,-4.0363,-4.0363,-1.3296,-1.2763,-1.3521,-1.663,-1.5299,-1.2244,-0.9091,-0.0792,0.7769,1.2845,1.2054,1.1265,1.3457,1.3849,1.2262,0.7991,0.3172,0.0,0.0,0.0,0.0,0.0,0.0,0.0,0.0,0.0,0.0,0.0,0.0,0.0,0.0,0.0,-0.2216,-0.7244,-1.2898,-1.5933,-1.5907,-1.6086,-1.6073,-1.608,-1.6218,-1.629,-1.6499,-1.9026,-2.03,-2.0494,-2.4288,-2.6089,-2.6089,-2.7486,-2.8078,-2.8276,-2.9676,-3.0264,-3.0473,-3.1878,-3.2476,-3.2476,-3.2476,-3.2476,-3.2385,-3.1839,-3.1657,-3.1834,-3.2955,-3.3332,-3.3694,-3.4789,-3.5133,-3.5334,-3.6618,-3.6987,-3.6987,-3.6987,-3.7045,-3.6897,-3.5784,-3.6585,-3.7377,-3.6235,-3.5608,-3.5841,-3.6633,-3.6166,-3.6003,-3.6416,-3.72,-3.753,-3.7164,-3.7329,-3.8519,-4.115,-4.1307,-4.1307,-4.1307,-4.1307,-4.1117,-4.068,-4.1041,-4.1079,-4.0623,-4.142,-4.1667,-4.1212,-4.2085,-4.2332,-4.1895,-4.2332,-4.2313,-4.1895,-4.1895,-4.1667,-1.6714,-1.6974,-1.7209,-1.7267,-1.3733,-1.1384,-1.6219,-1.0679,-0.1965,0.6973,0.8464,0.9101,1.2133,1.195,0.9236,0.2373,0.056,0.0,0.0,0.0,0.0,0.0,0.0,0.0,0.0,0.0,0.0,0.0,0.0,0.0,0.0,-0.1779,-0.6671,-1.5341,-1.4731,-1.4694,-1.5625,-1.5625,-1.5625,-1.5631,-1.5882,-1.6,-1.6205,-1.9195,-2.0713,-2.1103,-2.6241,-2.8612,-2.8807,-3.1185,-3.2177,-3.2177,-3.2177,-3.2177,-3.2177,-3.2177,-3.2177,-3.2177,-3.2177,-3.2177,-3.2213,-3.1976,-3.2021,-3.2374,-3.4361,-3.5083,-3.5444,-3.7365,-3.7898,-3.8075,-3.8413,-3.859,-3.859,-3.859,-3.8852,-3.9095,-3.9095,-3.9214,-3.9244,-3.9244,-3.9244,-3.9254,-3.9208,-3.8997,-3.8706,-3.7879,-3.9367,-4.0152,-3.9332,-3.9914,-4.0206,-4.0206,-4.0054,-3.9978,-3.9978,-3.9978,-3.9978,-3.9978,-4.0642,-4.1117,-4.1269,-4.2383,-4.3143,-4.3143,-4.3754,-4.3972,-4.3836,-4.3972,-4.3972,-4.3836,-4.3836,-4.3446,-1.666,-1.697,-1.7082,-1.7163,-1.679,-1.6355,-1.7214,-1.6211,-1.4559,-1.2202,0.1452,1.1893,0.8576,0.4535,0.273,0.5628,0.2715,0.0,0.0,0.0,0.0,0.0,0.0,0.0,0.0,0.0,0.0,0.0,0.0,0.0,0.0,-0.8599,-1.4034,-1.5588,-1.1165,-1.0933,-1.5431,-1.5625,-1.5625,-1.5625,-1.5671,-1.5684,-1.5878,-2.0501,-2.2824,-2.3015,-2.8133,-3.0424,-3.0424,-3.0809,-3.0995,-3.0995,-3.0995,-3.0995,-3.0995,-3.0995,-3.0995,-3.0995,-3.0995,-3.0995,-3.1684,-3.5638,-3.7009,-3.7009,-3.7365,-3.7365,-3.7543,-3.7882,-3.7898,-3.8413,-4.0345,-4.0868,-4.0868,-4.0868,-4.0938,-4.1007,-4.1007,-3.9511,-3.8171,-3.8171,-3.8171,-3.8851,-4.0674,-4.047,-4.0683,-4.2574,-4.1858,-4.1063,-4.095,-4.0919,-4.1098,-4.1098,-4.0433,-3.9978,-3.9978,-3.9978,-3.9978,-3.9978,-4.0092,-4.049,-4.125,-4.386,-4.5218,-4.5218,-4.8661,-4.9881,-4.9201,-4.9881,-4.9859,-4.9201,-4.9201,-4.9137,-1.5809,-1.631,-1.6719,-1.6871,-1.6904,-1.6732,-1.647,-1.6329,-1.5905,-1.4866,-0.7785,-0.0713,0.2437,0.5707,0.6686,0.3499,0.1263,0.0,0.0,0.0,0.0,0.0,0.0,0.0,0.0,0.0,0.0,0.0,0.0,0.0,0.0,-0.4304,-0.8264,-1.103,-0.9007,-1.0355,-1.549,-1.5644,-1.5625,-1.5625,-1.5625,-1.5625,-1.5818,-2.0761,-2.3219,-2.3408,-2.8502,-3.0774,-3.0774,-3.0774,-3.0774,-3.0774,-3.0774,-3.1498,-3.2753,-3.2753,-3.3635,-3.4693,-3.4693,-3.4693,-3.5039,-3.7188,-3.7898,-3.8075,-3.947,-3.9804,-4.0171,-4.1425,-4.1789,-4.2135,-4.3016,-4.3359,-4.3359,-4.3359,-4.3359,-4.3359,-4.3359,-4.2481,-4.1789,-4.1789,-4.1789,-4.2135,-4.3187,-4.3066,-4.3055,-4.3647,-4.3129,-4.2673,-4.2673,-4.1857,-4.1458,-4.1933,-4.0775,-4.0168,-4.0661,-4.0263,-4.0187,-4.0661,-4.2314,-4.3562,-4.4455,-4.7345,-4.8935,-4.8935,-5.0565,-5.1261,-5.0826,-5.1261,-5.1239,-5.0826,-5.0826,-5.07,-1.5084,-1.5658,-1.6211,-1.6436,-1.6436,-1.6258,-1.5588,-1.5431,-1.5197,-1.4156,-1.3798,-1.0911,-0.1726,0.5644,0.8049,0.1043,0.0,0.0,0.0,0.0,0.0,0.0,0.0,0.0,0.0,0.0,0.0,0.0,0.0,0.0,0.0,0.0,-0.2946,-0.9461,-0.9808,-1.1555,-1.5529,-1.5477,-1.5638,-1.5625,-1.5625,-1.5818,-1.6769,-2.1142,-2.3408,-2.4352,-2.8874,-3.0774,-3.0774,-3.0774,-3.113,-3.1668,-3.1668,-3.3104,-3.5263,-3.5263,-3.6489,-3.8075,-3.9311,-3.9662,-3.9662,-3.9662,-3.9662,-4.0013,-4.1754,-4.229,-4.2653,-4.4441,-4.497,-4.497,-4.497,-4.497,-4.497,-4.497,-4.497,-4.497,-4.497,-4.497,-4.497,-4.497,-4.497,-4.497,-4.497,-4.497,-4.4761,-4.4154,-4.3888,-4.3831,-4.404,-4.2806,-4.2161,-4.2787,-4.1515,-4.0889,-4.1534,-4.1003,-4.1198,-4.2278,-4.4407,-4.6389,-4.7794,-5.0537,-5.2171,-5.2256,-5.2912,-5.307,-5.307,-5.307,-5.307,-5.307,-5.307,-5.2823,-1.4807,-1.5216,-1.5447,-1.6284,-1.629,-1.6014,-1.5704,-1.5249,-1.4801,-1.4479,-1.4073,-1.0992,-0.1782,0.0358,0.0532,0.0,0.0,0.0,0.0,0.0,0.0,0.0,0.0,0.0,0.0,0.0,0.0,0.0,0.0,0.0,0.0,0.0,-0.4717,-1.4861,-1.5216,-1.5373,-1.5529,-1.5509,-1.5477,-1.5625,-1.5625,-1.6769,-1.9243,-2.1893,-2.453,-2.6977,-2.9628,-3.0774,-3.0774,-3.0774,-3.2035,-3.4208,-3.4208,-3.5608,-3.7721,-3.7721,-3.7721,-3.8606,-4.3016,-4.463,-4.463,-4.463,-4.463,-4.463,-4.463,-4.48,-4.48,-4.48,-4.497,-4.497,-4.497,-4.497,-4.497,-4.497,-4.497,-4.497,-4.497,-4.497,-4.497,-4.497,-4.497,-4.497,-4.497,-4.497,-4.497,-4.4913,-4.4249,-4.404,-4.4818,-4.4173,-4.3641,-4.3698,-4.2939,-4.2427,-4.2465,-4.2446,-4.3327,-4.5293,-4.5645,-4.7013,-4.9821,-5.2094,-5.3643,-5.4435,-5.6578,-5.7584,-5.7584,-5.7584,-5.7584,-5.7584,-5.7584,-5.756,-1.4108,-1.4629,-1.5084,-1.5763,-1.5717,-1.5427,-1.5143,-1.486,-1.4396,-1.4129,-1.3836,-1.2843,-0.9526,-0.892,-0.6995,-0.1018,0.0,0.0,0.0,0.0,0.0,0.0,0.0,0.0,0.0,0.0,0.0,0.0,0.0,0.0,0.0,0.0,-0.1767,-0.5505,-0.8823,-1.0571,-1.0558,-1.3888,-1.5644,-1.5625,-1.5625,-1.6962,-1.9434,-2.2083,-2.453,-2.7164,-2.9628,-3.0774,-3.0761,-3.2401,-3.3664,-3.4556,-3.6132,-3.8059,-4.0171,-4.0171,-4.106,-4.2671,-4.427,-4.497,-4.497,-4.497,-4.497,-4.497,-4.497,-4.497,-4.497,-4.497,-4.497,-4.497,-4.497,-4.497,-4.497,-4.497,-4.497,-4.497,-4.497,-4.497,-4.497,-4.497,-4.497,-4.497,-4.497,-4.497,-4.497,-4.497,-4.4742,-4.4648,-4.4951,-4.5521,-4.5536,-4.4645,-4.583,-4.6442,-4.545,-4.6211,-4.7198,-4.8525,-4.9959,-5.1301,-5.2932,-5.5223,-5.6522,-5.6754,-5.756,-5.8461,-5.9668,-5.8436,-5.8586,-5.9668,-5.8461,-5.791,-1.3436,-1.4709,-1.5859,-1.6482,-1.6553,-1.6424,-1.6231,-1.5325,-1.428,-1.4108,-1.383,-1.3732,-1.3765,-1.3732,-1.0808,-0.1542,0.0,0.0,0.0,0.0,0.0,0.0,0.0,0.0,0.0,0.0,0.0,0.0,0.0,0.0,0.0,0.0,0.0,0.0,-0.3324,-0.6835,-1.0363,-1.3888,-1.5638,-1.5625,-1.5625,-1.639,-1.8292,-2.1514,-2.5104,-2.8305,-3.001,-3.0774,-3.0761,-3.2401,-3.4194,-3.5788,-3.7365,-3.9821,-4.2635,-4.2635,-4.3549,-4.497,-4.497,-4.497,-4.497,-4.497,-4.497,-4.497,-4.497,-4.546,-4.5779,-4.514,-4.5947,-4.6914,-4.6264,-4.66,-4.6934,-4.6264,-4.5947,-4.5779,-4.514,-4.497,-4.497,-4.497,-4.497,-4.497,-4.497,-4.497,-4.497,-4.497,-4.497,-4.514,-4.5947,-4.7529,-4.7875,-4.6205,-4.8266,-4.9535,-4.8552,-4.9309,-5.0311,-5.155,-5.3008,-5.4402,-5.5718,-5.7082,-5.791,-5.791,-5.791,-5.8858,-6.0609,-5.9399,-5.9814,-6.156,-6.0371,-5.9693,-1.3061,-1.5268,-1.7772,-1.8322,-1.877,-1.885,-1.8842,-1.6502,-1.4306,-1.4313,-1.4115,-1.3777,-1.3803,-1.3663,-1.068,-0.1397,0.0,0.0,0.0,0.0,0.0,0.0,0.0,0.0,0.0,0.0,0.0,0.0,0.0,0.0,0.0,0.0,0.0,0.0,-0.0196,-0.5082,-1.5529,-1.5509,-1.5671,-1.5625,-1.5625,-1.5625,-1.6011,-2.0943,-2.6053,-3.0774,-3.0774,-3.0774,-3.0774,-3.0946,-3.3621,-3.7898,-3.8059,-4.0903,-4.497,-4.497,-4.497,-4.497,-4.497,-4.497,-4.514,-4.514,-4.514,-4.514,-4.514,-4.658,-4.7872,-4.5779,-4.8223,-5.0975,-4.884,-4.9821,-5.0975,-4.884,-4.8347,-4.7706,-4.5629,-4.497,-4.497,-4.497,-4.497,-4.497,-4.497,-4.497,-4.497,-4.497,-4.497,-4.5779,-4.7852,-5.0167,-5.0652,-4.8512,-5.0308,-5.1639,-5.1617,-5.1617,-5.2573,-5.4614,-5.4769,-5.5765,-5.791,-5.791,-5.791,-5.791,-5.7861,-5.8808,-6.0676,-6.065,-6.1624,-6.3275,-6.3275,-6.3275,-1.5859,-1.5792,-1.5387,-1.7786,-1.6968,-1.5572,-1.5331,-1.4474,-1.3759,-1.3963,-1.395,-1.3745,-1.3797,-1.1154,-0.6962,-0.1048,0.0,0.0,0.0,0.0,0.0,0.0,0.0,0.0,0.0,0.0,0.0,0.0,0.0,0.0,0.0,0.0,0.0,0.0,-0.3715,-0.8797,-1.5529,-1.5477,-1.659,-1.8292,-1.8292,-1.9243,-2.1133,-2.453,-2.7735,-3.0774,-3.0774,-3.0774,-3.0946,-3.4512,-3.6637,-3.8252,-4.1598,-4.3739,-4.497,-4.497,-4.5947,-4.7228,-4.7228,-4.8368,-4.9679,-4.9679,-4.9679,-4.9679,-4.9679,-5.0167,-5.0491,-4.9842,-5.0491,-5.1318,-5.0814,-5.0975,-5.1297,-5.0814,-5.0652,-5.0491,-4.9842,-4.8368,-4.7228,-4.7228,-4.5928,-4.497,-4.497,-4.497,-4.497,-4.497,-4.6264,-4.7541,-4.8182,-5.0167,-5.1297,-5.0652,-5.388,-5.5481,-5.3834,-5.5303,-5.6449,-5.693,-5.7082,-5.7258,-5.791,-5.791,-5.791,-5.791,-5.8355,-5.9404,-6.1165,-6.0319,-6.0832,-6.2689,-6.1229,-6.0566,-1.4631,-1.5123,-1.5216,-1.71,-1.5658,-1.4216,-1.5263,-1.4511,-1.3528,-1.368,-1.3706,-1.3556,-1.345,-0.9861,-0.5385,-0.0698,0.0,0.0,0.0,0.0,0.0,0.0,0.0,0.0,0.0,0.0,0.0,0.0,0.0,0.0,0.0,0.0,0.0,0.0,-0.5077,-1.0359,-1.5516,-1.5464,-1.6769,-1.9434,-1.9434,-2.0761,-2.3229,-2.5844,-2.7723,-2.9245,-3.1288,-3.2218,-3.257,-3.6295,-3.8429,-3.9679,-4.2308,-4.4081,-4.4894,-4.4966,-4.6434,-4.8162,-4.8162,-4.8957,-5.0103,-5.0103,-5.0103,-5.0168,-5.0739,-5.1479,-5.2039,-5.1668,-5.2754,-5.4036,-5.3048,-5.3543,-5.4036,-5.3048,-5.289,-5.2573,-5.1639,-5.0491,-4.9658,-4.9658,-4.7727,-4.658,-4.7581,-4.6116,-4.546,-4.7415,-4.8697,-4.9983,-5.0749,-5.1275,-5.2256,-5.4036,-5.5635,-5.6425,-5.6095,-5.7258,-5.791,-5.791,-5.7471,-5.7203,-5.7203,-5.7473,-5.7636,-5.7636,-5.8583,-5.9949,-6.1809,-6.1128,-6.1694,-6.3523,-6.2351,-6.1613,-1.1359,-1.3801,-1.6235,-1.5878,-1.4468,-1.3729,0.0,-1.5117,-1.3653,-1.3495,-1.3337,-1.3357,-1.3116,-0.9353,-0.4819,-0.0695,0.0,0.0,0.0,0.0,0.0,0.0,0.0,0.0,0.0,0.0,0.0,0.0,0.0,0.0,0.0,0.0,0.0,0.0,-0.5627,-1.0878,-1.5399,-1.5552,-1.6876,-1.9749,-1.9749,-2.1287,-2.3975,-2.6417,-2.7537,-2.8083,-3.2529,-3.4556,-3.4903,-3.7286,-3.9319,-4.1197,-4.1506,-4.2743,-4.4683,-4.515,-4.6575,-4.8258,-4.8561,-4.8712,-4.8863,-4.8863,-4.8863,-4.9168,-5.0025,-5.1692,-5.3111,-5.2152,-5.4645,-5.707,-5.5082,-5.6068,-5.7046,-5.5082,-5.4575,-5.4159,-5.2395,-5.1783,-5.1668,-5.1755,-5.0146,-4.9168,-5.1136,-4.8223,-4.7022,-5.0855,-5.1471,-5.2104,-5.3958,-5.2981,-5.3541,-5.739,-5.6024,-5.5765,-5.7735,-5.7788,-5.7666,-5.7544,-5.6617,-5.6056,-5.6056,-5.6729,-5.7113,-5.7113,-5.8707,-6.0454,-6.2156,-6.2265,-6.3218,-6.4888,-6.4888,-6.4404,0.0,0.0,0.0,0.0,0.0,0.0,0.0,-1.1217,-1.3129,-1.3062,-1.3111,-1.3201,-1.365,-0.6896,-0.1138,-0.0169,0.0,0.0,0.0,0.0,0.0,0.0,0.0,0.0,0.0,0.0,0.0,0.0,0.0,0.0,0.0,0.0,0.0,0.0,-0.9171,-1.4448,-1.4985,-1.4952,-1.725,-2.2134,-2.2134,-2.4547,-2.9257,-2.9813,-3.1091,-3.3076,-3.4013,-3.5429,-3.7318,-3.9007,-3.9605,-3.9567,-4.1635,-4.2671,-4.3282,-4.4731,-4.6729,-4.8734,-5.0279,-5.1925,-5.3424,-5.3424,-5.3424,-5.3448,-5.3639,-5.4023,-5.4216,-5.4119,-5.4649,-5.5107,-5.4794,-5.4962,-5.5107,-5.4794,-5.4625,-5.4721,-5.512,-5.3866,-5.3008,-5.3831,-5.2234,-5.0975,-5.1457,-5.0814,-5.0457,-5.1414,-5.1488,-5.1637,-5.2085,-5.4021,-5.5609,-5.6421,-5.705,-5.7433,-5.791,-5.7081,-5.6178,-5.5323,-5.5079,-5.4933,-5.4933,-5.6326,-5.7113,-5.7113,-5.921,-6.0503,-6.0871,-6.1284,-6.2286,-6.3694,-6.3694,-6.4114,0.0,0.0,0.0,0.0,0.0,0.0,0.0,0.0,0.0,0.0,0.0,-0.9318,-0.7302,0.0,0.0,0.0,0.0,0.0,0.0,0.0,0.0,0.0,0.0,0.0,0.0,0.0,0.0,0.0,0.0,0.0,0.0,0.0,-0.111,-0.3876,-1.11,-1.501,-1.4794,-1.5855,-1.844,-2.2428,-2.3512,-2.6175,-2.993,-2.993,-3.0634,-3.1867,-3.2888,-3.4614,-3.6995,-3.8825,-3.9992,-4.074,-4.11,-4.1852,-4.2873,-4.4767,-4.6851,-4.8937,-5.0863,-5.2174,-5.303,-5.303,-5.303,-5.3127,-5.3664,-5.3835,-5.3957,-5.4494,-5.464,-5.464,-5.464,-5.464,-5.464,-5.464,-5.464,-5.4787,-5.5323,-5.4649,-5.4038,-5.4561,-5.2983,-5.1918,-5.2832,-5.3135,-5.3111,-5.3011,-5.2118,-5.1802,-5.2991,-5.3441,-5.383,-5.3816,-5.4347,-5.4665,-5.4665,-5.4152,-5.4054,-5.4591,-5.4128,-5.4204,-5.4959,-5.6129,-5.7098,-5.7994,-5.9921,-6.1174,-6.1921,-6.2152,-6.3023,-6.4327,-6.5008,-6.5674,0.0,0.0,0.0,0.0,0.0,0.0,0.0,0.0,0.0,0.0,0.0,0.0,0.0,0.0,0.0,0.0,0.0,-0.0712,-0.2503,-0.1088,0.0,0.0,0.0,0.0,0.0,0.0,0.0,0.0,0.0,0.0,0.0,0.0,-0.2738,-0.8762,-1.2424,-1.4442,-1.4603,-1.6728,-1.924,-2.1982,-2.4092,0.0,-2.9086,-2.9086,-2.9596,-3.0609,-3.2257,-3.4451,-3.7131,-3.8626,-4.0594,-4.2142,-4.0585,-4.0972,-4.2544,-4.485,-4.6722,-4.8328,-5.0723,-5.1577,-5.1577,-5.1577,-5.1577,-5.1724,-5.2444,-5.2737,0.0,-5.3762,-5.4006,-5.4006,-5.4006,-5.4286,-5.4401,-5.4146,-5.4261,-5.4475,-5.4415,-5.4323,-5.4372,-5.4591,-5.3303,-5.2701,-5.4331,-5.4274,-5.3884,-5.3444,-5.228,-5.197,-5.3166,-5.247,-5.1758,-5.1772,-5.1931,-5.2053,-5.2053,-5.1735,-5.2299,-5.4177,-5.3182,-5.3103,-5.4296,-5.5545,-5.6788,-5.811,-5.9907,-6.1715,-6.3343,-6.3659,-6.4429,-6.5643,-6.527,-6.5488,0.0,0.0,0.0,0.0,0.0,0.0,0.0,0.0,0.0,0.0,0.0,0.0,0.0,0.0,0.0,0.0,0.0,-0.2917,-1.1085,-0.5101,0.0,0.0,0.0,0.0,0.0,0.0,0.0,0.0,0.0,0.0,0.0,0.0,0.0,0.0,0.0,-1.3849,-1.3976,-1.6203,-1.875,-2.169,-2.3937,-2.6454,-2.9086,-2.9086,-3.1271,-3.4957,-3.5293,-3.781,-4.1802,-4.1232,-4.1088,-4.1326,-4.0357,-4.011,-4.0842,-4.4439,-4.5851,-4.6581,-5.027,0.0,0.0,-5.1577,-5.1577,-5.1577,-5.1699,-5.1748,-5.1773,-5.1895,-5.1809,-5.1809,-5.1809,-5.2937,-5.3544,-5.2188,-5.2912,-5.3822,-5.3393,-5.32,-5.3493,-5.4445,-5.4474,-5.4331,-5.464,-5.3054,-5.115,-4.9247,-5.0433,-5.0835,-4.9223,-5.1309,-5.2826,-5.2883,-5.3713,0.0,-5.4274,-5.2655,-5.2168,-5.3216,-5.1513,-5.0558,-5.0778,-5.3575,-5.5256,-5.5479,-5.8197,-6.0861,-6.3343,-6.4501,-6.5773,-6.6863,-6.0548,-5.8967,0.0,0.0,0.0,0.0,0.0,0.0,0.0,0.0,0.0,0.0,0.0,0.0,0.0,0.0,0.0,0.0,-0.4515,-0.7517,-0.6065,-0.2409,0.0,0.0,0.0,0.0,0.0,0.0,0.0,0.0,-0.261,-0.3997,-0.3991,-0.6599,-0.9735,-1.3598,-1.3745,-1.4406,-1.5755,-1.8113,-2.0545,-2.2924,-2.5313,-2.6991,-2.81,-2.81,-2.9889,-3.2788,-3.3929,-3.6363,-3.9426,-4.0199,-4.0509,-4.049,0.0,0.0,0.0,0.0,-4.386,-4.6298,-5.0134,-5.1577,-5.1686,-5.2562,-5.2299,-5.1819,-5.3786,-5.306,-5.1686,-5.2668,-5.2192,-5.1686,-5.2668,-5.3425,-5.3657,-5.306,-5.3425,-5.3552,-5.2385,-5.2102,-5.2224,-5.2688,-5.2785,0.0,-5.2785,-5.2029,-5.1259,-5.0223,-5.0858,-5.1126,-5.0223,-5.1272,-5.1639,-5.0394,-5.0662,-5.0906,-5.0906,-5.0176,0.0,0.0,0.0,-5.1143,-5.1309,-5.4192,0.0,0.0,0.0,-5.847,-5.9608,-5.9144,0.0,0.0,-5.8735,-5.7829,0.0,0.0,0.0,0.0,0.0,0.0,0.0,0.0,0.0,0.0,0.0,0.0,0.0,0.0,0.0,0.0,-0.946,-1.064,-0.1275,0.0,0.0,0.0,-0.2238,-0.278,-0.0172,0.0,-0.1043,-0.365,-0.6949,-0.8857,-0.8853,-1.2008,-1.3764,-1.3758,-1.4406,-1.5584,-1.7281,-2.0121,-2.2289,-2.3963,-2.6348,-2.7385,-2.7385,-2.7385,-2.8803,-3.1472,-3.2904,-3.5263,-3.7944,-3.9353,-3.9978,-3.9978,-3.9978,-3.9978,-4.0129,-4.0542,-4.2838,-4.6298,-5.0134,-5.1577,-5.1819,-5.3295,-5.2799,-5.206,-5.4907,-5.3786,-5.1686,-5.293,-5.2431,-5.1819,-5.293,-5.3915,-5.4273,-5.3425,-5.3915,-5.4043,-5.1927,-5.1577,-5.1577,-5.1577,-5.1577,-5.1577,-5.1577,-5.1577,-5.1357,-5.0638,-5.1053,-5.1357,-5.0638,-5.121,-5.0833,-4.9296,-4.9125,-4.9125,-4.9125,-4.9267,-4.9616,-5.0256,-5.1642,-5.2788,-5.3432,-5.474,-5.6393,-5.8176,-5.7424,-5.6916,0.0,0.0,0.0,0.0,0.0,0.0,0.0,0.0,0.0,0.0,0.0,0.0,0.0,0.0,0.0,0.0,0.0,0.0,0.0,0.0,0.0,0.0,0.0,0.0,-0.1339,0.0,0.0,0.0,-0.7973,-0.9804,-0.082,0.0,-0.365,-1.2746,-1.3451,-1.3618,-1.3598,-1.3771,-1.3751,-1.3884,-1.5918,-1.7281,-1.7281,-2.1631,-2.3797,-2.3963,-2.6348,-2.7385,-2.7385,-2.7385,-2.96,-3.3537,-3.3553,-3.6058,-3.9959,-3.9978,-3.9978,-3.9978,-3.9978,-3.9978,-4.026,-4.1974,-4.3984,-4.6298,-5.0134,-5.1577,-5.1819,-5.3295,-5.2799,-5.1819,-5.3425,-5.2799,-5.1577,-5.1552,-5.1552,-5.1577,-5.1552,-5.3915,-5.5509,-5.2299,-5.4043,-5.5384,-5.2192,-5.1577,-5.1577,-5.1577,-5.1577,-5.1577,-5.1577,-5.1577,-5.0736,-4.8661,-5.0101,0.0,-4.8612,-5.015,-5.1528,-5.1479,-5.1479,-5.1479,-5.1479,-5.198,-5.2157,-5.149,-5.3634,-5.5267,-5.6215,-5.4277,-5.3994,-5.5695,-5.6765,-5.7192,-5.696,0.0,0.0,0.0,0.0,0.0,0.0,0.0,0.0,0.0,0.0,0.0,0.0,0.0,0.0,0.0,0.0,0.0,0.0,0.0,0.0,0.0,0.0,0.0,0.0,0.0,-0.2313,-0.8416,-1.1269,-0.9405,-0.0783,-0.5529,-1.0367,-1.3589,-1.3733,-1.3738,-1.3732,-1.3732,-1.4578,-1.6089,-1.6941,-1.879,-2.1621,-2.3122,-2.4637,-2.6183,-2.7031,-2.7385,-2.7385,-2.8789,-3.1007,-3.3694,-3.5123,-3.7466,-3.9978,-3.9978,-3.9636,-3.9086,-3.8535,-3.8326,-3.8616,-4.0256,-4.2161,-4.4086,-4.6548,-4.8215,-4.9552,-5.1214,-5.0641,-4.9782,-5.2486,-5.1411,-4.9552,-5.0616,-5.0162,-4.9576,-5.0766,-5.1806,-5.2417,-5.1214,-5.2397,-5.3037,-5.0817,-5.0906,-5.1577,-5.1577,-4.9125,-4.7148,-4.7148,-4.8905,-4.9613,-4.7514,-4.9613,-5.1308,-5.0443,-5.098,-5.1577,-5.1577,-5.1577,-5.1577,-5.1577,-5.2713,-5.3011,-5.2078,-5.4468,-5.5795,-5.5551,-5.5618,-5.6054,-5.6858,-5.6395,-5.4969,-5.2565,0.0,0.0,0.0,0.0,0.0,0.0,0.0,0.0,0.0,0.0,0.0,0.0,0.0,0.0,0.0,0.0,0.0,0.0,0.0,0.0,0.0,0.0,0.0,0.0,0.0,0.0,-1.2502,-1.1284,0.0,-0.5067,-1.0122,-1.3793,-1.3771,-1.3781,-1.3734,-1.3613,-1.444,-1.5515,-1.672,-1.8504,-2.0731,-2.3537,-2.472,-2.5841,-2.7385,-2.7385,-2.7385,-2.7549,-2.9572,-3.1632,-3.3694,-3.5902,-3.8097,-3.994,-3.9332,-3.8112,-3.6613,-3.6091,-3.5238,-3.4758,-3.8098,-4.017,-4.1702,-4.5125,-4.7164,-4.8225,-4.8583,-4.7091,-4.5906,-4.9429,-4.7748,-4.5183,-4.7434,-4.7221,-4.6951,-4.9189,-5.0339,-5.0555,-4.9975,-5.0778,-5.1287,-4.9581,-4.9174,-4.9369,-5.015,-4.8051,-4.564,-4.4485,-4.6027,-4.6918,-4.5593,-4.7598,-4.9564,-5.0736,-5.1308,-5.1577,-5.1577,-5.206,-5.206,-5.1552,-5.3554,-5.4216,-5.2889,-5.5179,-5.6366,-5.5842,-5.6202,-5.6196,-5.5462,-5.4182,-5.2168,0.0,0.0,0.0,0.0,0.0,0.0,0.0,0.0,0.0,0.0,0.0,0.0,0.0,0.0,0.0,0.0,0.0,0.0,0.0,0.0,0.0,0.0,0.0,0.0,0.0,0.0,0.0,-1.1955,-0.8806,0.0,0.0,0.0,0.0,-1.378,-1.3656,-1.3367,-1.3208,-1.565,-1.6715,-1.6114,-2.0462,-2.297,-2.3187,-2.601,-2.7294,-2.7294,-2.7294,-2.7294,-2.7458,-2.9649,-3.1685,-3.3755,-3.5955,-3.8141,-3.9712,-3.8004,-3.5525,-3.3029,-3.2769,-3.0986,-2.917,-3.5455,-3.7824,-3.887,-4.5394,-4.778,-4.7439,-4.537,-4.2619,-4.0745,-4.4081,-4.1871,0.0,0.0,-4.2634,-4.3485,-4.6949,-4.8941,-4.9792,-4.8276,-4.9264,-5.002,-4.8374,-4.6441,-4.5565,-4.7439,-4.7707,-4.6535,-4.3226,0.0,-4.28,-4.2706,-4.3906,-4.5959,-4.9063,-5.0614,-5.1504,-5.1577,-5.2799,-5.3165,-5.1686,-5.4527,-5.5607,-5.4068,-5.5848,-5.6962,-5.6964,-5.5951,-5.4211,-5.1557,-5.0164,0.0,0.0,0.0,0.0,0.0,0.0,0.0,0.0,0.0,0.0,0.0,0.0,0.0,0.0,0.0,0.0,0.0,0.0,0.0,0.0,0.0,0.0,0.0,0.0,0.0,0.0,-1.0343,-1.153,-1.2141,-1.1345,-0.8765,0.0,0.0,0.0,0.0,0.0,0.0,-1.2414,-1.3141,-1.4854,-1.7757,-1.9084,-2.1312,-2.4921,-2.5723,-2.6113,-2.6113,-2.6113,-2.6867,-2.8207,-3.0293,-3.2406,-3.4393,-3.6486,-3.7685,-3.7947,-3.4629,-3.2771,-3.1709,-2.8974,-2.7354,-2.7035,-3.0009,-3.166,-3.3346,-3.8834,-4.1303,-4.2066,-4.1497,-4.0751,-3.9759,-3.8204,0.0,0.0,0.0,0.0,-3.6621,-4.0975,-4.2457,-4.2931,-4.3815,-4.5907,-4.7246,-4.5597,-4.6333,-4.6368,-4.2774,-4.0745,-3.8675,-3.5356,-3.672,0.0,-3.6178,-4.0261,-4.4216,-4.5935,-4.8491,-5.0516,-5.1479,-5.1819,-5.2431,-5.3165,-5.4043,-5.5014,-5.6068,-5.6699,-5.6654,-5.597,-5.3867,-5.1599,-4.9173,0.0,0.0,0.0,0.0,0.0,0.0,0.0,0.0,0.0,0.0,0.0,0.0,0.0,0.0,0.0,0.0,0.0,0.0,0.0,0.0,0.0,0.0,0.0,0.0,0.0,0.0,0.0,-1.2286,-1.1634,-1.0092,-0.8129,-0.5128,0.0,0.0,0.0,0.0,0.0,0.0,0.0,0.0,0.0,-1.6802,-1.7535,-1.914,-2.1878,-2.3324,-2.3982,-2.3995,-2.5993,-2.6996,-2.7301,-3.1133,-3.29,-3.3338,-3.6297,-3.5942,-3.3109,-3.0838,-2.8856,-2.7049,0.0,0.0,0.0,0.0,-2.7045,-2.8379,-3.3389,-3.5536,-3.5936,-3.4971,0.0,0.0,0.0,0.0,0.0,0.0,0.0,-3.4127,-3.881,-4.11,-4.2438,-4.3345,-4.4703,-4.564,-4.4628,-4.2987,-4.0793,-3.8354,-3.6763,-3.4936,-3.1573,-3.2445,0.0,0.0,0.0,-4.1001,-4.3224,-4.6822,-4.9515,-5.0565,-5.1473,-5.2402,-5.3735,-5.3934,-5.4966,-5.6817,-5.5842,-5.4814,-5.388,-5.1503,-4.8468,0.0,0.0,0.0,0.0,0.0,0.0,0.0,0.0,0.0,0.0,0.0,0.0,0.0,0.0,0.0,0.0,0.0,0.0,0.0,0.0,0.0,0.0,0.0,0.0,0.0,0.0,0.0,0.0,0.0,-1.1025,-0.7854,0.0,0.0,0.0,0.0,0.0,0.0,0.0,0.0,0.0,0.0,0.0,0.0,0.0,-1.6834,-1.7359,-1.9795,-2.1011,-2.1022,-2.4983,-2.6109,-2.5269,-3.031,-3.1988,-3.1272,-3.4556,0.0,-2.7724,-2.7224,0.0,0.0,0.0,0.0,0.0,0.0,0.0,0.0,0.0,0.0,0.0,0.0,0.0,0.0,0.0,0.0,0.0,0.0,0.0,0.0,0.0,0.0,-4.3358,-4.3266,-4.3574,-4.3811,-4.3266,-3.7603,-3.2947,-3.3651,-3.3818,-3.2815,0.0,0.0,0.0,0.0,0.0,0.0,-4.0513,-4.5039,-4.8417,-4.9442,-5.0917,-5.2177,-5.3402,-5.3514,-5.4501,-5.6401,-5.3806,-5.1924,-5.1318,-4.8945,0.0,0.0,0.0,0.0,0.0,0.0,0.0,0.0,0.0,0.0,0.0,0.0,0.0,0.0,0.0,0.0,0.0,0.0,0.0,0.0,0.0,0.0,0.0,0.0,0.0,0.0,0.0,0.0,0.0,0.0,0.0,0.0,0.0,0.0,0.0,0.0,0.0,0.0,0.0,0.0,0.0,0.0,0.0,0.0,0.0,0.0,0.0,0.0,0.0,0.0,-1.8019,-1.9628,-2.2033,-2.303,-2.5275,-2.8423,-2.8126,-2.8009,-2.7577,-2.4037,0.0,0.0,0.0,0.0,0.0,0.0,0.0,0.0,0.0,0.0,0.0,0.0,0.0,0.0,0.0,0.0,0.0,0.0,0.0,0.0,0.0,0.0,-3.5015,-3.4683,-3.7043,-3.8255,-3.4324,0.0,0.0,0.0,0.0,0.0,0.0,0.0,0.0,0.0,0.0,0.0,-3.7264,-4.299,-4.7343,-4.8393,-4.8767,-4.9541,-5.1119,-5.0186,-5.0768,-5.3859,-4.9667,-4.7682,0.0,0.0,0.0,0.0,0.0,0.0,0.0,0.0,0.0,0.0,0.0,0.0,0.0,0.0,0.0,0.0,0.0,0.0,0.0,0.0,0.0,0.0,0.0,0.0,0.0,0.0,0.0,0.0,0.0,0.0,0.0,0.0,0.0,0.0,0.0,0.0,0.0,0.0,0.0,0.0,0.0,0.0,0.0,0.0,0.0,0.0,0.0,0.0,0.0,0.0,0.0,0.0,0.0,0.0,0.0,0.0,0.0,0.0,-2.2246,-2.088,0.0,0.0,0.0,0.0,0.0,0.0,0.0,0.0,0.0,0.0,0.0,0.0,0.0,0.0,0.0,0.0,0.0,0.0,0.0,0.0,0.0,0.0,0.0,0.0,0.0,0.0,0.0,0.0,0.0,0.0,0.0,0.0,0.0,0.0,0.0,0.0,0.0,0.0,0.0,0.0,-3.562,-4.1643,-4.6196,-4.7295,-4.7417,-4.8326,-5.0503,-4.8964,-4.8609,-5.0457,-4.7229,0.0,0.0,0.0,0.0,0.0,0.0,0.0,0.0,0.0,0.0,0.0,0.0,0.0,0.0,0.0,0.0,0.0,0.0,0.0,0.0,0.0,0.0,0.0,0.0,0.0,0.0,0.0,0.0,0.0,0.0,0.0,0.0,0.0,0.0,0.0,0.0,0.0,0.0,0.0,0.0,0.0,0.0,0.0,0.0,0.0,0.0,0.0,0.0,0.0,0.0,0.0,0.0,0.0,0.0,0.0,0.0,0.0,0.0,0.0,-1.7604,-1.4933,0.0,0.0,0.0,0.0,0.0,0.0,0.0,0.0,0.0,0.0,0.0,0.0,0.0,0.0,0.0,0.0,0.0,0.0,0.0,0.0,0.0,0.0,0.0,0.0,0.0,0.0,0.0,0.0,0.0,0.0,0.0,0.0,0.0,0.0,0.0,0.0,0.0,0.0,0.0,0.0,-3.4423,-4.0639,-4.522,-4.5879,-4.5952,-4.6844,-4.8953,-4.7517,-4.6612,-4.7119,-4.4725,0.0,0.0,0.0,0.0,0.0,0.0,0.0,0.0,0.0,0.0,0.0,0.0,0.0,0.0,0.0,0.0,0.0,0.0,0.0,0.0,0.0,0.0,0.0,0.0,0.0,0.0,0.0,0.0,0.0,0.0,0.0,0.0,0.0,0.0,0.0,0.0,0.0,0.0,0.0,0.0,0.0,0.0,0.0,0.0,0.0,0.0,0.0,0.0,0.0,0.0,0.0,0.0,0.0,0.0,0.0,0.0,0.0,0.0,0.0,0.0,0.0,0.0,0.0,0.0,0.0,0.0,0.0,0.0,0.0,0.0,0.0,0.0,0.0,0.0,0.0,0.0,0.0,0.0,0.0,0.0,0.0,0.0,0.0,0.0,0.0,0.0,0.0,0.0,0.0,0.0,0.0,0.0,0.0,0.0,0.0,0.0,0.0,0.0,0.0,0.0,0.0,-3.3225,-4.0118,-4.4635,-4.3756,-4.3683,-4.3707,-4.4032,-4.3999,-4.404,-4.4354,0.0,0.0,0.0,0.0,0.0,0.0,0.0,0.0,0.0,0.0,0.0,0.0,0.0,0.0,0.0,0.0,0.0,0.0,0.0,0.0,0.0,0.0,0.0,0.0,0.0,0.0,0.0,0.0,0.0,0.0,0.0,0.0,0.0,0.0,0.0,0.0,0.0,0.0,0.0,0.0,0.0,0.0,0.0,0.0,0.0,0.0,0.0,0.0,0.0,0.0,0.0,0.0,0.0,0.0,0.0,0.0,0.0,0.0,0.0,0.0,0.0,0.0,0.0,0.0,0.0,0.0,0.0,0.0,0.0,0.0,0.0,0.0,0.0,0.0,0.0,0.0,0.0,0.0,0.0,0.0,0.0,0.0,0.0,0.0,0.0,0.0,0.0,0.0,0.0,0.0,0.0,0.0,0.0,0.0,0.0,0.0,0.0,0.0,0.0,0.0,0.0,0.0,-3.406,-4.0503,-4.4689,-4.4366,-4.3756,-4.3366,-4.3366,-4.2188,-4.1048,-3.9827,0.0,0.0,0.0,0.0,0.0,0.0,0.0,0.0,0.0,0.0,0.0,0.0,0.0,0.0,0.0,0.0,0.0,0.0,0.0,0.0,0.0,0.0,0.0,0.0,0.0,0.0,0.0,0.0,0.0,0.0,0.0,0.0,0.0,0.0,0.0,0.0,0.0,0.0,0.0,0.0,0.0,0.0,0.0,0.0,0.0,0.0,0.0,0.0,0.0,0.0,0.0,0.0,0.0,0.0,0.0,0.0,0.0,0.0,0.0,0.0,0.0,0.0,0.0,0.0,0.0,0.0,0.0,0.0,0.0,0.0,0.0,0.0,0.0,0.0,0.0,0.0,0.0,0.0,0.0,0.0,0.0,0.0,0.0,0.0,0.0,0.0,0.0,0.0,0.0,0.0,0.0,0.0,0.0,0.0,0.0,0.0,0.0,0.0,0.0,0.0,0.0,0.0,-3.2836,-3.955,-4.3983,-4.3358,-4.2978,-4.278,-4.2463,-4.1023,-3.9139,-3.6609,0.0,0.0,0.0,0.0,0.0,0.0,0.0,0.0,0.0,0.0,0.0,0.0,0.0,0.0,0.0,0.0,0.0,0.0,0.0,0.0,0.0,0.0,0.0,0.0,0.0,0.0,0.0,0.0,0.0,0.0,0.0,0.0,0.0,0.0,0.0,0.0,0.0,0.0,0.0,0.0,0.0,0.0,0.0,0.0,0.0,0.0,0.0,0.0,0.0,0.0,0.0,0.0,0.0,0.0,0.0,0.0,0.0,0.0,0.0,0.0,0.0,0.0,0.0,0.0,0.0,0.0,0.0,0.0,0.0,0.0,0.0,0.0,0.0,0.0,0.0,0.0,0.0,0.0,0.0,0.0,0.0,0.0,0.0,0.0,0.0,0.0,0.0,0.0,0.0,0.0,0.0,0.0,0.0,0.0,0.0,0.0,0.0,0.0,0.0,0.0,0.0,0.0,-2.8692,-3.6773,-4.174,-3.957,-4.0856,-4.1364,-4.0395,-4.0298,-3.8808,0.0,0.0,0.0,0.0,0.0,0.0,0.0,0.0,0.0,0.0,0.0,0.0,0.0,0.0,0.0,0.0,0.0,0.0,0.0,0.0,0.0,0.0,0.0,0.0,0.0,0.0,0.0,0.0,0.0,0.0,0.0,0.0,0.0,0.0,0.0,0.0,0.0,0.0,0.0,0.0,0.0,0.0,0.0,0.0,0.0,0.0,0.0,0.0,0.0,0.0,0.0,0.0,0.0,0.0,0.0,0.0,0.0,0.0,0.0,0.0,0.0,0.0,0.0,0.0,0.0,0.0,0.0,0.0,0.0,0.0,0.0,0.0,0.0,0.0,0.0,0.0,0.0,0.0,0.0,0.0,0.0,0.0,0.0,0.0,0.0,0.0,0.0,0.0,0.0,0.0,0.0,0.0,0.0,0.0,0.0,0.0,0.0,0.0,0.0,0.0,0.0,0.0,0.0,-3.0084,-3.4987,-3.8572,-3.9452,-3.9425,-3.9531,-4.0193,-3.9461,-3.7597,-3.4287,0.0,0.0,0.0,0.0,0.0,0.0,0.0,0.0,0.0,0.0,0.0,0.0,0.0,0.0,0.0,0.0,0.0,0.0,0.0,0.0,0.0,0.0,0.0,0.0,0.0,0.0,0.0,0.0,0.0,0.0,0.0,0.0,0.0,0.0,0.0,0.0,0.0,0.0,0.0,0.0,0.0,0.0,0.0,0.0,0.0,0.0,0.0,0.0,0.0,0.0,0.0,0.0,0.0,0.0,0.0,0.0,0.0,0.0,0.0,0.0,0.0,0.0,0.0,0.0,0.0,0.0,0.0,0.0,0.0,0.0,0.0,0.0,0.0,0.0,0.0,0.0,0.0,0.0,0.0,0.0,0.0,0.0,0.0,0.0,0.0,0.0,0.0,0.0,0.0,0.0,0.0,0.0,0.0,0.0,0.0,0.0,0.0,0.0,0.0,0.0,0.0,0.0,0.0,-3.3154,-3.6323,-3.7962,-3.8124,-3.8453,-3.9456,-3.89,-3.687,-3.3249,0.0,0.0,0.0,0.0,0.0,0.0,0.0,0.0,0.0,0.0,0.0,0.0,0.0,0.0,0.0,0.0,0.0,0.0,0.0,0.0,0.0,0.0,0.0,0.0,0.0,0.0,0.0,0.0,0.0,0.0,0.0,0.0,0.0,0.0,0.0,0.0,0.0,0.0,0.0,0.0,0.0,0.0,0.0,0.0,0.0,0.0,0.0,0.0,0.0,0.0,0.0,0.0,0.0,0.0,0.0,0.0,0.0,0.0,0.0,0.0,0.0,0.0,0.0,0.0,0.0,0.0,0.0,0.0,0.0,0.0,0.0,0.0,0.0,0.0,0.0,0.0,0.0,0.0,0.0,0.0,0.0,0.0,0.0,0.0,0.0,0.0,0.0,0.0,0.0,0.0,0.0,0.0,0.0,0.0,0.0,0.0,0.0,0.0,0.0,0.0,0.0,0.0,0.0,-3.1426,-3.4888,-3.5378,-3.6968,-3.81,-3.8482,-3.8485,-3.6572,-3.211,-3.3016,0.0,0.0,0.0,0.0,0.0,0.0,0.0,0.0,0.0,0.0,0.0,0.0,0.0,0.0,0.0,0.0,0.0,0.0,0.0,0.0,0.0,0.0,0.0,0.0,0.0,0.0,0.0,0.0,0.0,0.0,0.0,0.0,0.0,0.0,0.0,0.0,0.0,0.0,0.0,0.0,0.0,0.0,0.0,0.0,0.0,0.0,0.0,0.0,0.0,0.0,0.0,0.0,0.0,0.0,0.0,0.0,0.0,0.0,0.0,0.0,0.0,0.0,0.0,0.0,0.0,0.0,0.0,0.0,0.0,0.0,0.0,0.0,0.0,0.0,0.0,0.0,0.0,0.0,0.0,0.0,0.0,0.0,0.0,0.0,0.0,0.0,0.0,0.0,0.0,0.0,0.0,0.0,0.0,0.0,0.0,0.0,0.0,0.0,0.0,0.0,0.0,0.0,-2.9393,-3.1766,-3.4257,-3.5907,-3.7175,-3.8409,-3.8485,-3.6572,-3.211,-3.3016,0.0,0.0,0.0,0.0,0.0,0.0,0.0,0.0,0.0,0.0,0.0,0.0,0.0,0.0,0.0,0.0,0.0,0.0,0.0,0.0,0.0,0.0,0.0,0.0,0.0,0.0,0.0,0.0,0.0,0.0,0.0,0.0,0.0,0.0,0.0,0.0,0.0,0.0,0.0,0.0,0.0,0.0,0.0,0.0,0.0,0.0,0.0,0.0,0.0,0.0,0.0,0.0,0.0,0.0,0.0,0.0,0.0,0.0,0.0,0.0,0.0,0.0,0.0,0.0,0.0,0.0,0.0,0.0,0.0,0.0,0.0,0.0,0.0,0.0,0.0,0.0,0.0,0.0,0.0,0.0,0.0,0.0,0.0,0.0,0.0,0.0,0.0,0.0,0.0,0.0,0.0,0.0,0.0,0.0,0.0,0.0,0.0,0.0,0.0,0.0,0.0,0.0,-2.6631,-2.9364,-3.3739,-3.4914,-3.6171,-3.8284,-3.8485,-3.6572,-3.211,-3.2462,0.0,0.0,0.0,0.0,0.0,0.0,0.0,0.0,0.0,0.0,0.0,0.0,0.0,0.0,0.0,0.0,0.0,0.0,0.0,0.0,0.0,0.0,0.0,0.0,0.0,0.0,0.0,0.0,0.0,0.0,0.0,0.0,0.0,0.0,0.0,0.0,0.0,0.0,0.0,0.0,0.0,0.0,0.0,0.0,0.0,0.0,0.0,0.0,0.0,0.0,0.0,0.0,0.0,0.0,0.0,0.0,0.0,0.0,0.0,0.0,0.0,0.0,0.0,0.0,0.0,0.0,0.0,0.0,0.0,0.0,0.0,0.0,0.0,0.0,0.0,0.0,0.0,0.0,0.0,0.0,0.0,0.0,0.0,0.0,0.0,0.0,0.0,0.0,0.0,0.0,0.0,0.0,0.0,0.0,0.0,0.0,0.0,0.0,0.0,0.0,0.0,0.0,0.0,-2.7482,-3.2673,-3.376,-3.5313,-3.7958,-3.816,-3.6349,-3.2088,0.0,0.0,0.0,0.0,0.0,0.0,0.0,0.0,0.0,0.0,0.0,0.0,0.0,0.0,0.0,0.0,0.0,0.0,0.0,0.0,0.0,0.0,0.0,0.0,0.0,0.0,0.0,0.0,0.0,0.0,0.0,0.0,0.0,0.0,0.0,0.0,0.0,0.0,0.0,0.0,0.0,0.0,0.0,0.0,0.0,0.0,0.0,0.0,0.0,0.0,0.0,0.0,0.0,0.0,0.0,0.0,0.0,0.0,0.0,0.0,0.0,0.0,0.0,0.0,0.0,0.0,0.0,0.0,0.0,0.0,0.0,0.0,0.0,0.0,0.0,0.0,0.0,0.0,0.0,0.0,0.0,0.0,0.0,0.0,0.0,0.0,0.0,0.0,0.0,0.0,0.0,0.0,0.0,0.0,0.0,0.0,0.0,0.0,0.0,0.0,0.0,0.0,0.0,0.0,-2.6337,-2.8367,-3.1977,-3.4891,-3.6585,-3.6688,-3.5219,-3.1946,0.0,0.0,0.0,0.0,0.0,0.0,0.0,0.0,0.0,0.0,0.0,0.0,0.0,0.0]}]]]